<?xml version='1.0' encoding='UTF-8'?><gpx version="1.1" creator="JPX - https://github.com/jenetics/jpx" xmlns="http://www.topografix.com/GPX/1/1"><trk><trkseg><trkpt lat="50.98644869845792" lon="4.813098932519869"><ele>10.0</ele><time>2026-04-22T15:12:33Z</time></trkpt><trkpt lat="50.98608434045414" lon="4.8128045969433755"><ele>10.0</ele><time>2026-04-22T15:13:28.999Z</time></trkpt><trkpt lat="50.98643918493349" lon="4.813110885211875"><ele>10.0</ele><time>2026-04-22T15:13:34.999Z</time></trkpt><trkpt lat="50.98630704524758" lon="4.81290361102374"><ele>10.0</ele><time>2026-04-22T15:13:41.999Z</time></trkpt><trkpt lat="50.986241400525" lon="4.81283121028351"><ele>10.0</ele><time>2026-04-22T15:13:42.999Z</time></trkpt><trkpt lat="50.98616086702466" lon="4.812779967994149"><ele>10.0</ele><time>2026-04-22T15:13:43.999Z</time></trkpt><trkpt lat="50.98606715651692" lon="4.812758027829905"><ele>10.0</ele><time>2026-04-22T15:13:44.999Z</time></trkpt><trkpt lat="50.985964170274904" lon="4.812748422627704"><ele>10.0</ele><time>2026-04-22T15:13:45.999Z</time></trkpt><trkpt lat="50.985863422597006" lon="4.81275282733361"><ele>10.0</ele><time>2026-04-22T15:13:46.999Z</time></trkpt><trkpt lat="50.9857538083898" lon="4.812768621377704"><ele>10.0</ele><time>2026-04-22T15:13:47.999Z</time></trkpt><trkpt lat="50.98564000276239" lon="4.812785531010187"><ele>10.0</ele><time>2026-04-22T15:13:48.999Z</time></trkpt><trkpt lat="50.985524183316684" lon="4.812798587666503"><ele>10.0</ele><time>2026-04-22T15:13:49.999Z</time></trkpt><trkpt lat="50.98540397103591" lon="4.812803625553755"><ele>10.25</ele><time>2026-04-22T15:13:50.999Z</time></trkpt><trkpt lat="50.98528703451774" lon="4.812815724967934"><ele>10.5</ele><time>2026-04-22T15:13:51.999Z</time></trkpt><trkpt lat="50.9851701962689" lon="4.812824690059778"><ele>10.75</ele><time>2026-04-22T15:13:52.999Z</time></trkpt><trkpt lat="50.985050733021815" lon="4.8128392034506"><ele>11.0</ele><time>2026-04-22T15:13:53.999Z</time></trkpt><trkpt lat="50.98492935992347" lon="4.812856136372601"><ele>11.0</ele><time>2026-04-22T15:13:54.999Z</time></trkpt><trkpt lat="50.98480917704536" lon="4.812864897752764"><ele>11.0</ele><time>2026-04-22T15:13:55.999Z</time></trkpt><trkpt lat="50.98469065157299" lon="4.812877069211265"><ele>11.0</ele><time>2026-04-22T15:13:56.999Z</time></trkpt><trkpt lat="50.98456801075962" lon="4.812892996468254"><ele>11.0</ele><time>2026-04-22T15:13:57.999Z</time></trkpt><trkpt lat="50.98445517343883" lon="4.8129030719156205"><ele>11.0</ele><time>2026-04-22T15:13:58.999Z</time></trkpt><trkpt lat="50.98435855082114" lon="4.812910782962166"><ele>11.0</ele><time>2026-04-22T15:13:59.999Z</time></trkpt><trkpt lat="50.984260790249984" lon="4.812920578629445"><ele>11.0</ele><time>2026-04-22T15:14:00.999Z</time></trkpt><trkpt lat="50.98416094159273" lon="4.812933664394978"><ele>11.0</ele><time>2026-04-22T15:14:01.999Z</time></trkpt><trkpt lat="50.98406181142107" lon="4.812946849485477"><ele>11.0</ele><time>2026-04-22T15:14:02.999Z</time></trkpt><trkpt lat="50.98396113111178" lon="4.81295327376414"><ele>10.833333333333332</ele><time>2026-04-22T15:14:03.999Z</time></trkpt><trkpt lat="50.98387318667312" lon="4.812958717979581"><ele>10.666666666666666</ele><time>2026-04-22T15:14:04.999Z</time></trkpt><trkpt lat="50.983799665452445" lon="4.812965482240767"><ele>10.5</ele><time>2026-04-22T15:14:05.999Z</time></trkpt><trkpt lat="50.98369040385344" lon="4.812962273153224"><ele>10.333333333333334</ele><time>2026-04-22T15:14:07.999Z</time></trkpt><trkpt lat="50.983618128089915" lon="4.812966595334228"><ele>10.166666666666668</ele><time>2026-04-22T15:14:10.999Z</time></trkpt><trkpt lat="50.983586615517346" lon="4.812848051057608"><ele>10.0</ele><time>2026-04-22T15:14:12.999Z</time></trkpt><trkpt lat="50.9835415557636" lon="4.812771689536482"><ele>10.0</ele><time>2026-04-22T15:14:14.998Z</time></trkpt><trkpt lat="50.98351539218266" lon="4.812642528562614"><ele>10.0</ele><time>2026-04-22T15:14:17.998Z</time></trkpt><trkpt lat="50.98348801910289" lon="4.8125044952019715"><ele>10.0</ele><time>2026-04-22T15:14:20.998Z</time></trkpt><trkpt lat="50.9834619574141" lon="4.8123301137864605"><ele>10.0</ele><time>2026-04-22T15:14:22.998Z</time></trkpt><trkpt lat="50.98342574011787" lon="4.812223443280362"><ele>10.0</ele><time>2026-04-22T15:14:23.998Z</time></trkpt><trkpt lat="50.98340574212981" lon="4.812078052064624"><ele>10.0</ele><time>2026-04-22T15:14:25.998Z</time></trkpt><trkpt lat="50.9833774979155" lon="4.811948082213922"><ele>10.0</ele><time>2026-04-22T15:14:29.998Z</time></trkpt><trkpt lat="50.98336386532981" lon="4.811779776928776"><ele>10.0</ele><time>2026-04-22T15:14:31.998Z</time></trkpt><trkpt lat="50.983345010422966" lon="4.811675494094385"><ele>10.0</ele><time>2026-04-22T15:14:32.998Z</time></trkpt><trkpt lat="50.98330393510049" lon="4.8115579017926144"><ele>10.0</ele><time>2026-04-22T15:14:34Z</time></trkpt><trkpt lat="50.983281416236544" lon="4.811419141770545"><ele>10.0</ele><time>2026-04-22T15:14:35Z</time></trkpt><trkpt lat="50.98326103485574" lon="4.811313635733561"><ele>10.142857142857142</ele><time>2026-04-22T15:14:36Z</time></trkpt><trkpt lat="50.98324659195394" lon="4.811188269330221"><ele>10.285714285714286</ele><time>2026-04-22T15:14:38Z</time></trkpt><trkpt lat="50.98324069698961" lon="4.8110755727703935"><ele>10.428571428571429</ele><time>2026-04-22T15:14:50Z</time></trkpt><trkpt lat="50.98323744174438" lon="4.810938846234086"><ele>10.571428571428571</ele><time>2026-04-22T15:14:52Z</time></trkpt><trkpt lat="50.98322449625495" lon="4.810824244854223"><ele>10.714285714285714</ele><time>2026-04-22T15:14:54Z</time></trkpt><trkpt lat="50.98319199807739" lon="4.81072839522684"><ele>10.857142857142858</ele><time>2026-04-22T15:14:58Z</time></trkpt><trkpt lat="50.98315687237261" lon="4.810635464082118"><ele>11.0</ele><time>2026-04-22T15:15:04Z</time></trkpt><trkpt lat="50.98304084415201" lon="4.810647158756448"><ele>11.0</ele><time>2026-04-22T15:15:05Z</time></trkpt><trkpt lat="50.98295806822999" lon="4.8106482383375555"><ele>11.0</ele><time>2026-04-22T15:15:06Z</time></trkpt><trkpt lat="50.982862165469726" lon="4.810662656943457"><ele>11.0</ele><time>2026-04-22T15:15:07Z</time></trkpt><trkpt lat="50.98274679495886" lon="4.810674312932015"><ele>11.0</ele><time>2026-04-22T15:15:08Z</time></trkpt><trkpt lat="50.98262297858843" lon="4.810684701397175"><ele>11.0</ele><time>2026-04-22T15:15:09Z</time></trkpt><trkpt lat="50.98248060430845" lon="4.8107018472937"><ele>11.333333333333332</ele><time>2026-04-22T15:15:10Z</time></trkpt><trkpt lat="50.982336762988204" lon="4.8107161723215865"><ele>11.666666666666666</ele><time>2026-04-22T15:15:11Z</time></trkpt><trkpt lat="50.98218020612814" lon="4.810734106534937"><ele>12.0</ele><time>2026-04-22T15:15:12Z</time></trkpt><trkpt lat="50.98200076156597" lon="4.810752092826644"><ele>12.0</ele><time>2026-04-22T15:15:13Z</time></trkpt><trkpt lat="50.981813280255665" lon="4.81077836857958"><ele>12.0</ele><time>2026-04-22T15:15:13.999Z</time></trkpt><trkpt lat="50.981628949211476" lon="4.810798510405827"><ele>12.0</ele><time>2026-04-22T15:15:14.999Z</time></trkpt><trkpt lat="50.981420343570434" lon="4.810818964692025"><ele>12.0</ele><time>2026-04-22T15:15:15.999Z</time></trkpt><trkpt lat="50.98121409002225" lon="4.8108507010442585"><ele>12.0</ele><time>2026-04-22T15:15:16.999Z</time></trkpt><trkpt lat="50.98100422609576" lon="4.810899378058668"><ele>12.0</ele><time>2026-04-22T15:15:17.999Z</time></trkpt><trkpt lat="50.980799878373205" lon="4.810946012359958"><ele>13.0</ele><time>2026-04-22T15:15:18.999Z</time></trkpt><trkpt lat="50.98059332702415" lon="4.811019215923745"><ele>14.0</ele><time>2026-04-22T15:15:19.999Z</time></trkpt><trkpt lat="50.98038973415741" lon="4.81109820100841"><ele>15.0</ele><time>2026-04-22T15:15:20.999Z</time></trkpt><trkpt lat="50.98018728661736" lon="4.8112006552278554"><ele>15.666666666666668</ele><time>2026-04-22T15:15:21.999Z</time></trkpt><trkpt lat="50.97998215372395" lon="4.811315201312414"><ele>16.333333333333336</ele><time>2026-04-22T15:15:22.999Z</time></trkpt><trkpt lat="50.979777615488146" lon="4.811451614954413"><ele>17.0</ele><time>2026-04-22T15:15:23.999Z</time></trkpt><trkpt lat="50.9795833648421" lon="4.811608883439176"><ele>17.0</ele><time>2026-04-22T15:15:24.999Z</time></trkpt><trkpt lat="50.97938667083863" lon="4.811779065443022"><ele>17.0</ele><time>2026-04-22T15:15:25.999Z</time></trkpt><trkpt lat="50.97919886852356" lon="4.811968374969807"><ele>17.0</ele><time>2026-04-22T15:15:26.999Z</time></trkpt><trkpt lat="50.979014945318475" lon="4.812179133832491"><ele>17.0</ele><time>2026-04-22T15:15:27.999Z</time></trkpt><trkpt lat="50.97884339308496" lon="4.8124012178065145"><ele>17.0</ele><time>2026-04-22T15:15:28.999Z</time></trkpt><trkpt lat="50.978672965853775" lon="4.812634481040904"><ele>17.0</ele><time>2026-04-22T15:15:29.999Z</time></trkpt><trkpt lat="50.97850779896506" lon="4.812883062707254"><ele>17.0</ele><time>2026-04-22T15:15:30.999Z</time></trkpt><trkpt lat="50.97835663535879" lon="4.8131311785351185"><ele>17.0</ele><time>2026-04-22T15:15:31.999Z</time></trkpt><trkpt lat="50.97820443570469" lon="4.813393728408722"><ele>17.0</ele><time>2026-04-22T15:15:32.999Z</time></trkpt><trkpt lat="50.97806102511317" lon="4.813665131173537"><ele>17.0</ele><time>2026-04-22T15:15:33.999Z</time></trkpt><trkpt lat="50.97792021862697" lon="4.813939791492109"><ele>17.0</ele><time>2026-04-22T15:15:34.999Z</time></trkpt><trkpt lat="50.97777703911074" lon="4.814218322079442"><ele>17.0</ele><time>2026-04-22T15:15:35.999Z</time></trkpt><trkpt lat="50.977635679288454" lon="4.814484987476494"><ele>17.0</ele><time>2026-04-22T15:15:36.999Z</time></trkpt><trkpt lat="50.977493326050315" lon="4.814747021591996"><ele>17.0</ele><time>2026-04-22T15:15:37.999Z</time></trkpt><trkpt lat="50.977353092888286" lon="4.815013211577326"><ele>17.0</ele><time>2026-04-22T15:15:38.999Z</time></trkpt><trkpt lat="50.977219823682304" lon="4.815288316372746"><ele>17.0</ele><time>2026-04-22T15:15:39.999Z</time></trkpt><trkpt lat="50.977098306544946" lon="4.81558220114167"><ele>17.0</ele><time>2026-04-22T15:15:40.999Z</time></trkpt><trkpt lat="50.97699216634812" lon="4.815884678162269"><ele>17.0</ele><time>2026-04-22T15:15:41.999Z</time></trkpt><trkpt lat="50.97689726374743" lon="4.816202437182889"><ele>17.0</ele><time>2026-04-22T15:15:42.999Z</time></trkpt><trkpt lat="50.97682310626675" lon="4.816525361045255"><ele>17.0</ele><time>2026-04-22T15:15:43.999Z</time></trkpt><trkpt lat="50.97677364156968" lon="4.816857872775212"><ele>17.0</ele><time>2026-04-22T15:15:44.999Z</time></trkpt><trkpt lat="50.976745350422256" lon="4.817197471330491"><ele>18.0</ele><time>2026-04-22T15:15:45.999Z</time></trkpt><trkpt lat="50.97673166601633" lon="4.817547047270149"><ele>19.0</ele><time>2026-04-22T15:15:46.999Z</time></trkpt><trkpt lat="50.97673937737188" lon="4.817889810254035"><ele>20.0</ele><time>2026-04-22T15:15:47.999Z</time></trkpt><trkpt lat="50.97676919762631" lon="4.818231166576401"><ele>20.666666666666668</ele><time>2026-04-22T15:15:48.999Z</time></trkpt><trkpt lat="50.976821187439626" lon="4.8185652404977635"><ele>21.333333333333332</ele><time>2026-04-22T15:15:49.999Z</time></trkpt><trkpt lat="50.976887614741884" lon="4.818891720632693"><ele>22.0</ele><time>2026-04-22T15:15:50.999Z</time></trkpt><trkpt lat="50.97696025839589" lon="4.819209112597032"><ele>23.0</ele><time>2026-04-22T15:15:51.999Z</time></trkpt><trkpt lat="50.97704255744323" lon="4.819519866361336"><ele>24.0</ele><time>2026-04-22T15:15:52.999Z</time></trkpt><trkpt lat="50.97713353992749" lon="4.819834369158445"><ele>25.0</ele><time>2026-04-22T15:15:53.999Z</time></trkpt><trkpt lat="50.97722100594613" lon="4.820135593418144"><ele>26.666666666666668</ele><time>2026-04-22T15:15:54.999Z</time></trkpt><trkpt lat="50.97730955651241" lon="4.8204466332058535"><ele>28.333333333333336</ele><time>2026-04-22T15:15:55.999Z</time></trkpt><trkpt lat="50.97739855248438" lon="4.820751410624654"><ele>30.0</ele><time>2026-04-22T15:15:56.999Z</time></trkpt><trkpt lat="50.97748632165669" lon="4.821057501955126"><ele>29.0</ele><time>2026-04-22T15:15:57.999Z</time></trkpt><trkpt lat="50.97757633800508" lon="4.821361916757523"><ele>28.0</ele><time>2026-04-22T15:15:58.999Z</time></trkpt><trkpt lat="50.97766482471382" lon="4.821669198752336"><ele>27.0</ele><time>2026-04-22T15:15:59.999Z</time></trkpt><trkpt lat="50.97775359729591" lon="4.821968001517995"><ele>27.0</ele><time>2026-04-22T15:16:00.999Z</time></trkpt><trkpt lat="50.977839051509804" lon="4.822271236213031"><ele>27.0</ele><time>2026-04-22T15:16:01.999Z</time></trkpt><trkpt lat="50.97791781624136" lon="4.822584066355629"><ele>27.0</ele><time>2026-04-22T15:16:02.999Z</time></trkpt><trkpt lat="50.977988440726634" lon="4.822892943807427"><ele>28.0</ele><time>2026-04-22T15:16:03.999Z</time></trkpt><trkpt lat="50.978048744697425" lon="4.82321550410489"><ele>29.0</ele><time>2026-04-22T15:16:04.999Z</time></trkpt><trkpt lat="50.97808983841916" lon="4.823537129835717"><ele>30.0</ele><time>2026-04-22T15:16:05.999Z</time></trkpt><trkpt lat="50.978115807273326" lon="4.8238684124093165"><ele>31.666666666666664</ele><time>2026-04-22T15:16:06.999Z</time></trkpt><trkpt lat="50.97812360246622" lon="4.824188199098932"><ele>33.33333333333333</ele><time>2026-04-22T15:16:07.999Z</time></trkpt><trkpt lat="50.978109278617836" lon="4.8244777243029"><ele>35.0</ele><time>2026-04-22T15:16:08.999Z</time></trkpt><trkpt lat="50.978077903827746" lon="4.824741873774011"><ele>36.33333333333333</ele><time>2026-04-22T15:16:09.999Z</time></trkpt><trkpt lat="50.97803411542646" lon="4.824999847214692"><ele>37.666666666666664</ele><time>2026-04-22T15:16:10.999Z</time></trkpt><trkpt lat="50.97798322124057" lon="4.825253175249692"><ele>39.0</ele><time>2026-04-22T15:16:11.999Z</time></trkpt><trkpt lat="50.977936620712406" lon="4.8254885288351295"><ele>39.25</ele><time>2026-04-22T15:16:12.999Z</time></trkpt><trkpt lat="50.97789081641356" lon="4.8257092383285825"><ele>39.5</ele><time>2026-04-22T15:16:13.999Z</time></trkpt><trkpt lat="50.977839380421635" lon="4.825897128894086"><ele>39.75</ele><time>2026-04-22T15:16:14.999Z</time></trkpt><trkpt lat="50.97777703200008" lon="4.826060280369038"><ele>40.0</ele><time>2026-04-22T15:16:15.999Z</time></trkpt><trkpt lat="50.97770989282554" lon="4.82618893996161"><ele>40.2</ele><time>2026-04-22T15:16:16.999Z</time></trkpt><trkpt lat="50.977658600958215" lon="4.826280821356277"><ele>40.4</ele><time>2026-04-22T15:16:17.998Z</time></trkpt><trkpt lat="50.97761036955619" lon="4.826369154877311"><ele>40.599999999999994</ele><time>2026-04-22T15:16:19.998Z</time></trkpt><trkpt lat="50.977523729533765" lon="4.826498438973745"><ele>40.8</ele><time>2026-04-22T15:16:46Z</time></trkpt><trkpt lat="50.97742602839945" lon="4.826579532292978"><ele>41.0</ele><time>2026-04-22T15:16:47Z</time></trkpt><trkpt lat="50.97735197814766" lon="4.826662264378766"><ele>41.0</ele><time>2026-04-22T15:16:48Z</time></trkpt><trkpt lat="50.97730122089101" lon="4.8267467553215555"><ele>41.0</ele><time>2026-04-22T15:16:49Z</time></trkpt><trkpt lat="50.977216438454136" lon="4.826795505976186"><ele>41.0</ele><time>2026-04-22T15:16:50Z</time></trkpt><trkpt lat="50.977155309526765" lon="4.82687959429255"><ele>41.0</ele><time>2026-04-22T15:16:52Z</time></trkpt><trkpt lat="50.977062940044036" lon="4.8270171317178345"><ele>41.0</ele><time>2026-04-22T15:17:16Z</time></trkpt><trkpt lat="50.976991822726234" lon="4.827152323595118"><ele>41.666666666666664</ele><time>2026-04-22T15:17:17Z</time></trkpt><trkpt lat="50.97689730920263" lon="4.827284994098248"><ele>42.333333333333336</ele><time>2026-04-22T15:17:18Z</time></trkpt><trkpt lat="50.976766274452814" lon="4.827431813981937"><ele>43.0</ele><time>2026-04-22T15:17:18.999Z</time></trkpt><trkpt lat="50.9766014582134" lon="4.8275989112679545"><ele>44.0</ele><time>2026-04-22T15:17:19.999Z</time></trkpt><trkpt lat="50.9764202983938" lon="4.827786072517384"><ele>45.0</ele><time>2026-04-22T15:17:20.999Z</time></trkpt><trkpt lat="50.97622502712431" lon="4.8279901166255605"><ele>45.0</ele><time>2026-04-22T15:17:21.999Z</time></trkpt><trkpt lat="50.97602834457317" lon="4.828182897816629"><ele>45.0</ele><time>2026-04-22T15:17:22.999Z</time></trkpt><trkpt lat="50.97584834459096" lon="4.8283538165742454"><ele>45.0</ele><time>2026-04-22T15:17:23.999Z</time></trkpt><trkpt lat="50.975667874864925" lon="4.82852190911613"><ele>45.0</ele><time>2026-04-22T15:17:24.999Z</time></trkpt><trkpt lat="50.975487657738384" lon="4.828697840707803"><ele>45.0</ele><time>2026-04-22T15:17:25.999Z</time></trkpt><trkpt lat="50.97531515727664" lon="4.828878979646265"><ele>45.0</ele><time>2026-04-22T15:17:26.999Z</time></trkpt><trkpt lat="50.97514468599957" lon="4.829073159762487"><ele>45.0</ele><time>2026-04-22T15:17:27.999Z</time></trkpt><trkpt lat="50.97497386829268" lon="4.8292741977018325"><ele>45.0</ele><time>2026-04-22T15:17:28.999Z</time></trkpt><trkpt lat="50.97480861494274" lon="4.82947068427823"><ele>45.0</ele><time>2026-04-22T15:17:29.999Z</time></trkpt><trkpt lat="50.974636907486946" lon="4.829677835185875"><ele>45.0</ele><time>2026-04-22T15:17:30.999Z</time></trkpt><trkpt lat="50.974468852442605" lon="4.8298907701918115"><ele>45.0</ele><time>2026-04-22T15:17:31.999Z</time></trkpt><trkpt lat="50.974299018719414" lon="4.830113211595013"><ele>45.0</ele><time>2026-04-22T15:17:32.999Z</time></trkpt><trkpt lat="50.97413480533785" lon="4.830341260405396"><ele>46.0</ele><time>2026-04-22T15:17:33.999Z</time></trkpt><trkpt lat="50.9739787301712" lon="4.830562401084899"><ele>47.0</ele><time>2026-04-22T15:17:34.999Z</time></trkpt><trkpt lat="50.97381856702922" lon="4.830797663838803"><ele>48.0</ele><time>2026-04-22T15:17:35.999Z</time></trkpt><trkpt lat="50.973657247135456" lon="4.831039582039713"><ele>48.33333333333333</ele><time>2026-04-22T15:17:36.999Z</time></trkpt><trkpt lat="50.97349521852195" lon="4.831285533622306"><ele>48.666666666666664</ele><time>2026-04-22T15:17:37.999Z</time></trkpt><trkpt lat="50.973331079949546" lon="4.831529571380096"><ele>49.0</ele><time>2026-04-22T15:17:38.999Z</time></trkpt><trkpt lat="50.973163564478824" lon="4.831773731782044"><ele>48.5</ele><time>2026-04-22T15:17:39.999Z</time></trkpt><trkpt lat="50.97299814646914" lon="4.832015929011995"><ele>48.0</ele><time>2026-04-22T15:17:40.999Z</time></trkpt><trkpt lat="50.97283177456969" lon="4.832266825251756"><ele>48.0</ele><time>2026-04-22T15:17:41.999Z</time></trkpt><trkpt lat="50.97266590817603" lon="4.8325162239164365"><ele>48.0</ele><time>2026-04-22T15:17:42.999Z</time></trkpt><trkpt lat="50.972501034389765" lon="4.832754207146873"><ele>48.0</ele><time>2026-04-22T15:17:43.999Z</time></trkpt><trkpt lat="50.97232625542045" lon="4.832992915807755"><ele>48.0</ele><time>2026-04-22T15:17:44.999Z</time></trkpt><trkpt lat="50.97215086545678" lon="4.833224872310837"><ele>48.0</ele><time>2026-04-22T15:17:45.999Z</time></trkpt><trkpt lat="50.97197009846503" lon="4.833445892691922"><ele>48.0</ele><time>2026-04-22T15:17:46.999Z</time></trkpt><trkpt lat="50.97178410241798" lon="4.83365421158373"><ele>48.0</ele><time>2026-04-22T15:17:47.999Z</time></trkpt><trkpt lat="50.971592302044485" lon="4.833854944320816"><ele>48.0</ele><time>2026-04-22T15:17:48.999Z</time></trkpt><trkpt lat="50.97139642241102" lon="4.8340510447517575"><ele>48.0</ele><time>2026-04-22T15:17:49.999Z</time></trkpt><trkpt lat="50.9711975120109" lon="4.834233685217939"><ele>48.0</ele><time>2026-04-22T15:17:50.999Z</time></trkpt><trkpt lat="50.970990328717434" lon="4.834399995178678"><ele>48.0</ele><time>2026-04-22T15:17:51.999Z</time></trkpt><trkpt lat="50.97077728970666" lon="4.834552555664858"><ele>48.0</ele><time>2026-04-22T15:17:52.999Z</time></trkpt><trkpt lat="50.970560827805436" lon="4.8346933028798915"><ele>48.0</ele><time>2026-04-22T15:17:53.999Z</time></trkpt><trkpt lat="50.97034252625358" lon="4.834828910655063"><ele>48.0</ele><time>2026-04-22T15:17:54.999Z</time></trkpt><trkpt lat="50.970123992884325" lon="4.8349653117661235"><ele>49.0</ele><time>2026-04-22T15:17:55.999Z</time></trkpt><trkpt lat="50.96991023109162" lon="4.835107316568395"><ele>50.0</ele><time>2026-04-22T15:17:56.999Z</time></trkpt><trkpt lat="50.969680171524764" lon="4.835212910851184"><ele>50.0</ele><time>2026-04-22T15:17:57.999Z</time></trkpt><trkpt lat="50.96946439227519" lon="4.835299731718665"><ele>50.0</ele><time>2026-04-22T15:17:58.999Z</time></trkpt><trkpt lat="50.969252091760815" lon="4.835378902468124"><ele>50.0</ele><time>2026-04-22T15:17:59.999Z</time></trkpt><trkpt lat="50.969055307605565" lon="4.835444723103133"><ele>51.66666666666667</ele><time>2026-04-22T15:18:00.999Z</time></trkpt><trkpt lat="50.968880518812576" lon="4.8354991410661965"><ele>53.33333333333333</ele><time>2026-04-22T15:18:01.999Z</time></trkpt><trkpt lat="50.96872474372439" lon="4.8355698563016105"><ele>55.0</ele><time>2026-04-22T15:18:02.999Z</time></trkpt><trkpt lat="50.968589444865785" lon="4.835600249399826"><ele>54.99999999999999</ele><time>2026-04-22T15:18:03.999Z</time></trkpt><trkpt lat="50.96847403587733" lon="4.835632319283325"><ele>55.0</ele><time>2026-04-22T15:18:04.999Z</time></trkpt><trkpt lat="50.96838339110475" lon="4.835655151950376"><ele>55.0</ele><time>2026-04-22T15:18:05.999Z</time></trkpt><trkpt lat="50.968321009811945" lon="4.835673791880376"><ele>55.0</ele><time>2026-04-22T15:18:06.999Z</time></trkpt><trkpt lat="50.96824256186078" lon="4.835672350591115"><ele>54.99999999999999</ele><time>2026-04-22T15:18:11.999Z</time></trkpt><trkpt lat="50.96815866793252" lon="4.83569337174587"><ele>55.0</ele><time>2026-04-22T15:18:13.999Z</time></trkpt><trkpt lat="50.96809025086507" lon="4.835710514901103"><ele>55.2</ele><time>2026-04-22T15:18:14.999Z</time></trkpt><trkpt lat="50.96800710652989" lon="4.835731348262062"><ele>55.4</ele><time>2026-04-22T15:18:15.999Z</time></trkpt><trkpt lat="50.96792370055021" lon="4.835752247140232"><ele>55.599999999999994</ele><time>2026-04-22T15:18:16.999Z</time></trkpt><trkpt lat="50.967826423145176" lon="4.8357766217843"><ele>55.8</ele><time>2026-04-22T15:18:17.999Z</time></trkpt><trkpt lat="50.967727657614724" lon="4.835827571924221"><ele>56.0</ele><time>2026-04-22T15:18:18.999Z</time></trkpt><trkpt lat="50.96760714024097" lon="4.835852939973856"><ele>55.5</ele><time>2026-04-22T15:18:19.999Z</time></trkpt><trkpt lat="50.96748704429562" lon="4.835883630194427"><ele>55.0</ele><time>2026-04-22T15:18:20.999Z</time></trkpt><trkpt lat="50.967359298924954" lon="4.835920470865012"><ele>54.5</ele><time>2026-04-22T15:18:21.999Z</time></trkpt><trkpt lat="50.96722192275035" lon="4.8359573565721385"><ele>54.0</ele><time>2026-04-22T15:18:22.998Z</time></trkpt><trkpt lat="50.96708295569004" lon="4.835994955828289"><ele>53.33333333333333</ele><time>2026-04-22T15:18:23.998Z</time></trkpt><trkpt lat="50.96693870842757" lon="4.836034721660741"><ele>52.666666666666664</ele><time>2026-04-22T15:18:24.998Z</time></trkpt><trkpt lat="50.96678506461957" lon="4.836079802832801"><ele>52.0</ele><time>2026-04-22T15:18:25.998Z</time></trkpt><trkpt lat="50.96662696443735" lon="4.836125270473222"><ele>52.0</ele><time>2026-04-22T15:18:26.998Z</time></trkpt><trkpt lat="50.96646505361245" lon="4.836176295269432"><ele>52.0</ele><time>2026-04-22T15:18:27.998Z</time></trkpt><trkpt lat="50.966304392280726" lon="4.836224847463463"><ele>52.0</ele><time>2026-04-22T15:18:28.998Z</time></trkpt><trkpt lat="50.96615256416986" lon="4.836262187529242"><ele>52.0</ele><time>2026-04-22T15:18:29.998Z</time></trkpt><trkpt lat="50.96600077745084" lon="4.836303539513408"><ele>52.0</ele><time>2026-04-22T15:18:30.998Z</time></trkpt><trkpt lat="50.96584974341705" lon="4.836346402675545"><ele>52.0</ele><time>2026-04-22T15:18:31.998Z</time></trkpt><trkpt lat="50.96570358941443" lon="4.836383400242139"><ele>50.0</ele><time>2026-04-22T15:18:32.998Z</time></trkpt><trkpt lat="50.96554874965662" lon="4.836422066431853"><ele>48.0</ele><time>2026-04-22T15:18:33.998Z</time></trkpt><trkpt lat="50.965394590160784" lon="4.836464153779956"><ele>46.0</ele><time>2026-04-22T15:18:34.998Z</time></trkpt><trkpt lat="50.96523679173644" lon="4.836506641581389"><ele>46.0</ele><time>2026-04-22T15:18:35.998Z</time></trkpt><trkpt lat="50.965080865142156" lon="4.83654744946882"><ele>46.0</ele><time>2026-04-22T15:18:36.998Z</time></trkpt><trkpt lat="50.96492876453164" lon="4.836585457326356"><ele>46.0</ele><time>2026-04-22T15:18:37.998Z</time></trkpt><trkpt lat="50.96478009773389" lon="4.8366258037551155"><ele>46.66666666666667</ele><time>2026-04-22T15:18:38.998Z</time></trkpt><trkpt lat="50.96462914154822" lon="4.836666161417211"><ele>47.333333333333336</ele><time>2026-04-22T15:18:39.998Z</time></trkpt><trkpt lat="50.96449045127626" lon="4.836708528724214"><ele>48.0</ele><time>2026-04-22T15:18:40.998Z</time></trkpt><trkpt lat="50.964334930962124" lon="4.836759668793186"><ele>48.0</ele><time>2026-04-22T15:18:41.998Z</time></trkpt><trkpt lat="50.96418108367992" lon="4.836765715711255"><ele>48.0</ele><time>2026-04-22T15:18:42.998Z</time></trkpt><trkpt lat="50.96403258642593" lon="4.836817081413852"><ele>48.0</ele><time>2026-04-22T15:18:43.998Z</time></trkpt><trkpt lat="50.9639001484399" lon="4.836849468595853"><ele>48.0</ele><time>2026-04-22T15:18:44.998Z</time></trkpt><trkpt lat="50.963773318415576" lon="4.836883825058351"><ele>48.25</ele><time>2026-04-22T15:18:46Z</time></trkpt><trkpt lat="50.96361451163067" lon="4.836915620145427"><ele>48.5</ele><time>2026-04-22T15:18:47Z</time></trkpt><trkpt lat="50.963474881336154" lon="4.836944444786295"><ele>48.75</ele><time>2026-04-22T15:18:48Z</time></trkpt><trkpt lat="50.96333360517046" lon="4.836983766181258"><ele>49.0</ele><time>2026-04-22T15:18:49Z</time></trkpt><trkpt lat="50.9631859231261" lon="4.837024129787379"><ele>49.0</ele><time>2026-04-22T15:18:50Z</time></trkpt><trkpt lat="50.96304053591087" lon="4.837062468909341"><ele>49.0</ele><time>2026-04-22T15:18:51Z</time></trkpt><trkpt lat="50.96289243424437" lon="4.837100620372673"><ele>49.0</ele><time>2026-04-22T15:18:52Z</time></trkpt><trkpt lat="50.9627423577593" lon="4.837141764761168"><ele>49.0</ele><time>2026-04-22T15:18:53Z</time></trkpt><trkpt lat="50.9625960541955" lon="4.837185014132636"><ele>49.0</ele><time>2026-04-22T15:18:54Z</time></trkpt><trkpt lat="50.9624499050361" lon="4.837221308342045"><ele>49.0</ele><time>2026-04-22T15:18:55Z</time></trkpt><trkpt lat="50.96230976454227" lon="4.837257613871806"><ele>49.0</ele><time>2026-04-22T15:18:56Z</time></trkpt><trkpt lat="50.96217217117337" lon="4.8372948423298405"><ele>50.0</ele><time>2026-04-22T15:18:57Z</time></trkpt><trkpt lat="50.962052622235824" lon="4.8373265282052005"><ele>51.0</ele><time>2026-04-22T15:18:58Z</time></trkpt><trkpt lat="50.96193825117265" lon="4.837353033756327"><ele>52.0</ele><time>2026-04-22T15:18:59Z</time></trkpt><trkpt lat="50.96182428851117" lon="4.837368801213145"><ele>53.0</ele><time>2026-04-22T15:19:00Z</time></trkpt><trkpt lat="50.961707507895966" lon="4.837389224055137"><ele>53.25</ele><time>2026-04-22T15:19:01Z</time></trkpt><trkpt lat="50.961594597107364" lon="4.837430167640208"><ele>53.5</ele><time>2026-04-22T15:19:02Z</time></trkpt><trkpt lat="50.961482949179256" lon="4.837477728856527"><ele>53.75</ele><time>2026-04-22T15:19:03Z</time></trkpt><trkpt lat="50.96136926452998" lon="4.837520411473885"><ele>54.0</ele><time>2026-04-22T15:19:04Z</time></trkpt><trkpt lat="50.961253696931905" lon="4.837558335696392"><ele>54.0</ele><time>2026-04-22T15:19:05Z</time></trkpt><trkpt lat="50.96113758355509" lon="4.837593416834522"><ele>54.0</ele><time>2026-04-22T15:19:06Z</time></trkpt><trkpt lat="50.961022896611475" lon="4.837623456749654"><ele>54.0</ele><time>2026-04-22T15:19:07Z</time></trkpt><trkpt lat="50.960903978878164" lon="4.837652391259804"><ele>54.0</ele><time>2026-04-22T15:19:08Z</time></trkpt><trkpt lat="50.960785979442406" lon="4.8376875782046245"><ele>54.5</ele><time>2026-04-22T15:19:09Z</time></trkpt><trkpt lat="50.96066286910331" lon="4.837714666854173"><ele>55.0</ele><time>2026-04-22T15:19:10Z</time></trkpt><trkpt lat="50.96053878864843" lon="4.837749119732027"><ele>55.5</ele><time>2026-04-22T15:19:11Z</time></trkpt><trkpt lat="50.96041608801214" lon="4.837785790020635"><ele>56.0</ele><time>2026-04-22T15:19:12Z</time></trkpt><trkpt lat="50.96029389440414" lon="4.837815425304562"><ele>56.0</ele><time>2026-04-22T15:19:13Z</time></trkpt><trkpt lat="50.96018315894588" lon="4.837843393299145"><ele>55.99999999999999</ele><time>2026-04-22T15:19:14Z</time></trkpt><trkpt lat="50.960075507122056" lon="4.83787545764667"><ele>55.99999999999999</ele><time>2026-04-22T15:19:15Z</time></trkpt><trkpt lat="50.959978934898" lon="4.837900918245298"><ele>56.0</ele><time>2026-04-22T15:19:16Z</time></trkpt><trkpt lat="50.9598920844446" lon="4.837920683908951"><ele>56.0</ele><time>2026-04-22T15:19:17Z</time></trkpt><trkpt lat="50.959821712833275" lon="4.837942698569997"><ele>56.00000000000001</ele><time>2026-04-22T15:19:18Z</time></trkpt><trkpt lat="50.95975167910554" lon="4.83793453081017"><ele>56.0</ele><time>2026-04-22T15:19:19Z</time></trkpt><trkpt lat="50.95968573331896" lon="4.837951640359909"><ele>56.0</ele><time>2026-04-22T15:19:20Z</time></trkpt><trkpt lat="50.9596125937628" lon="4.837996598211615"><ele>56.0</ele><time>2026-04-22T15:19:21Z</time></trkpt><trkpt lat="50.9595245859686" lon="4.837992710310642"><ele>56.00000000000001</ele><time>2026-04-22T15:19:22Z</time></trkpt><trkpt lat="50.95942830895787" lon="4.838017443138673"><ele>56.0</ele><time>2026-04-22T15:19:23Z</time></trkpt><trkpt lat="50.95932237578084" lon="4.838045082726862"><ele>56.0</ele><time>2026-04-22T15:19:24Z</time></trkpt><trkpt lat="50.959209739883406" lon="4.838098100794493"><ele>56.0</ele><time>2026-04-22T15:19:25Z</time></trkpt><trkpt lat="50.9590829116062" lon="4.838128393631653"><ele>56.0</ele><time>2026-04-22T15:19:26Z</time></trkpt><trkpt lat="50.95894443918608" lon="4.838161849646521"><ele>56.0</ele><time>2026-04-22T15:19:27Z</time></trkpt><trkpt lat="50.958801446348076" lon="4.838175233224245"><ele>55.66666666666667</ele><time>2026-04-22T15:19:28Z</time></trkpt><trkpt lat="50.95864801871674" lon="4.838181233852892"><ele>55.33333333333333</ele><time>2026-04-22T15:19:28.999Z</time></trkpt><trkpt lat="50.958504353659954" lon="4.83827642559864"><ele>55.0</ele><time>2026-04-22T15:19:29.999Z</time></trkpt><trkpt lat="50.958333950121315" lon="4.838327482357586"><ele>56.33333333333333</ele><time>2026-04-22T15:19:30.999Z</time></trkpt><trkpt lat="50.95816254359693" lon="4.838373406098986"><ele>57.66666666666667</ele><time>2026-04-22T15:19:31.999Z</time></trkpt><trkpt lat="50.957989337942536" lon="4.838389644398491"><ele>59.0</ele><time>2026-04-22T15:19:32.999Z</time></trkpt><trkpt lat="50.95781281929493" lon="4.838430120012512"><ele>59.0</ele><time>2026-04-22T15:19:33.999Z</time></trkpt><trkpt lat="50.95763654877941" lon="4.838467665155121"><ele>59.0</ele><time>2026-04-22T15:19:34.999Z</time></trkpt><trkpt lat="50.957455579969825" lon="4.838501082820635"><ele>59.0</ele><time>2026-04-22T15:19:35.999Z</time></trkpt><trkpt lat="50.957276854012164" lon="4.838528061630799"><ele>60.0</ele><time>2026-04-22T15:19:36.999Z</time></trkpt><trkpt lat="50.95710318321647" lon="4.838552534537534"><ele>61.0</ele><time>2026-04-22T15:19:37.999Z</time></trkpt><trkpt lat="50.956927235029546" lon="4.838575432690613"><ele>62.0</ele><time>2026-04-22T15:19:38.999Z</time></trkpt><trkpt lat="50.95676062719077" lon="4.838593347239322"><ele>61.0</ele><time>2026-04-22T15:19:39.999Z</time></trkpt><trkpt lat="50.95660075188717" lon="4.838608405460545"><ele>60.0</ele><time>2026-04-22T15:19:40.999Z</time></trkpt><trkpt lat="50.9564382170046" lon="4.838620718887032"><ele>59.0</ele><time>2026-04-22T15:19:41.999Z</time></trkpt><trkpt lat="50.95627617459431" lon="4.838625247105931"><ele>59.0</ele><time>2026-04-22T15:19:42.999Z</time></trkpt><trkpt lat="50.95611213428163" lon="4.838628111973176"><ele>59.0</ele><time>2026-04-22T15:19:43.999Z</time></trkpt><trkpt lat="50.95595007080776" lon="4.838629668503606"><ele>59.0</ele><time>2026-04-22T15:19:44.999Z</time></trkpt><trkpt lat="50.95578753668931" lon="4.838629671209645"><ele>57.333333333333336</ele><time>2026-04-22T15:19:45.999Z</time></trkpt><trkpt lat="50.9556243729172" lon="4.838629021662693"><ele>55.66666666666667</ele><time>2026-04-22T15:19:46.999Z</time></trkpt><trkpt lat="50.955458270312974" lon="4.838627987496564"><ele>54.0</ele><time>2026-04-22T15:19:47.999Z</time></trkpt><trkpt lat="50.955291979577126" lon="4.838625531056312"><ele>54.0</ele><time>2026-04-22T15:19:48.999Z</time></trkpt><trkpt lat="50.955124836078596" lon="4.8386232686300215"><ele>54.0</ele><time>2026-04-22T15:19:49.999Z</time></trkpt><trkpt lat="50.95495182187149" lon="4.838620887149757"><ele>54.0</ele><time>2026-04-22T15:19:50.999Z</time></trkpt><trkpt lat="50.954777264688836" lon="4.838617904123112"><ele>52.0</ele><time>2026-04-22T15:19:51.999Z</time></trkpt><trkpt lat="50.95459869171544" lon="4.838614755900055"><ele>50.0</ele><time>2026-04-22T15:19:52.999Z</time></trkpt><trkpt lat="50.95442324569184" lon="4.83861261864387"><ele>48.0</ele><time>2026-04-22T15:19:53.999Z</time></trkpt><trkpt lat="50.95426807139874" lon="4.83861072833374"><ele>45.25</ele><time>2026-04-22T15:19:54.999Z</time></trkpt><trkpt lat="50.954114862898535" lon="4.838608861969157"><ele>42.5</ele><time>2026-04-22T15:19:55.999Z</time></trkpt><trkpt lat="50.953958120917" lon="4.838628548974889"><ele>39.75</ele><time>2026-04-22T15:19:56.999Z</time></trkpt><trkpt lat="50.95382018003588" lon="4.8386297336955435"><ele>37.0</ele><time>2026-04-22T15:19:57.999Z</time></trkpt><trkpt lat="50.95368412190609" lon="4.838600360328613"><ele>37.0</ele><time>2026-04-22T15:19:58.999Z</time></trkpt><trkpt lat="50.95355537915145" lon="4.838598400149643"><ele>37.0</ele><time>2026-04-22T15:19:59.999Z</time></trkpt><trkpt lat="50.95342286664912" lon="4.838618449735531"><ele>37.0</ele><time>2026-04-22T15:20:00.999Z</time></trkpt><trkpt lat="50.95330914978716" lon="4.838595305503867"><ele>37.0</ele><time>2026-04-22T15:20:01.999Z</time></trkpt><trkpt lat="50.953207125816554" lon="4.838594184537083"><ele>36.0</ele><time>2026-04-22T15:20:02.999Z</time></trkpt><trkpt lat="50.95309009627215" lon="4.83859248739841"><ele>35.0</ele><time>2026-04-22T15:20:03.999Z</time></trkpt><trkpt lat="50.95298080678017" lon="4.838613678592377"><ele>34.0</ele><time>2026-04-22T15:20:04.999Z</time></trkpt><trkpt lat="50.95288205901883" lon="4.838589470477783"><ele>33.0</ele><time>2026-04-22T15:20:05.999Z</time></trkpt><trkpt lat="50.95279504183954" lon="4.838588208572307"><ele>32.0</ele><time>2026-04-22T15:20:06.999Z</time></trkpt><trkpt lat="50.95271204370367" lon="4.838611357625455"><ele>32.0</ele><time>2026-04-22T15:20:07.999Z</time></trkpt><trkpt lat="50.95264342046515" lon="4.838611996093239"><ele>32.0</ele><time>2026-04-22T15:20:08.999Z</time></trkpt><trkpt lat="50.952527424209755" lon="4.838610761290956"><ele>32.0</ele><time>2026-04-22T15:20:10.999Z</time></trkpt><trkpt lat="50.952436292700064" lon="4.838607053854221"><ele>32.0</ele><time>2026-04-22T15:20:12.999Z</time></trkpt><trkpt lat="50.952356508910604" lon="4.838604835046779"><ele>32.0</ele><time>2026-04-22T15:20:14.999Z</time></trkpt><trkpt lat="50.95226000232891" lon="4.838600933545546"><ele>31.499999999999996</ele><time>2026-04-22T15:20:16.999Z</time></trkpt><trkpt lat="50.95219457474674" lon="4.8385969677355565"><ele>31.0</ele><time>2026-04-22T15:20:17.999Z</time></trkpt><trkpt lat="50.95212055655538" lon="4.838595538203997"><ele>30.5</ele><time>2026-04-22T15:20:18.999Z</time></trkpt><trkpt lat="50.95204041267959" lon="4.838586733229364"><ele>30.0</ele><time>2026-04-22T15:20:19.999Z</time></trkpt><trkpt lat="50.951952718093736" lon="4.8385831144989275"><ele>29.499999999999996</ele><time>2026-04-22T15:20:20.999Z</time></trkpt><trkpt lat="50.95186427189679" lon="4.838577635555735"><ele>29.0</ele><time>2026-04-22T15:20:21.999Z</time></trkpt><trkpt lat="50.95177083769033" lon="4.8385732272216275"><ele>28.75</ele><time>2026-04-22T15:20:22.999Z</time></trkpt><trkpt lat="50.95167331489188" lon="4.838578469982552"><ele>28.5</ele><time>2026-04-22T15:20:23.999Z</time></trkpt><trkpt lat="50.951558215026736" lon="4.838564375137195"><ele>28.25</ele><time>2026-04-22T15:20:24.999Z</time></trkpt><trkpt lat="50.95143399504273" lon="4.838562563967902"><ele>28.0</ele><time>2026-04-22T15:20:25.999Z</time></trkpt><trkpt lat="50.9513130204381" lon="4.838566773139584"><ele>28.0</ele><time>2026-04-22T15:20:26.999Z</time></trkpt><trkpt lat="50.95117769782104" lon="4.8385675735049505"><ele>28.0</ele><time>2026-04-22T15:20:27.999Z</time></trkpt><trkpt lat="50.95103785468577" lon="4.838567979091199"><ele>28.0</ele><time>2026-04-22T15:20:28.998Z</time></trkpt><trkpt lat="50.95089460192043" lon="4.838570844383923"><ele>28.0</ele><time>2026-04-22T15:20:29.998Z</time></trkpt><trkpt lat="50.95074605050303" lon="4.838576168081593"><ele>27.666666666666668</ele><time>2026-04-22T15:20:30.998Z</time></trkpt><trkpt lat="50.95058364022757" lon="4.8385552304524095"><ele>27.333333333333336</ele><time>2026-04-22T15:20:31.998Z</time></trkpt><trkpt lat="50.95042153693843" lon="4.838551930263611"><ele>27.0</ele><time>2026-04-22T15:20:32.998Z</time></trkpt><trkpt lat="50.95025468746521" lon="4.83854853345143"><ele>27.0</ele><time>2026-04-22T15:20:33.998Z</time></trkpt><trkpt lat="50.95007618029375" lon="4.838544899302838"><ele>27.0</ele><time>2026-04-22T15:20:34.998Z</time></trkpt><trkpt lat="50.94990447972295" lon="4.838571289458409"><ele>27.0</ele><time>2026-04-22T15:20:35.998Z</time></trkpt><trkpt lat="50.94972261355303" lon="4.838567447037564"><ele>27.0</ele><time>2026-04-22T15:20:36.998Z</time></trkpt><trkpt lat="50.94954044094716" lon="4.838564927672439"><ele>27.0</ele><time>2026-04-22T15:20:37.998Z</time></trkpt><trkpt lat="50.94935899726983" lon="4.838559993133885"><ele>27.0</ele><time>2026-04-22T15:20:38.998Z</time></trkpt><trkpt lat="50.94916963095888" lon="4.838555602180952"><ele>27.333333333333336</ele><time>2026-04-22T15:20:39.998Z</time></trkpt><trkpt lat="50.94898503288924" lon="4.838551372410523"><ele>27.666666666666668</ele><time>2026-04-22T15:20:40.998Z</time></trkpt><trkpt lat="50.94880083788999" lon="4.838549436606741"><ele>28.0</ele><time>2026-04-22T15:20:41.998Z</time></trkpt><trkpt lat="50.948609853601816" lon="4.838548221386066"><ele>28.0</ele><time>2026-04-22T15:20:42.998Z</time></trkpt><trkpt lat="50.948427023726914" lon="4.8385481573081774"><ele>28.0</ele><time>2026-04-22T15:20:43.998Z</time></trkpt><trkpt lat="50.94824009234184" lon="4.838546903693751"><ele>28.0</ele><time>2026-04-22T15:20:44.998Z</time></trkpt><trkpt lat="50.948049912643235" lon="4.838545247784746"><ele>28.333333333333336</ele><time>2026-04-22T15:20:45.998Z</time></trkpt><trkpt lat="50.94787011486389" lon="4.838538503340316"><ele>28.666666666666664</ele><time>2026-04-22T15:20:46.998Z</time></trkpt><trkpt lat="50.94768946287127" lon="4.8385350301941275"><ele>29.0</ele><time>2026-04-22T15:20:47.998Z</time></trkpt><trkpt lat="50.94751912478094" lon="4.838534456905375"><ele>29.333333333333332</ele><time>2026-04-22T15:20:48.998Z</time></trkpt><trkpt lat="50.94735751221505" lon="4.838531328291871"><ele>29.666666666666664</ele><time>2026-04-22T15:20:49.998Z</time></trkpt><trkpt lat="50.9471923341217" lon="4.83852833220617"><ele>30.0</ele><time>2026-04-22T15:20:50.998Z</time></trkpt><trkpt lat="50.947022180753045" lon="4.8385270435830225"><ele>30.0</ele><time>2026-04-22T15:20:52Z</time></trkpt><trkpt lat="50.94685374354991" lon="4.838527754610245"><ele>30.0</ele><time>2026-04-22T15:20:53Z</time></trkpt><trkpt lat="50.94668216372741" lon="4.838505327822466"><ele>30.0</ele><time>2026-04-22T15:20:54Z</time></trkpt><trkpt lat="50.946506951225885" lon="4.838541328038328"><ele>31.0</ele><time>2026-04-22T15:20:55Z</time></trkpt><trkpt lat="50.946324999028135" lon="4.838529892785868"><ele>32.0</ele><time>2026-04-22T15:20:56Z</time></trkpt><trkpt lat="50.946137100721266" lon="4.8385797884237745"><ele>33.0</ele><time>2026-04-22T15:20:57Z</time></trkpt><trkpt lat="50.945959647494284" lon="4.838615064016487"><ele>33.333333333333336</ele><time>2026-04-22T15:20:58Z</time></trkpt><trkpt lat="50.945781390422965" lon="4.8386538192577335"><ele>33.66666666666667</ele><time>2026-04-22T15:20:59Z</time></trkpt><trkpt lat="50.945611583301975" lon="4.838705100307282"><ele>34.0</ele><time>2026-04-22T15:21:00Z</time></trkpt><trkpt lat="50.945444045770195" lon="4.838762033258416"><ele>34.0</ele><time>2026-04-22T15:21:01Z</time></trkpt><trkpt lat="50.9452789144789" lon="4.838824679640925"><ele>34.0</ele><time>2026-04-22T15:21:02Z</time></trkpt><trkpt lat="50.945105968518305" lon="4.8388951487068015"><ele>34.0</ele><time>2026-04-22T15:21:03Z</time></trkpt><trkpt lat="50.9449435045628" lon="4.838973685428341"><ele>32.333333333333336</ele><time>2026-04-22T15:21:04Z</time></trkpt><trkpt lat="50.94477809371701" lon="4.83906532858475"><ele>30.666666666666664</ele><time>2026-04-22T15:21:05Z</time></trkpt><trkpt lat="50.944608035024764" lon="4.839134421114192"><ele>29.0</ele><time>2026-04-22T15:21:06Z</time></trkpt><trkpt lat="50.94444150466686" lon="4.839236965386757"><ele>29.0</ele><time>2026-04-22T15:21:07Z</time></trkpt><trkpt lat="50.94428276779835" lon="4.839342209597197"><ele>29.0</ele><time>2026-04-22T15:21:08Z</time></trkpt><trkpt lat="50.944133104750414" lon="4.839476584743238"><ele>29.0</ele><time>2026-04-22T15:21:09Z</time></trkpt><trkpt lat="50.9439785017863" lon="4.839585421933052"><ele>29.0</ele><time>2026-04-22T15:21:10Z</time></trkpt><trkpt lat="50.943836624636354" lon="4.839688398272428"><ele>29.0</ele><time>2026-04-22T15:21:11Z</time></trkpt><trkpt lat="50.94370125741237" lon="4.839786460187257"><ele>29.0</ele><time>2026-04-22T15:21:12Z</time></trkpt><trkpt lat="50.94357223467159" lon="4.839882505749287"><ele>29.0</ele><time>2026-04-22T15:21:13Z</time></trkpt><trkpt lat="50.943446868727555" lon="4.839975059543283"><ele>28.5</ele><time>2026-04-22T15:21:14Z</time></trkpt><trkpt lat="50.943323756049544" lon="4.840036624986772"><ele>28.0</ele><time>2026-04-22T15:21:15Z</time></trkpt><trkpt lat="50.943221786993284" lon="4.840138757653111"><ele>27.5</ele><time>2026-04-22T15:21:16Z</time></trkpt><trkpt lat="50.943115449703875" lon="4.840214302854993"><ele>27.0</ele><time>2026-04-22T15:21:17Z</time></trkpt><trkpt lat="50.943013348849234" lon="4.840291496519793"><ele>27.0</ele><time>2026-04-22T15:21:18Z</time></trkpt><trkpt lat="50.94291564154016" lon="4.840358568055371"><ele>27.000000000000004</ele><time>2026-04-22T15:21:19Z</time></trkpt><trkpt lat="50.94282756961849" lon="4.840421834044777"><ele>27.000000000000004</ele><time>2026-04-22T15:21:20Z</time></trkpt><trkpt lat="50.94274297489112" lon="4.840483525307155"><ele>27.0</ele><time>2026-04-22T15:21:21Z</time></trkpt><trkpt lat="50.942649151676385" lon="4.840545905661589"><ele>27.0</ele><time>2026-04-22T15:21:22Z</time></trkpt><trkpt lat="50.94255237500092" lon="4.84061476260527"><ele>26.333333333333332</ele><time>2026-04-22T15:21:23Z</time></trkpt><trkpt lat="50.94246340103599" lon="4.840687427502872"><ele>25.666666666666668</ele><time>2026-04-22T15:21:24Z</time></trkpt><trkpt lat="50.94237064061277" lon="4.840727942212599"><ele>25.0</ele><time>2026-04-22T15:21:25Z</time></trkpt><trkpt lat="50.94228443229956" lon="4.840790891317763"><ele>24.333333333333336</ele><time>2026-04-22T15:21:26Z</time></trkpt><trkpt lat="50.94220981911083" lon="4.840845373958245"><ele>23.666666666666668</ele><time>2026-04-22T15:21:27Z</time></trkpt><trkpt lat="50.94215051113256" lon="4.84089000353016"><ele>23.0</ele><time>2026-04-22T15:21:28Z</time></trkpt><trkpt lat="50.942095259177826" lon="4.840954587147912"><ele>23.2</ele><time>2026-04-22T15:21:30Z</time></trkpt><trkpt lat="50.94203334371232" lon="4.8409818391479975"><ele>23.4</ele><time>2026-04-22T15:21:39.999Z</time></trkpt><trkpt lat="50.941959776891956" lon="4.8410320219230325"><ele>23.599999999999998</ele><time>2026-04-22T15:21:40.999Z</time></trkpt><trkpt lat="50.94187138369039" lon="4.8410980024996855"><ele>23.799999999999997</ele><time>2026-04-22T15:21:41.999Z</time></trkpt><trkpt lat="50.94176176749667" lon="4.841179526012775"><ele>24.0</ele><time>2026-04-22T15:21:42.999Z</time></trkpt><trkpt lat="50.941623794037326" lon="4.841282428353578"><ele>24.333333333333336</ele><time>2026-04-22T15:21:43.999Z</time></trkpt><trkpt lat="50.94147074249429" lon="4.841395462171191"><ele>24.666666666666668</ele><time>2026-04-22T15:21:44.999Z</time></trkpt><trkpt lat="50.94129590831142" lon="4.841526020769412"><ele>25.0</ele><time>2026-04-22T15:21:45.999Z</time></trkpt><trkpt lat="50.941093000336714" lon="4.8416743614057145"><ele>25.5</ele><time>2026-04-22T15:21:46.999Z</time></trkpt><trkpt lat="50.9408909465301" lon="4.841822766491875"><ele>26.0</ele><time>2026-04-22T15:21:47.999Z</time></trkpt><trkpt lat="50.94066620362679" lon="4.84198802827526"><ele>27.0</ele><time>2026-04-22T15:21:48.999Z</time></trkpt><trkpt lat="50.94044550187535" lon="4.842152163365433"><ele>28.0</ele><time>2026-04-22T15:21:49.999Z</time></trkpt><trkpt lat="50.940218295670846" lon="4.842320857091284"><ele>28.5</ele><time>2026-04-22T15:21:50.999Z</time></trkpt><trkpt lat="50.93999474460328" lon="4.842489546545421"><ele>29.0</ele><time>2026-04-22T15:21:51.999Z</time></trkpt><trkpt lat="50.93977485526415" lon="4.842655107567121"><ele>29.0</ele><time>2026-04-22T15:21:52.999Z</time></trkpt><trkpt lat="50.93956317677873" lon="4.842819197672528"><ele>29.0</ele><time>2026-04-22T15:21:53.999Z</time></trkpt><trkpt lat="50.93935525328045" lon="4.84298287054007"><ele>30.0</ele><time>2026-04-22T15:21:54.999Z</time></trkpt><trkpt lat="50.9391505059862" lon="4.8431483218209515"><ele>31.0</ele><time>2026-04-22T15:21:55.999Z</time></trkpt><trkpt lat="50.93894709187613" lon="4.843310279053249"><ele>29.666666666666668</ele><time>2026-04-22T15:21:56.999Z</time></trkpt><trkpt lat="50.93874910753946" lon="4.843465868368883"><ele>28.333333333333336</ele><time>2026-04-22T15:21:57.999Z</time></trkpt><trkpt lat="50.938556759389215" lon="4.843617089753335"><ele>27.0</ele><time>2026-04-22T15:21:58.999Z</time></trkpt><trkpt lat="50.938376943622195" lon="4.843759342374864"><ele>27.0</ele><time>2026-04-22T15:21:59.999Z</time></trkpt><trkpt lat="50.93819731042351" lon="4.843900954217264"><ele>27.0</ele><time>2026-04-22T15:22:00.999Z</time></trkpt><trkpt lat="50.93801887374758" lon="4.844041565345887"><ele>27.0</ele><time>2026-04-22T15:22:01.999Z</time></trkpt><trkpt lat="50.937838807048315" lon="4.844183235842337"><ele>26.666666666666664</ele><time>2026-04-22T15:22:02.999Z</time></trkpt><trkpt lat="50.937661486766636" lon="4.844325892957314"><ele>26.333333333333332</ele><time>2026-04-22T15:22:03.999Z</time></trkpt><trkpt lat="50.93748156389789" lon="4.844467248481922"><ele>26.0</ele><time>2026-04-22T15:22:04.999Z</time></trkpt><trkpt lat="50.93730753706361" lon="4.844602815455891"><ele>26.0</ele><time>2026-04-22T15:22:05.999Z</time></trkpt><trkpt lat="50.937137512998774" lon="4.844737985769807"><ele>26.0</ele><time>2026-04-22T15:22:06.999Z</time></trkpt><trkpt lat="50.936958298140645" lon="4.844879344811944"><ele>26.0</ele><time>2026-04-22T15:22:07.999Z</time></trkpt><trkpt lat="50.93675492808742" lon="4.845013934727837"><ele>25.5</ele><time>2026-04-22T15:22:08.999Z</time></trkpt><trkpt lat="50.93654342823348" lon="4.845178754067565"><ele>25.0</ele><time>2026-04-22T15:22:09.999Z</time></trkpt><trkpt lat="50.93632473413773" lon="4.845349581995829"><ele>25.0</ele><time>2026-04-22T15:22:10.999Z</time></trkpt><trkpt lat="50.9360956749653" lon="4.845528486578065"><ele>25.0</ele><time>2026-04-22T15:22:11.999Z</time></trkpt><trkpt lat="50.93586107033298" lon="4.845712535629313"><ele>25.0</ele><time>2026-04-22T15:22:12.999Z</time></trkpt><trkpt lat="50.93563237957995" lon="4.845916244879239"><ele>25.0</ele><time>2026-04-22T15:22:13.999Z</time></trkpt><trkpt lat="50.93540759622859" lon="4.84609556333359"><ele>25.0</ele><time>2026-04-22T15:22:14.999Z</time></trkpt><trkpt lat="50.93518913703386" lon="4.846240335316552"><ele>25.0</ele><time>2026-04-22T15:22:15.999Z</time></trkpt><trkpt lat="50.93498783193049" lon="4.846428017915972"><ele>25.5</ele><time>2026-04-22T15:22:16.999Z</time></trkpt><trkpt lat="50.93478408071111" lon="4.8465883652855375"><ele>26.0</ele><time>2026-04-22T15:22:17.999Z</time></trkpt><trkpt lat="50.934576363456046" lon="4.846750276611643"><ele>26.0</ele><time>2026-04-22T15:22:18.999Z</time></trkpt><trkpt lat="50.93437599599275" lon="4.84690795445692"><ele>26.0</ele><time>2026-04-22T15:22:19.999Z</time></trkpt><trkpt lat="50.93416979079923" lon="4.847041450930769"><ele>26.0</ele><time>2026-04-22T15:22:20.999Z</time></trkpt><trkpt lat="50.93398162370015" lon="4.847222371569955"><ele>26.0</ele><time>2026-04-22T15:22:21.999Z</time></trkpt><trkpt lat="50.9337829907994" lon="4.847377741858792"><ele>26.0</ele><time>2026-04-22T15:22:22.999Z</time></trkpt><trkpt lat="50.9335815457489" lon="4.8475353351408135"><ele>26.0</ele><time>2026-04-22T15:22:23.999Z</time></trkpt><trkpt lat="50.93338870729573" lon="4.847687570392056"><ele>26.0</ele><time>2026-04-22T15:22:24.999Z</time></trkpt><trkpt lat="50.9331935552053" lon="4.847840846465269"><ele>26.0</ele><time>2026-04-22T15:22:25.999Z</time></trkpt><trkpt lat="50.93299836927593" lon="4.847995304230166"><ele>26.0</ele><time>2026-04-22T15:22:26.999Z</time></trkpt><trkpt lat="50.93280453912181" lon="4.84814747729717"><ele>26.0</ele><time>2026-04-22T15:22:27.999Z</time></trkpt><trkpt lat="50.93260988559294" lon="4.8483009656359615"><ele>26.0</ele><time>2026-04-22T15:22:28.999Z</time></trkpt><trkpt lat="50.932415016351925" lon="4.848451539420976"><ele>26.0</ele><time>2026-04-22T15:22:29.999Z</time></trkpt><trkpt lat="50.932220907027784" lon="4.848602150240547"><ele>26.0</ele><time>2026-04-22T15:22:30.999Z</time></trkpt><trkpt lat="50.93202825487747" lon="4.848751482743605"><ele>26.0</ele><time>2026-04-22T15:22:31.999Z</time></trkpt><trkpt lat="50.93183441318553" lon="4.848904069147257"><ele>26.0</ele><time>2026-04-22T15:22:32.998Z</time></trkpt><trkpt lat="50.93164027301443" lon="4.8490553873624975"><ele>26.0</ele><time>2026-04-22T15:22:33.998Z</time></trkpt><trkpt lat="50.9314493848853" lon="4.849206348549187"><ele>26.0</ele><time>2026-04-22T15:22:34.998Z</time></trkpt><trkpt lat="50.931257721059865" lon="4.849357970170639"><ele>26.0</ele><time>2026-04-22T15:22:35.998Z</time></trkpt><trkpt lat="50.931065448609964" lon="4.849509141372182"><ele>26.333333333333332</ele><time>2026-04-22T15:22:36.998Z</time></trkpt><trkpt lat="50.930871623410575" lon="4.849658361729964"><ele>26.666666666666664</ele><time>2026-04-22T15:22:37.998Z</time></trkpt><trkpt lat="50.9306791805362" lon="4.8498068099125815"><ele>27.0</ele><time>2026-04-22T15:22:38.998Z</time></trkpt><trkpt lat="50.93048431646162" lon="4.849953023302084"><ele>27.0</ele><time>2026-04-22T15:22:39.998Z</time></trkpt><trkpt lat="50.93028622964748" lon="4.850101655840944"><ele>27.0</ele><time>2026-04-22T15:22:40.998Z</time></trkpt><trkpt lat="50.93009417915016" lon="4.850252435459361"><ele>27.0</ele><time>2026-04-22T15:22:41.998Z</time></trkpt><trkpt lat="50.929896466974526" lon="4.850407212863163"><ele>27.333333333333336</ele><time>2026-04-22T15:22:42.998Z</time></trkpt><trkpt lat="50.92969840502509" lon="4.850563129104853"><ele>27.666666666666668</ele><time>2026-04-22T15:22:43.998Z</time></trkpt><trkpt lat="50.929502229718835" lon="4.850721581444645"><ele>28.0</ele><time>2026-04-22T15:22:44.998Z</time></trkpt><trkpt lat="50.92929923614044" lon="4.85088966521742"><ele>28.0</ele><time>2026-04-22T15:22:45.998Z</time></trkpt><trkpt lat="50.9291040792119" lon="4.85105227102434"><ele>28.0</ele><time>2026-04-22T15:22:46.998Z</time></trkpt><trkpt lat="50.92890387230611" lon="4.851209638705159"><ele>28.0</ele><time>2026-04-22T15:22:47.998Z</time></trkpt><trkpt lat="50.92869831253761" lon="4.8513697932468585"><ele>28.0</ele><time>2026-04-22T15:22:48.998Z</time></trkpt><trkpt lat="50.928496011946564" lon="4.851529766117527"><ele>28.0</ele><time>2026-04-22T15:22:49.998Z</time></trkpt><trkpt lat="50.92829066741539" lon="4.851692453985407"><ele>28.0</ele><time>2026-04-22T15:22:50.998Z</time></trkpt><trkpt lat="50.92808901011968" lon="4.851857117673505"><ele>28.0</ele><time>2026-04-22T15:22:51.998Z</time></trkpt><trkpt lat="50.92788227951312" lon="4.852020611102308"><ele>28.0</ele><time>2026-04-22T15:22:52.998Z</time></trkpt><trkpt lat="50.92767622417317" lon="4.852185070242922"><ele>28.0</ele><time>2026-04-22T15:22:53.998Z</time></trkpt><trkpt lat="50.92746833285729" lon="4.8523472143276285"><ele>28.0</ele><time>2026-04-22T15:22:54.998Z</time></trkpt><trkpt lat="50.92725948893889" lon="4.852509433378616"><ele>28.0</ele><time>2026-04-22T15:22:55.998Z</time></trkpt><trkpt lat="50.92705170484059" lon="4.852676508041349"><ele>28.0</ele><time>2026-04-22T15:22:56.998Z</time></trkpt><trkpt lat="50.92684133162214" lon="4.852842703641109"><ele>28.0</ele><time>2026-04-22T15:22:58Z</time></trkpt><trkpt lat="50.92663029553264" lon="4.853007268234379"><ele>29.0</ele><time>2026-04-22T15:22:59Z</time></trkpt><trkpt lat="50.926418340338614" lon="4.8531675798270495"><ele>30.0</ele><time>2026-04-22T15:23:00Z</time></trkpt><trkpt lat="50.92620744780254" lon="4.853316410716693"><ele>30.0</ele><time>2026-04-22T15:23:01Z</time></trkpt><trkpt lat="50.92598596934332" lon="4.853453006160822"><ele>30.0</ele><time>2026-04-22T15:23:02Z</time></trkpt><trkpt lat="50.92576553752642" lon="4.853580417888241"><ele>33.0</ele><time>2026-04-22T15:23:03Z</time></trkpt><trkpt lat="50.92554082679548" lon="4.853695360896809"><ele>36.0</ele><time>2026-04-22T15:23:04Z</time></trkpt><trkpt lat="50.925316346647115" lon="4.8538002391946735"><ele>36.0</ele><time>2026-04-22T15:23:05Z</time></trkpt><trkpt lat="50.925090693987926" lon="4.853894674222871"><ele>36.0</ele><time>2026-04-22T15:23:06Z</time></trkpt><trkpt lat="50.924865692197976" lon="4.853976163474449"><ele>36.5</ele><time>2026-04-22T15:23:07Z</time></trkpt><trkpt lat="50.924635273490466" lon="4.854048102952827"><ele>37.0</ele><time>2026-04-22T15:23:08Z</time></trkpt><trkpt lat="50.92441041625509" lon="4.8541102657648985"><ele>37.5</ele><time>2026-04-22T15:23:09Z</time></trkpt><trkpt lat="50.92418725982156" lon="4.8541637614714945"><ele>38.0</ele><time>2026-04-22T15:23:10Z</time></trkpt><trkpt lat="50.92396205824506" lon="4.854203048642876"><ele>38.0</ele><time>2026-04-22T15:23:11Z</time></trkpt><trkpt lat="50.9237413608638" lon="4.85422514045598"><ele>38.0</ele><time>2026-04-22T15:23:12Z</time></trkpt><trkpt lat="50.92351685109743" lon="4.85423464915794"><ele>38.0</ele><time>2026-04-22T15:23:13Z</time></trkpt><trkpt lat="50.92329248492314" lon="4.8542422344775495"><ele>38.0</ele><time>2026-04-22T15:23:14Z</time></trkpt><trkpt lat="50.92307157667394" lon="4.854246683960931"><ele>38.0</ele><time>2026-04-22T15:23:15Z</time></trkpt><trkpt lat="50.922851089613296" lon="4.8542465879123755"><ele>38.0</ele><time>2026-04-22T15:23:16Z</time></trkpt><trkpt lat="50.92263105562488" lon="4.85424754982549"><ele>39.33333333333333</ele><time>2026-04-22T15:23:17Z</time></trkpt><trkpt lat="50.9224122536534" lon="4.854251481658444"><ele>40.666666666666664</ele><time>2026-04-22T15:23:18Z</time></trkpt><trkpt lat="50.92219472910067" lon="4.854255778938544"><ele>42.0</ele><time>2026-04-22T15:23:19Z</time></trkpt><trkpt lat="50.921977878108216" lon="4.854256124990814"><ele>42.0</ele><time>2026-04-22T15:23:20Z</time></trkpt><trkpt lat="50.92176472098294" lon="4.854262802126876"><ele>42.0</ele><time>2026-04-22T15:23:21Z</time></trkpt><trkpt lat="50.9215506888866" lon="4.8542736715433845"><ele>42.0</ele><time>2026-04-22T15:23:22Z</time></trkpt><trkpt lat="50.92133231070562" lon="4.8542887756953155"><ele>47.66666666666667</ele><time>2026-04-22T15:23:23Z</time></trkpt><trkpt lat="50.92111950497891" lon="4.854319137272778"><ele>53.333333333333336</ele><time>2026-04-22T15:23:24Z</time></trkpt><trkpt lat="50.92090555105523" lon="4.854361241607638"><ele>59.0</ele><time>2026-04-22T15:23:25Z</time></trkpt><trkpt lat="50.92069477780105" lon="4.854416519107252"><ele>62.333333333333336</ele><time>2026-04-22T15:23:26Z</time></trkpt><trkpt lat="50.92048053717512" lon="4.854490949243629"><ele>65.66666666666667</ele><time>2026-04-22T15:23:27Z</time></trkpt><trkpt lat="50.920266720857335" lon="4.854575257029761"><ele>69.0</ele><time>2026-04-22T15:23:28Z</time></trkpt><trkpt lat="50.920055503431556" lon="4.8546650180997775"><ele>69.66666666666667</ele><time>2026-04-22T15:23:29Z</time></trkpt><trkpt lat="50.91984783423033" lon="4.854767519676136"><ele>70.33333333333334</ele><time>2026-04-22T15:23:30Z</time></trkpt><trkpt lat="50.919643255478334" lon="4.854888957521848"><ele>71.0</ele><time>2026-04-22T15:23:31Z</time></trkpt><trkpt lat="50.91944521070221" lon="4.855027418865911"><ele>71.0</ele><time>2026-04-22T15:23:32Z</time></trkpt><trkpt lat="50.91924551736512" lon="4.855178129767367"><ele>71.0</ele><time>2026-04-22T15:23:33Z</time></trkpt><trkpt lat="50.91905266464522" lon="4.855333358150054"><ele>71.0</ele><time>2026-04-22T15:23:34Z</time></trkpt><trkpt lat="50.91886479256891" lon="4.855501227169648"><ele>71.0</ele><time>2026-04-22T15:23:35Z</time></trkpt><trkpt lat="50.918681978234304" lon="4.855681777788167"><ele>71.0</ele><time>2026-04-22T15:23:36Z</time></trkpt><trkpt lat="50.91849978464273" lon="4.855876995583801"><ele>71.0</ele><time>2026-04-22T15:23:37Z</time></trkpt><trkpt lat="50.91831869368286" lon="4.856084913522971"><ele>72.0</ele><time>2026-04-22T15:23:38Z</time></trkpt><trkpt lat="50.91813773680899" lon="4.856302709011885"><ele>73.0</ele><time>2026-04-22T15:23:39Z</time></trkpt><trkpt lat="50.91796462559583" lon="4.856520393393602"><ele>74.0</ele><time>2026-04-22T15:23:40Z</time></trkpt><trkpt lat="50.91778318554228" lon="4.856740021555112"><ele>74.0</ele><time>2026-04-22T15:23:41Z</time></trkpt><trkpt lat="50.91760291309563" lon="4.85695070662531"><ele>74.0</ele><time>2026-04-22T15:23:42Z</time></trkpt><trkpt lat="50.91742188652586" lon="4.85716099553855"><ele>74.0</ele><time>2026-04-22T15:23:42.999Z</time></trkpt><trkpt lat="50.9172435501886" lon="4.857368972917986"><ele>74.66666666666667</ele><time>2026-04-22T15:23:43.999Z</time></trkpt><trkpt lat="50.91706524685512" lon="4.857578424257744"><ele>75.33333333333333</ele><time>2026-04-22T15:23:44.999Z</time></trkpt><trkpt lat="50.91688603531835" lon="4.8577866350209336"><ele>76.0</ele><time>2026-04-22T15:23:45.999Z</time></trkpt><trkpt lat="50.916716985352004" lon="4.8579913453782915"><ele>76.0</ele><time>2026-04-22T15:23:46.999Z</time></trkpt><trkpt lat="50.91654926802024" lon="4.858197270715258"><ele>76.0</ele><time>2026-04-22T15:23:47.999Z</time></trkpt><trkpt lat="50.91638798055536" lon="4.858392726820003"><ele>76.0</ele><time>2026-04-22T15:23:48.999Z</time></trkpt><trkpt lat="50.91622342048696" lon="4.858590877114883"><ele>74.66666666666666</ele><time>2026-04-22T15:23:49.999Z</time></trkpt><trkpt lat="50.916059307789084" lon="4.85878985572327"><ele>73.33333333333333</ele><time>2026-04-22T15:23:50.999Z</time></trkpt><trkpt lat="50.91589673153646" lon="4.858985050824069"><ele>72.0</ele><time>2026-04-22T15:23:51.999Z</time></trkpt><trkpt lat="50.91574325123488" lon="4.859166399351532"><ele>68.33333333333333</ele><time>2026-04-22T15:23:52.999Z</time></trkpt><trkpt lat="50.91558881610431" lon="4.859347251071003"><ele>64.66666666666666</ele><time>2026-04-22T15:23:53.999Z</time></trkpt><trkpt lat="50.915429987985085" lon="4.859537373806735"><ele>61.0</ele><time>2026-04-22T15:23:54.999Z</time></trkpt><trkpt lat="50.915273865952514" lon="4.859719734830806"><ele>61.0</ele><time>2026-04-22T15:23:55.999Z</time></trkpt><trkpt lat="50.91511999755" lon="4.859903788298917"><ele>61.0</ele><time>2026-04-22T15:23:56.999Z</time></trkpt><trkpt lat="50.914959530726875" lon="4.860091207112178"><ele>61.0</ele><time>2026-04-22T15:23:57.999Z</time></trkpt><trkpt lat="50.91480071438045" lon="4.860279081549806"><ele>59.0</ele><time>2026-04-22T15:23:58.999Z</time></trkpt><trkpt lat="50.91464239890101" lon="4.860466364244549"><ele>57.0</ele><time>2026-04-22T15:23:59.999Z</time></trkpt><trkpt lat="50.914484811884776" lon="4.860658477993884"><ele>55.0</ele><time>2026-04-22T15:24:00.999Z</time></trkpt><trkpt lat="50.9143276254922" lon="4.8608497572714215"><ele>54.0</ele><time>2026-04-22T15:24:01.999Z</time></trkpt><trkpt lat="50.91416450596968" lon="4.861046551104953"><ele>53.0</ele><time>2026-04-22T15:24:02.999Z</time></trkpt><trkpt lat="50.914001530745786" lon="4.8612438407581715"><ele>52.0</ele><time>2026-04-22T15:24:03.999Z</time></trkpt><trkpt lat="50.91383896438957" lon="4.861437346104067"><ele>52.0</ele><time>2026-04-22T15:24:04.999Z</time></trkpt><trkpt lat="50.913674298239634" lon="4.861633362839149"><ele>52.0</ele><time>2026-04-22T15:24:05.999Z</time></trkpt><trkpt lat="50.91351238237685" lon="4.86182185095806"><ele>52.0</ele><time>2026-04-22T15:24:06.999Z</time></trkpt><trkpt lat="50.9133537650438" lon="4.862006000584441"><ele>50.33333333333333</ele><time>2026-04-22T15:24:07.999Z</time></trkpt><trkpt lat="50.91319132003477" lon="4.86219651535644"><ele>48.666666666666664</ele><time>2026-04-22T15:24:08.999Z</time></trkpt><trkpt lat="50.91303035329233" lon="4.862390516155303"><ele>47.0</ele><time>2026-04-22T15:24:09.999Z</time></trkpt><trkpt lat="50.91286963796359" lon="4.862581334819339"><ele>46.666666666666664</ele><time>2026-04-22T15:24:10.999Z</time></trkpt><trkpt lat="50.91270664611005" lon="4.8627762896601565"><ele>46.333333333333336</ele><time>2026-04-22T15:24:11.999Z</time></trkpt><trkpt lat="50.912542671763205" lon="4.862973717141832"><ele>46.0</ele><time>2026-04-22T15:24:12.999Z</time></trkpt><trkpt lat="50.91237897697776" lon="4.863162452062974"><ele>45.333333333333336</ele><time>2026-04-22T15:24:13.999Z</time></trkpt><trkpt lat="50.91221074043518" lon="4.8633606515939"><ele>44.666666666666664</ele><time>2026-04-22T15:24:14.999Z</time></trkpt><trkpt lat="50.912048735335894" lon="4.863548319133473"><ele>44.0</ele><time>2026-04-22T15:24:15.999Z</time></trkpt><trkpt lat="50.91188490878594" lon="4.863741474063425"><ele>44.666666666666664</ele><time>2026-04-22T15:24:16.999Z</time></trkpt><trkpt lat="50.911720221097994" lon="4.863945957818532"><ele>45.333333333333336</ele><time>2026-04-22T15:24:17.999Z</time></trkpt><trkpt lat="50.911556533584054" lon="4.864142544297745"><ele>46.0</ele><time>2026-04-22T15:24:18.999Z</time></trkpt><trkpt lat="50.911391983862664" lon="4.864344489740977"><ele>45.333333333333336</ele><time>2026-04-22T15:24:19.999Z</time></trkpt><trkpt lat="50.91122856314414" lon="4.8645416379941455"><ele>44.666666666666664</ele><time>2026-04-22T15:24:20.999Z</time></trkpt><trkpt lat="50.9110648410418" lon="4.864738745721827"><ele>44.0</ele><time>2026-04-22T15:24:21.999Z</time></trkpt><trkpt lat="50.91089934023449" lon="4.864935801984967"><ele>45.0</ele><time>2026-04-22T15:24:22.999Z</time></trkpt><trkpt lat="50.910733705082485" lon="4.8651304845943075"><ele>46.0</ele><time>2026-04-22T15:24:23.999Z</time></trkpt><trkpt lat="50.91057089123821" lon="4.865328614246366"><ele>47.0</ele><time>2026-04-22T15:24:24.999Z</time></trkpt><trkpt lat="50.910408153670105" lon="4.865522096717284"><ele>47.0</ele><time>2026-04-22T15:24:25.999Z</time></trkpt><trkpt lat="50.91024446935641" lon="4.8657127031079535"><ele>47.0</ele><time>2026-04-22T15:24:26.999Z</time></trkpt><trkpt lat="50.91008183281591" lon="4.8659084800003525"><ele>47.0</ele><time>2026-04-22T15:24:27.999Z</time></trkpt><trkpt lat="50.90992115768932" lon="4.866096451272176"><ele>45.0</ele><time>2026-04-22T15:24:28.999Z</time></trkpt><trkpt lat="50.90976057953696" lon="4.866286305635582"><ele>43.0</ele><time>2026-04-22T15:24:29.999Z</time></trkpt><trkpt lat="50.90960058161192" lon="4.86647622860943"><ele>41.0</ele><time>2026-04-22T15:24:30.999Z</time></trkpt><trkpt lat="50.90944034855134" lon="4.866671666455426"><ele>40.666666666666664</ele><time>2026-04-22T15:24:31.999Z</time></trkpt><trkpt lat="50.90928075102629" lon="4.8668532660994845"><ele>40.333333333333336</ele><time>2026-04-22T15:24:32.999Z</time></trkpt><trkpt lat="50.90912209848563" lon="4.867041282275022"><ele>40.0</ele><time>2026-04-22T15:24:33.999Z</time></trkpt><trkpt lat="50.90896445959033" lon="4.867223098335502"><ele>40.66666666666667</ele><time>2026-04-22T15:24:34.999Z</time></trkpt><trkpt lat="50.90881048707084" lon="4.86740507898027"><ele>41.333333333333336</ele><time>2026-04-22T15:24:35.998Z</time></trkpt><trkpt lat="50.90866620562718" lon="4.867580495985324"><ele>42.0</ele><time>2026-04-22T15:24:36.998Z</time></trkpt><trkpt lat="50.9085297915483" lon="4.867750448718435"><ele>43.0</ele><time>2026-04-22T15:24:37.998Z</time></trkpt><trkpt lat="50.90840457555222" lon="4.867903833947536"><ele>44.0</ele><time>2026-04-22T15:24:38.998Z</time></trkpt><trkpt lat="50.90828877089491" lon="4.868040502441011"><ele>45.0</ele><time>2026-04-22T15:24:39.998Z</time></trkpt><trkpt lat="50.90817177652914" lon="4.8681782852890185"><ele>46.0</ele><time>2026-04-22T15:24:40.998Z</time></trkpt><trkpt lat="50.90805962011067" lon="4.86830846718345"><ele>46.0</ele><time>2026-04-22T15:24:41.998Z</time></trkpt><trkpt lat="50.907956120463425" lon="4.868433645382786"><ele>46.0</ele><time>2026-04-22T15:24:42.998Z</time></trkpt><trkpt lat="50.90787086136393" lon="4.86853864675806"><ele>46.0</ele><time>2026-04-22T15:24:43.998Z</time></trkpt><trkpt lat="50.90780036896779" lon="4.86862551378346"><ele>46.0</ele><time>2026-04-22T15:24:44.998Z</time></trkpt><trkpt lat="50.907748332812986" lon="4.868688185993471"><ele>46.0</ele><time>2026-04-22T15:24:45.998Z</time></trkpt><trkpt lat="50.907697949148854" lon="4.86874892847124"><ele>45.833333333333336</ele><time>2026-04-22T15:24:46.998Z</time></trkpt><trkpt lat="50.90761636376398" lon="4.868842178624435"><ele>45.66666666666667</ele><time>2026-04-22T15:24:48.998Z</time></trkpt><trkpt lat="50.907539932708744" lon="4.86893012449795"><ele>45.5</ele><time>2026-04-22T15:24:50.998Z</time></trkpt><trkpt lat="50.90746491898123" lon="4.869016649719694"><ele>45.333333333333336</ele><time>2026-04-22T15:24:52.998Z</time></trkpt><trkpt lat="50.90741453737787" lon="4.869080533185394"><ele>45.166666666666664</ele><time>2026-04-22T15:24:54.998Z</time></trkpt><trkpt lat="50.90735237390441" lon="4.869156546481828"><ele>45.0</ele><time>2026-04-22T15:24:58.998Z</time></trkpt><trkpt lat="50.907294627431334" lon="4.869227126452569"><ele>44.833333333333336</ele><time>2026-04-22T15:25:02.998Z</time></trkpt><trkpt lat="50.907232537871764" lon="4.869312863309319"><ele>44.666666666666664</ele><time>2026-04-22T15:25:12Z</time></trkpt><trkpt lat="50.90717059299811" lon="4.8693836440396865"><ele>44.5</ele><time>2026-04-22T15:25:16Z</time></trkpt><trkpt lat="50.90711698292623" lon="4.869436788385343"><ele>44.33333333333333</ele><time>2026-04-22T15:25:27Z</time></trkpt><trkpt lat="50.90706367907907" lon="4.86949410599005"><ele>44.166666666666664</ele><time>2026-04-22T15:25:30Z</time></trkpt><trkpt lat="50.90699527703395" lon="4.8695536495236365"><ele>44.0</ele><time>2026-04-22T15:25:33Z</time></trkpt><trkpt lat="50.90688963108794" lon="4.869603022467441"><ele>44.0</ele><time>2026-04-22T15:25:35Z</time></trkpt><trkpt lat="50.906800706006074" lon="4.869606861714267"><ele>44.0</ele><time>2026-04-22T15:25:37Z</time></trkpt><trkpt lat="50.90672264404211" lon="4.869616240325257"><ele>44.0</ele><time>2026-04-22T15:25:40Z</time></trkpt><trkpt lat="50.90662298112751" lon="4.869711227204813"><ele>44.0</ele><time>2026-04-22T15:25:42Z</time></trkpt><trkpt lat="50.90658739231821" lon="4.869815512847793"><ele>44.0</ele><time>2026-04-22T15:25:43Z</time></trkpt><trkpt lat="50.90658515251384" lon="4.8699413495334145"><ele>44.0</ele><time>2026-04-22T15:25:44Z</time></trkpt><trkpt lat="50.90661263525902" lon="4.870054267303283"><ele>44.0</ele><time>2026-04-22T15:25:45Z</time></trkpt><trkpt lat="50.90666801924154" lon="4.870139661104611"><ele>44.0</ele><time>2026-04-22T15:25:46Z</time></trkpt><trkpt lat="50.90674214905892" lon="4.870211034971075"><ele>44.0</ele><time>2026-04-22T15:25:46.999Z</time></trkpt><trkpt lat="50.90681532026945" lon="4.870322407020513"><ele>44.0</ele><time>2026-04-22T15:25:47.999Z</time></trkpt><trkpt lat="50.90687218129706" lon="4.8704864530064915"><ele>44.0</ele><time>2026-04-22T15:25:48.999Z</time></trkpt><trkpt lat="50.906921515051245" lon="4.870660785536226"><ele>44.0</ele><time>2026-04-22T15:25:49.999Z</time></trkpt><trkpt lat="50.90697293096469" lon="4.870836707306219"><ele>44.0</ele><time>2026-04-22T15:25:50.999Z</time></trkpt><trkpt lat="50.907014021101084" lon="4.870998017610586"><ele>44.0</ele><time>2026-04-22T15:25:51.999Z</time></trkpt><trkpt lat="50.90704526790766" lon="4.8711493316148395"><ele>44.0</ele><time>2026-04-22T15:25:52.999Z</time></trkpt><trkpt lat="50.90707610025782" lon="4.871295096443553"><ele>44.0</ele><time>2026-04-22T15:25:53.999Z</time></trkpt><trkpt lat="50.907109650203374" lon="4.8714491574747605"><ele>44.2</ele><time>2026-04-22T15:25:54.999Z</time></trkpt><trkpt lat="50.9071425416014" lon="4.871611569820731"><ele>44.400000000000006</ele><time>2026-04-22T15:25:55.999Z</time></trkpt><trkpt lat="50.907178293086375" lon="4.871778927946553"><ele>44.6</ele><time>2026-04-22T15:25:56.999Z</time></trkpt><trkpt lat="50.90721572447141" lon="4.87194388837073"><ele>44.8</ele><time>2026-04-22T15:25:57.999Z</time></trkpt><trkpt lat="50.90725273897962" lon="4.872114490035422"><ele>45.0</ele><time>2026-04-22T15:25:58.999Z</time></trkpt><trkpt lat="50.90728591726444" lon="4.872277505613506"><ele>45.4</ele><time>2026-04-22T15:25:59.999Z</time></trkpt><trkpt lat="50.90731896727346" lon="4.872442632356892"><ele>45.8</ele><time>2026-04-22T15:26:00.999Z</time></trkpt><trkpt lat="50.90734434360906" lon="4.872602889522712"><ele>46.2</ele><time>2026-04-22T15:26:01.999Z</time></trkpt><trkpt lat="50.907366407904526" lon="4.872768750728409"><ele>46.6</ele><time>2026-04-22T15:26:02.999Z</time></trkpt><trkpt lat="50.907383228471666" lon="4.872937507989598"><ele>47.0</ele><time>2026-04-22T15:26:03.999Z</time></trkpt><trkpt lat="50.907400024499324" lon="4.873115224264899"><ele>47.5</ele><time>2026-04-22T15:26:04.999Z</time></trkpt><trkpt lat="50.90742041414513" lon="4.873296190108558"><ele>48.0</ele><time>2026-04-22T15:26:05.999Z</time></trkpt><trkpt lat="50.90744108492217" lon="4.873475171730022"><ele>48.5</ele><time>2026-04-22T15:26:06.999Z</time></trkpt><trkpt lat="50.9074599698829" lon="4.873649170125309"><ele>49.0</ele><time>2026-04-22T15:26:07.999Z</time></trkpt><trkpt lat="50.9074843290021" lon="4.873825592279745"><ele>49.0</ele><time>2026-04-22T15:26:08.999Z</time></trkpt><trkpt lat="50.90750208836973" lon="4.873997502371346"><ele>49.0</ele><time>2026-04-22T15:26:09.999Z</time></trkpt><trkpt lat="50.907520049979155" lon="4.874168352000013"><ele>49.0</ele><time>2026-04-22T15:26:10.999Z</time></trkpt><trkpt lat="50.90753926096834" lon="4.874334731956261"><ele>49.0</ele><time>2026-04-22T15:26:11.999Z</time></trkpt><trkpt lat="50.90756166126758" lon="4.874503527426701"><ele>49.0</ele><time>2026-04-22T15:26:12.999Z</time></trkpt><trkpt lat="50.90758102294347" lon="4.874668115856601"><ele>49.0</ele><time>2026-04-22T15:26:13.999Z</time></trkpt><trkpt lat="50.907596761270014" lon="4.874843126549245"><ele>49.0</ele><time>2026-04-22T15:26:14.999Z</time></trkpt><trkpt lat="50.907608504822235" lon="4.875026184592261"><ele>49.0</ele><time>2026-04-22T15:26:15.999Z</time></trkpt><trkpt lat="50.90762078116551" lon="4.875204258840389"><ele>49.0</ele><time>2026-04-22T15:26:16.999Z</time></trkpt><trkpt lat="50.90763285982836" lon="4.875384288831283"><ele>48.800000000000004</ele><time>2026-04-22T15:26:17.999Z</time></trkpt><trkpt lat="50.90764318949339" lon="4.875541794759348"><ele>48.6</ele><time>2026-04-22T15:26:18.999Z</time></trkpt><trkpt lat="50.90765524309135" lon="4.875702914769552"><ele>48.4</ele><time>2026-04-22T15:26:19.999Z</time></trkpt><trkpt lat="50.9076631130216" lon="4.875848186106218"><ele>48.2</ele><time>2026-04-22T15:26:20.999Z</time></trkpt><trkpt lat="50.907668470870675" lon="4.875995085522282"><ele>48.0</ele><time>2026-04-22T15:26:21.999Z</time></trkpt><trkpt lat="50.907675580288654" lon="4.8761480343899875"><ele>47.833333333333336</ele><time>2026-04-22T15:26:22.999Z</time></trkpt><trkpt lat="50.907686949959874" lon="4.876299949089719"><ele>47.666666666666664</ele><time>2026-04-22T15:26:23.999Z</time></trkpt><trkpt lat="50.9076978014962" lon="4.876451047035521"><ele>47.5</ele><time>2026-04-22T15:26:24.999Z</time></trkpt><trkpt lat="50.90771013643711" lon="4.876600613295092"><ele>47.33333333333333</ele><time>2026-04-22T15:26:25.999Z</time></trkpt><trkpt lat="50.90771917700645" lon="4.876702616024724"><ele>47.166666666666664</ele><time>2026-04-22T15:26:26.999Z</time></trkpt><trkpt lat="50.907731166990935" lon="4.8768151943334"><ele>47.0</ele><time>2026-04-22T15:26:27.999Z</time></trkpt><trkpt lat="50.907743896629995" lon="4.876929927832643"><ele>46.8</ele><time>2026-04-22T15:26:29.999Z</time></trkpt><trkpt lat="50.90775138855609" lon="4.877055547977484"><ele>46.6</ele><time>2026-04-22T15:26:33.999Z</time></trkpt><trkpt lat="50.90776714575247" lon="4.877240887014182"><ele>46.4</ele><time>2026-04-22T15:26:35.999Z</time></trkpt><trkpt lat="50.90777226376125" lon="4.87740542101967"><ele>46.199999999999996</ele><time>2026-04-22T15:26:36.999Z</time></trkpt><trkpt lat="50.90777606109323" lon="4.877581243541959"><ele>46.0</ele><time>2026-04-22T15:26:37.998Z</time></trkpt><trkpt lat="50.907779786678724" lon="4.877754601146318"><ele>46.0</ele><time>2026-04-22T15:26:38.998Z</time></trkpt><trkpt lat="50.90778830127903" lon="4.877937103327884"><ele>46.0</ele><time>2026-04-22T15:26:39.998Z</time></trkpt><trkpt lat="50.90779308825327" lon="4.878146439481668"><ele>46.0</ele><time>2026-04-22T15:26:40.998Z</time></trkpt><trkpt lat="50.90780635867436" lon="4.8783402624052"><ele>46.0</ele><time>2026-04-22T15:26:41.998Z</time></trkpt><trkpt lat="50.907823622444" lon="4.878545135030588"><ele>46.25</ele><time>2026-04-22T15:26:42.998Z</time></trkpt><trkpt lat="50.90784499938069" lon="4.878747845569345"><ele>46.5</ele><time>2026-04-22T15:26:43.998Z</time></trkpt><trkpt lat="50.907886197666734" lon="4.878944859659887"><ele>46.75</ele><time>2026-04-22T15:26:44.998Z</time></trkpt><trkpt lat="50.90793734182737" lon="4.879132205117583"><ele>47.0</ele><time>2026-04-22T15:26:45.998Z</time></trkpt><trkpt lat="50.90799651907395" lon="4.879304791833821"><ele>47.0</ele><time>2026-04-22T15:26:46.998Z</time></trkpt><trkpt lat="50.90805319890381" lon="4.8794845634883846"><ele>47.0</ele><time>2026-04-22T15:26:47.998Z</time></trkpt><trkpt lat="50.90811048888667" lon="4.879664470492399"><ele>47.0</ele><time>2026-04-22T15:26:48.998Z</time></trkpt><trkpt lat="50.908165406031685" lon="4.879834969245345"><ele>47.0</ele><time>2026-04-22T15:26:49.998Z</time></trkpt><trkpt lat="50.908214121195364" lon="4.879980236236973"><ele>47.2</ele><time>2026-04-22T15:26:50.998Z</time></trkpt><trkpt lat="50.908253651384115" lon="4.880112049611423"><ele>47.400000000000006</ele><time>2026-04-22T15:26:51.998Z</time></trkpt><trkpt lat="50.908284953479956" lon="4.880224643113429"><ele>47.599999999999994</ele><time>2026-04-22T15:26:52.998Z</time></trkpt><trkpt lat="50.90827883757424" lon="4.880330884942637"><ele>47.8</ele><time>2026-04-22T15:26:53.998Z</time></trkpt><trkpt lat="50.90813970848062" lon="4.880519199649732"><ele>48.0</ele><time>2026-04-22T15:26:55.998Z</time></trkpt><trkpt lat="50.90813890442773" lon="4.8807038405347125"><ele>48.0</ele><time>2026-04-22T15:26:56.998Z</time></trkpt><trkpt lat="50.90814473776863" lon="4.880892375250974"><ele>48.0</ele><time>2026-04-22T15:26:57.998Z</time></trkpt><trkpt lat="50.908136130059255" lon="4.881078268538956"><ele>48.0</ele><time>2026-04-22T15:26:58.998Z</time></trkpt><trkpt lat="50.90811916491938" lon="4.881272920608294"><ele>48.0</ele><time>2026-04-22T15:26:59.998Z</time></trkpt><trkpt lat="50.908113148047136" lon="4.881471309313035"><ele>48.0</ele><time>2026-04-22T15:27:00.998Z</time></trkpt><trkpt lat="50.90811021299134" lon="4.8816696758418585"><ele>48.0</ele><time>2026-04-22T15:27:01.998Z</time></trkpt><trkpt lat="50.90811390679037" lon="4.881857565796964"><ele>48.0</ele><time>2026-04-22T15:27:02.998Z</time></trkpt><trkpt lat="50.908125265705365" lon="4.882048796095838"><ele>48.0</ele><time>2026-04-22T15:27:03.998Z</time></trkpt><trkpt lat="50.908148392688034" lon="4.8822401828421125"><ele>48.0</ele><time>2026-04-22T15:27:04.998Z</time></trkpt><trkpt lat="50.90817753792716" lon="4.882426677634662"><ele>48.0</ele><time>2026-04-22T15:27:05.998Z</time></trkpt><trkpt lat="50.90821003786129" lon="4.882608116804916"><ele>48.0</ele><time>2026-04-22T15:27:06.998Z</time></trkpt><trkpt lat="50.908245560854034" lon="4.882785251625718"><ele>48.0</ele><time>2026-04-22T15:27:07.998Z</time></trkpt><trkpt lat="50.908282870405834" lon="4.8829680288057915"><ele>48.0</ele><time>2026-04-22T15:27:09Z</time></trkpt><trkpt lat="50.90831866355119" lon="4.883147995509858"><ele>48.0</ele><time>2026-04-22T15:27:10Z</time></trkpt><trkpt lat="50.90835257449935" lon="4.883332000895624"><ele>48.0</ele><time>2026-04-22T15:27:11Z</time></trkpt><trkpt lat="50.90838645681568" lon="4.8835082699886145"><ele>48.0</ele><time>2026-04-22T15:27:12Z</time></trkpt><trkpt lat="50.908415033077574" lon="4.883678202009983"><ele>47.599999999999994</ele><time>2026-04-22T15:27:13Z</time></trkpt><trkpt lat="50.90843078304825" lon="4.883853689490017"><ele>47.199999999999996</ele><time>2026-04-22T15:27:14Z</time></trkpt><trkpt lat="50.908428670713555" lon="4.884014113897783"><ele>46.8</ele><time>2026-04-22T15:27:15Z</time></trkpt><trkpt lat="50.908421634301625" lon="4.884160114041604"><ele>46.4</ele><time>2026-04-22T15:27:16Z</time></trkpt><trkpt lat="50.90842016969872" lon="4.8842795953053795"><ele>46.0</ele><time>2026-04-22T15:27:17Z</time></trkpt><trkpt lat="50.90842266323269" lon="4.884421845884304"><ele>45.8</ele><time>2026-04-22T15:27:19Z</time></trkpt><trkpt lat="50.90842786762098" lon="4.884570465612413"><ele>45.599999999999994</ele><time>2026-04-22T15:27:26Z</time></trkpt><trkpt lat="50.90842906661723" lon="4.8846914971346385"><ele>45.4</ele><time>2026-04-22T15:27:27Z</time></trkpt><trkpt lat="50.90843506374785" lon="4.884817698245793"><ele>45.2</ele><time>2026-04-22T15:27:28Z</time></trkpt><trkpt lat="50.90844162691821" lon="4.88497832600039"><ele>45.0</ele><time>2026-04-22T15:27:29Z</time></trkpt><trkpt lat="50.90845097210295" lon="4.8851559859499485"><ele>45.0</ele><time>2026-04-22T15:27:30Z</time></trkpt><trkpt lat="50.90846253346217" lon="4.885336339656149"><ele>45.0</ele><time>2026-04-22T15:27:31Z</time></trkpt><trkpt lat="50.90848141205955" lon="4.885513514450919"><ele>45.0</ele><time>2026-04-22T15:27:32Z</time></trkpt><trkpt lat="50.90849723487362" lon="4.88569341083152"><ele>45.0</ele><time>2026-04-22T15:27:33Z</time></trkpt><trkpt lat="50.90851814583186" lon="4.8858724399189075"><ele>45.0</ele><time>2026-04-22T15:27:34Z</time></trkpt><trkpt lat="50.908537240109496" lon="4.886063933356119"><ele>45.0</ele><time>2026-04-22T15:27:35Z</time></trkpt><trkpt lat="50.90855564084858" lon="4.886249215607294"><ele>45.0</ele><time>2026-04-22T15:27:36Z</time></trkpt><trkpt lat="50.90858066039909" lon="4.886431430760829"><ele>45.0</ele><time>2026-04-22T15:27:37Z</time></trkpt><trkpt lat="50.90860384764914" lon="4.886608884866177"><ele>45.25</ele><time>2026-04-22T15:27:38Z</time></trkpt><trkpt lat="50.90863937996618" lon="4.886789506294644"><ele>45.5</ele><time>2026-04-22T15:27:39Z</time></trkpt><trkpt lat="50.90868264739097" lon="4.886967374820919"><ele>45.75</ele><time>2026-04-22T15:27:40Z</time></trkpt><trkpt lat="50.908736744132554" lon="4.887147176289568"><ele>46.0</ele><time>2026-04-22T15:27:41Z</time></trkpt><trkpt lat="50.90879988514974" lon="4.8873192869661555"><ele>46.0</ele><time>2026-04-22T15:27:42Z</time></trkpt><trkpt lat="50.9088699311396" lon="4.887482469636319"><ele>46.0</ele><time>2026-04-22T15:27:43Z</time></trkpt><trkpt lat="50.90894839712623" lon="4.887647307643438"><ele>46.0</ele><time>2026-04-22T15:27:44Z</time></trkpt><trkpt lat="50.9090325148303" lon="4.887797180091561"><ele>46.0</ele><time>2026-04-22T15:27:45Z</time></trkpt><trkpt lat="50.90912747444968" lon="4.887946939016484"><ele>46.0</ele><time>2026-04-22T15:27:45.999Z</time></trkpt><trkpt lat="50.90922475164311" lon="4.888091297345836"><ele>46.0</ele><time>2026-04-22T15:27:46.999Z</time></trkpt><trkpt lat="50.909325506432936" lon="4.888238099369828"><ele>46.0</ele><time>2026-04-22T15:27:47.999Z</time></trkpt><trkpt lat="50.909424508007056" lon="4.88838903248412"><ele>46.0</ele><time>2026-04-22T15:27:48.999Z</time></trkpt><trkpt lat="50.90951223354237" lon="4.888568890709154"><ele>46.0</ele><time>2026-04-22T15:27:49.999Z</time></trkpt><trkpt lat="50.90958220928265" lon="4.88876119555925"><ele>46.0</ele><time>2026-04-22T15:27:50.999Z</time></trkpt><trkpt lat="50.90963238853056" lon="4.888974080343329"><ele>46.0</ele><time>2026-04-22T15:27:51.999Z</time></trkpt><trkpt lat="50.90963527570573" lon="4.889196668772336"><ele>46.0</ele><time>2026-04-22T15:27:52.999Z</time></trkpt><trkpt lat="50.90964914443838" lon="4.889407404650771"><ele>46.25</ele><time>2026-04-22T15:27:53.999Z</time></trkpt><trkpt lat="50.909629409987964" lon="4.889613948220181"><ele>46.5</ele><time>2026-04-22T15:27:54.999Z</time></trkpt><trkpt lat="50.90957486576112" lon="4.889808335219757"><ele>46.75</ele><time>2026-04-22T15:27:55.999Z</time></trkpt><trkpt lat="50.90951792043441" lon="4.889984227195234"><ele>47.0</ele><time>2026-04-22T15:27:56.999Z</time></trkpt><trkpt lat="50.909451396087675" lon="4.890172735702163"><ele>47.75</ele><time>2026-04-22T15:27:57.999Z</time></trkpt><trkpt lat="50.909393395715284" lon="4.89036443616273"><ele>48.5</ele><time>2026-04-22T15:27:58.999Z</time></trkpt><trkpt lat="50.90932557720185" lon="4.890554674016443"><ele>49.25</ele><time>2026-04-22T15:27:59.999Z</time></trkpt><trkpt lat="50.90927133260763" lon="4.890755032409238"><ele>50.0</ele><time>2026-04-22T15:28:00.999Z</time></trkpt><trkpt lat="50.909228496743715" lon="4.890965690016578"><ele>50.0</ele><time>2026-04-22T15:28:01.999Z</time></trkpt><trkpt lat="50.90920202464942" lon="4.891175993211338"><ele>50.0</ele><time>2026-04-22T15:28:02.999Z</time></trkpt><trkpt lat="50.90918785985956" lon="4.891394508680132"><ele>50.0</ele><time>2026-04-22T15:28:03.999Z</time></trkpt><trkpt lat="50.909186333543744" lon="4.891613493607046"><ele>50.0</ele><time>2026-04-22T15:28:04.999Z</time></trkpt><trkpt lat="50.9091979991449" lon="4.891830736331385"><ele>50.5</ele><time>2026-04-22T15:28:05.999Z</time></trkpt><trkpt lat="50.90922231141828" lon="4.89203900452601"><ele>51.0</ele><time>2026-04-22T15:28:06.999Z</time></trkpt><trkpt lat="50.909258166044694" lon="4.892245426980669"><ele>51.5</ele><time>2026-04-22T15:28:07.999Z</time></trkpt><trkpt lat="50.90929512234643" lon="4.892454508330364"><ele>52.0</ele><time>2026-04-22T15:28:08.999Z</time></trkpt><trkpt lat="50.90932626674934" lon="4.892670309310766"><ele>52.0</ele><time>2026-04-22T15:28:09.999Z</time></trkpt><trkpt lat="50.90934979725278" lon="4.8928893741281305"><ele>52.0</ele><time>2026-04-22T15:28:10.999Z</time></trkpt><trkpt lat="50.90936456084123" lon="4.893105492249081"><ele>52.0</ele><time>2026-04-22T15:28:11.999Z</time></trkpt><trkpt lat="50.90934473120738" lon="4.893325140289506"><ele>52.0</ele><time>2026-04-22T15:28:12.999Z</time></trkpt><trkpt lat="50.90935116750043" lon="4.89354507308211"><ele>52.5</ele><time>2026-04-22T15:28:13.999Z</time></trkpt><trkpt lat="50.909326932508215" lon="4.893762520981685"><ele>53.0</ele><time>2026-04-22T15:28:14.999Z</time></trkpt><trkpt lat="50.909297826199776" lon="4.893970953894259"><ele>53.5</ele><time>2026-04-22T15:28:15.999Z</time></trkpt><trkpt lat="50.90926915325719" lon="4.894174387634306"><ele>54.0</ele><time>2026-04-22T15:28:16.999Z</time></trkpt><trkpt lat="50.9092486209227" lon="4.894378041419105"><ele>54.5</ele><time>2026-04-22T15:28:17.999Z</time></trkpt><trkpt lat="50.90924692787733" lon="4.894588765536911"><ele>55.0</ele><time>2026-04-22T15:28:18.999Z</time></trkpt><trkpt lat="50.909233640872465" lon="4.894801074759635"><ele>55.5</ele><time>2026-04-22T15:28:19.999Z</time></trkpt><trkpt lat="50.909242920288506" lon="4.895011971106798"><ele>56.0</ele><time>2026-04-22T15:28:20.999Z</time></trkpt><trkpt lat="50.90926105782623" lon="4.895224418043082"><ele>56.5</ele><time>2026-04-22T15:28:21.999Z</time></trkpt><trkpt lat="50.90930543064251" lon="4.895428488304417"><ele>57.0</ele><time>2026-04-22T15:28:22.999Z</time></trkpt><trkpt lat="50.90934772179336" lon="4.8956382821331825"><ele>57.5</ele><time>2026-04-22T15:28:23.999Z</time></trkpt><trkpt lat="50.90939466397816" lon="4.895849077871082"><ele>58.0</ele><time>2026-04-22T15:28:24.999Z</time></trkpt><trkpt lat="50.90942455107766" lon="4.89607854309973"><ele>58.0</ele><time>2026-04-22T15:28:25.999Z</time></trkpt><trkpt lat="50.90948525833303" lon="4.896295639031709"><ele>58.0</ele><time>2026-04-22T15:28:26.999Z</time></trkpt><trkpt lat="50.909524759386436" lon="4.8965283133637865"><ele>58.0</ele><time>2026-04-22T15:28:27.999Z</time></trkpt><trkpt lat="50.909570621367436" lon="4.896758932539367"><ele>58.33333333333333</ele><time>2026-04-22T15:28:28.999Z</time></trkpt><trkpt lat="50.90961855840623" lon="4.896988874775476"><ele>58.66666666666667</ele><time>2026-04-22T15:28:29.999Z</time></trkpt><trkpt lat="50.90966694283478" lon="4.8972241068706115"><ele>59.0</ele><time>2026-04-22T15:28:30.999Z</time></trkpt><trkpt lat="50.90971460339906" lon="4.897463163384469"><ele>59.66666666666667</ele><time>2026-04-22T15:28:31.999Z</time></trkpt><trkpt lat="50.909760087755636" lon="4.8977001543409076"><ele>60.33333333333333</ele><time>2026-04-22T15:28:32.999Z</time></trkpt><trkpt lat="50.909807570430566" lon="4.897939957992171"><ele>61.0</ele><time>2026-04-22T15:28:33.998Z</time></trkpt><trkpt lat="50.90986086133519" lon="4.898183967531914"><ele>62.33333333333333</ele><time>2026-04-22T15:28:34.998Z</time></trkpt><trkpt lat="50.90991607583913" lon="4.898431667472443"><ele>63.66666666666667</ele><time>2026-04-22T15:28:35.998Z</time></trkpt><trkpt lat="50.90996853553513" lon="4.898675083227225"><ele>65.0</ele><time>2026-04-22T15:28:36.998Z</time></trkpt><trkpt lat="50.91001999426895" lon="4.898926794910473"><ele>65.0</ele><time>2026-04-22T15:28:37.998Z</time></trkpt><trkpt lat="50.91006680169558" lon="4.899171685984411"><ele>65.0</ele><time>2026-04-22T15:28:38.998Z</time></trkpt><trkpt lat="50.910106854245264" lon="4.899417346784057"><ele>65.0</ele><time>2026-04-22T15:28:39.998Z</time></trkpt><trkpt lat="50.91013241097679" lon="4.899664558760497"><ele>65.66666666666667</ele><time>2026-04-22T15:28:40.998Z</time></trkpt><trkpt lat="50.91014440632363" lon="4.89992714492219"><ele>66.33333333333333</ele><time>2026-04-22T15:28:41.998Z</time></trkpt><trkpt lat="50.910147345604415" lon="4.900182732339588"><ele>67.0</ele><time>2026-04-22T15:28:42.998Z</time></trkpt><trkpt lat="50.91013907756358" lon="4.900442220705859"><ele>67.33333333333333</ele><time>2026-04-22T15:28:43.998Z</time></trkpt><trkpt lat="50.910127800656475" lon="4.900688980243989"><ele>67.66666666666667</ele><time>2026-04-22T15:28:44.998Z</time></trkpt><trkpt lat="50.91012027278851" lon="4.90093178205925"><ele>68.0</ele><time>2026-04-22T15:28:45.998Z</time></trkpt><trkpt lat="50.91011985974758" lon="4.901174750204106"><ele>68.75</ele><time>2026-04-22T15:28:46.998Z</time></trkpt><trkpt lat="50.91013632091901" lon="4.90141390883192"><ele>69.5</ele><time>2026-04-22T15:28:47.998Z</time></trkpt><trkpt lat="50.91017379892318" lon="4.901638514732791"><ele>70.25</ele><time>2026-04-22T15:28:48.998Z</time></trkpt><trkpt lat="50.910222974279826" lon="4.901854922583951"><ele>71.0</ele><time>2026-04-22T15:28:49.998Z</time></trkpt><trkpt lat="50.910288363520785" lon="4.90205986803015"><ele>71.5</ele><time>2026-04-22T15:28:50.998Z</time></trkpt><trkpt lat="50.91036140372102" lon="4.902251988112702"><ele>72.0</ele><time>2026-04-22T15:28:51.998Z</time></trkpt><trkpt lat="50.91044786261487" lon="4.902428621554719"><ele>72.5</ele><time>2026-04-22T15:28:52.998Z</time></trkpt><trkpt lat="50.91054393992859" lon="4.902591268002504"><ele>73.0</ele><time>2026-04-22T15:28:53.998Z</time></trkpt><trkpt lat="50.910650286789334" lon="4.9027362546268"><ele>73.25</ele><time>2026-04-22T15:28:54.998Z</time></trkpt><trkpt lat="50.91076506790574" lon="4.902872911695719"><ele>73.5</ele><time>2026-04-22T15:28:55.998Z</time></trkpt><trkpt lat="50.91087969122664" lon="4.903010099818445"><ele>73.75</ele><time>2026-04-22T15:28:56.998Z</time></trkpt><trkpt lat="50.91099104654015" lon="4.90315189389736"><ele>74.0</ele><time>2026-04-22T15:28:57.998Z</time></trkpt><trkpt lat="50.911100653293" lon="4.9032943761453796"><ele>74.5</ele><time>2026-04-22T15:28:58.998Z</time></trkpt><trkpt lat="50.9112099284987" lon="4.9034348076786305"><ele>75.0</ele><time>2026-04-22T15:28:59.998Z</time></trkpt><trkpt lat="50.91132009987249" lon="4.90357162499177"><ele>75.5</ele><time>2026-04-22T15:29:00.998Z</time></trkpt><trkpt lat="50.91143265945637" lon="4.903709967882682"><ele>76.0</ele><time>2026-04-22T15:29:01.998Z</time></trkpt><trkpt lat="50.91154696888204" lon="4.903851345100413"><ele>76.0</ele><time>2026-04-22T15:29:02.998Z</time></trkpt><trkpt lat="50.911660049169704" lon="4.903994001618477"><ele>76.0</ele><time>2026-04-22T15:29:03.998Z</time></trkpt><trkpt lat="50.91177220920672" lon="4.90414176779882"><ele>76.0</ele><time>2026-04-22T15:29:04.998Z</time></trkpt><trkpt lat="50.91188223191976" lon="4.904292279079776"><ele>76.0</ele><time>2026-04-22T15:29:05.998Z</time></trkpt><trkpt lat="50.911986090656356" lon="4.904453974261344"><ele>76.0</ele><time>2026-04-22T15:29:06.998Z</time></trkpt><trkpt lat="50.91207875421198" lon="4.904633369339681"><ele>76.0</ele><time>2026-04-22T15:29:07.998Z</time></trkpt><trkpt lat="50.91215485856524" lon="4.904822681030311"><ele>76.0</ele><time>2026-04-22T15:29:08.998Z</time></trkpt><trkpt lat="50.91221339707494" lon="4.905025904850285"><ele>76.0</ele><time>2026-04-22T15:29:09.998Z</time></trkpt><trkpt lat="50.91226195366705" lon="4.905255595035274"><ele>75.75</ele><time>2026-04-22T15:29:10.998Z</time></trkpt><trkpt lat="50.91227819073864" lon="4.905455596199288"><ele>75.5</ele><time>2026-04-22T15:29:11.998Z</time></trkpt><trkpt lat="50.912307392579926" lon="4.905665244429283"><ele>75.25</ele><time>2026-04-22T15:29:12.998Z</time></trkpt><trkpt lat="50.91233763835876" lon="4.9058715527216075"><ele>75.0</ele><time>2026-04-22T15:29:14Z</time></trkpt><trkpt lat="50.91238045015275" lon="4.906069954361823"><ele>75.0</ele><time>2026-04-22T15:29:15Z</time></trkpt><trkpt lat="50.912399240107455" lon="4.9062631814488435"><ele>75.0</ele><time>2026-04-22T15:29:16Z</time></trkpt><trkpt lat="50.91242712335156" lon="4.906439142346034"><ele>75.0</ele><time>2026-04-22T15:29:17Z</time></trkpt><trkpt lat="50.912463735662776" lon="4.906613264847857"><ele>75.0</ele><time>2026-04-22T15:29:18Z</time></trkpt><trkpt lat="50.91250545710515" lon="4.906784628332563"><ele>74.5</ele><time>2026-04-22T15:29:19Z</time></trkpt><trkpt lat="50.912554434185154" lon="4.906955987750472"><ele>74.0</ele><time>2026-04-22T15:29:20Z</time></trkpt><trkpt lat="50.91261028760665" lon="4.907136082711557"><ele>73.5</ele><time>2026-04-22T15:29:21Z</time></trkpt><trkpt lat="50.91267069797603" lon="4.907304865658364"><ele>73.0</ele><time>2026-04-22T15:29:22Z</time></trkpt><trkpt lat="50.91274218448565" lon="4.907468929129729"><ele>72.5</ele><time>2026-04-22T15:29:23Z</time></trkpt><trkpt lat="50.91281615661284" lon="4.907631461389424"><ele>72.0</ele><time>2026-04-22T15:29:24Z</time></trkpt><trkpt lat="50.9128904798673" lon="4.907792580048231"><ele>71.5</ele><time>2026-04-22T15:29:25Z</time></trkpt><trkpt lat="50.91296334776167" lon="4.907957321466675"><ele>71.0</ele><time>2026-04-22T15:29:26Z</time></trkpt><trkpt lat="50.91303000079334" lon="4.9081256153137645"><ele>71.0</ele><time>2026-04-22T15:29:27Z</time></trkpt><trkpt lat="50.913092844098976" lon="4.9082945301099175"><ele>71.0</ele><time>2026-04-22T15:29:28Z</time></trkpt><trkpt lat="50.91314844616187" lon="4.90846522844702"><ele>71.0</ele><time>2026-04-22T15:29:29Z</time></trkpt><trkpt lat="50.91319972470321" lon="4.908638514195998"><ele>71.0</ele><time>2026-04-22T15:29:30Z</time></trkpt><trkpt lat="50.913241826045514" lon="4.908813817060073"><ele>71.0</ele><time>2026-04-22T15:29:31Z</time></trkpt><trkpt lat="50.91327871577417" lon="4.908993614374371"><ele>71.0</ele><time>2026-04-22T15:29:32Z</time></trkpt><trkpt lat="50.91331371727948" lon="4.909181426731656"><ele>71.0</ele><time>2026-04-22T15:29:33Z</time></trkpt><trkpt lat="50.913348615552266" lon="4.909375585949307"><ele>71.0</ele><time>2026-04-22T15:29:34Z</time></trkpt><trkpt lat="50.913358769626136" lon="4.909587667865699"><ele>70.5</ele><time>2026-04-22T15:29:35Z</time></trkpt><trkpt lat="50.91337984929734" lon="4.9097986384863495"><ele>70.0</ele><time>2026-04-22T15:29:36Z</time></trkpt><trkpt lat="50.91340901862755" lon="4.910012571124395"><ele>69.5</ele><time>2026-04-22T15:29:37Z</time></trkpt><trkpt lat="50.91340884996014" lon="4.910242240502216"><ele>69.0</ele><time>2026-04-22T15:29:38Z</time></trkpt><trkpt lat="50.91340474533231" lon="4.910468086621442"><ele>68.75</ele><time>2026-04-22T15:29:39Z</time></trkpt><trkpt lat="50.91340006542175" lon="4.910688620931036"><ele>68.5</ele><time>2026-04-22T15:29:40Z</time></trkpt><trkpt lat="50.913396580557105" lon="4.9109058615480725"><ele>68.25</ele><time>2026-04-22T15:29:41Z</time></trkpt><trkpt lat="50.913393683506165" lon="4.91112156783692"><ele>68.0</ele><time>2026-04-22T15:29:42Z</time></trkpt><trkpt lat="50.91339150684919" lon="4.911326833992656"><ele>67.8</ele><time>2026-04-22T15:29:43Z</time></trkpt><trkpt lat="50.913390516763805" lon="4.9115155806831075"><ele>67.6</ele><time>2026-04-22T15:29:44Z</time></trkpt><trkpt lat="50.91338877221178" lon="4.911689169400383"><ele>67.4</ele><time>2026-04-22T15:29:44.999Z</time></trkpt><trkpt lat="50.9133877174595" lon="4.91184974292327"><ele>67.2</ele><time>2026-04-22T15:29:45.999Z</time></trkpt><trkpt lat="50.91338562696931" lon="4.912011063162418"><ele>67.0</ele><time>2026-04-22T15:29:46.999Z</time></trkpt><trkpt lat="50.91338217446137" lon="4.912157402326298"><ele>67.0</ele><time>2026-04-22T15:29:47.999Z</time></trkpt><trkpt lat="50.913382135539436" lon="4.912274864660781"><ele>67.0</ele><time>2026-04-22T15:29:48.999Z</time></trkpt><trkpt lat="50.91338204740149" lon="4.9123796455083"><ele>67.0</ele><time>2026-04-22T15:29:49.999Z</time></trkpt><trkpt lat="50.91337822913988" lon="4.91248855002179"><ele>67.0</ele><time>2026-04-22T15:29:50.999Z</time></trkpt><trkpt lat="50.91338573329094" lon="4.912610613332163"><ele>67.0</ele><time>2026-04-22T15:29:51.999Z</time></trkpt><trkpt lat="50.91336803904304" lon="4.912727597207924"><ele>67.0</ele><time>2026-04-22T15:29:52.999Z</time></trkpt><trkpt lat="50.913366570458656" lon="4.912829630694274"><ele>67.0</ele><time>2026-04-22T15:29:53.999Z</time></trkpt><trkpt lat="50.91337494576248" lon="4.912945594936039"><ele>67.0</ele><time>2026-04-22T15:29:55.999Z</time></trkpt><trkpt lat="50.9133651358322" lon="4.913045186932255"><ele>67.0</ele><time>2026-04-22T15:30:16.999Z</time></trkpt><trkpt lat="50.9133638958795" lon="4.913162220104722"><ele>67.0</ele><time>2026-04-22T15:30:17.999Z</time></trkpt><trkpt lat="50.91336217969966" lon="4.913324202033836"><ele>67.0</ele><time>2026-04-22T15:30:18.999Z</time></trkpt><trkpt lat="50.913360060203246" lon="4.913524250923787"><ele>67.0</ele><time>2026-04-22T15:30:19.999Z</time></trkpt><trkpt lat="50.913357706503874" lon="4.913746404969914"><ele>67.0</ele><time>2026-04-22T15:30:20.999Z</time></trkpt><trkpt lat="50.913355854701116" lon="4.913921188199956"><ele>67.0</ele><time>2026-04-22T15:30:21.999Z</time></trkpt><trkpt lat="50.91335338234139" lon="4.91415454229661"><ele>67.0</ele><time>2026-04-22T15:30:22.999Z</time></trkpt><trkpt lat="50.91335057160149" lon="4.914396646596955"><ele>67.0</ele><time>2026-04-22T15:30:23.999Z</time></trkpt><trkpt lat="50.91336162784231" lon="4.9146496821049235"><ele>67.0</ele><time>2026-04-22T15:30:24.999Z</time></trkpt><trkpt lat="50.913354902160414" lon="4.9149014437299465"><ele>67.0</ele><time>2026-04-22T15:30:25.999Z</time></trkpt><trkpt lat="50.913348377978465" lon="4.915163337142122"><ele>67.0</ele><time>2026-04-22T15:30:26.999Z</time></trkpt><trkpt lat="50.91334856714586" lon="4.91544679179375"><ele>67.0</ele><time>2026-04-22T15:30:27.999Z</time></trkpt><trkpt lat="50.91334623378534" lon="4.915786456647734"><ele>67.0</ele><time>2026-04-22T15:30:28.999Z</time></trkpt><trkpt lat="50.91334174648895" lon="4.916071065784958"><ele>67.0</ele><time>2026-04-22T15:30:29.999Z</time></trkpt><trkpt lat="50.91333500474744" lon="4.916363162300768"><ele>67.0</ele><time>2026-04-22T15:30:30.999Z</time></trkpt><trkpt lat="50.913327732981955" lon="4.916672075687808"><ele>67.0</ele><time>2026-04-22T15:30:31.998Z</time></trkpt><trkpt lat="50.913322827704874" lon="4.916987455901191"><ele>67.0</ele><time>2026-04-22T15:30:32.998Z</time></trkpt><trkpt lat="50.913325777400416" lon="4.917290511903494"><ele>66.66666666666666</ele><time>2026-04-22T15:30:33.998Z</time></trkpt><trkpt lat="50.91334925438404" lon="4.917597088625038"><ele>66.33333333333333</ele><time>2026-04-22T15:30:34.998Z</time></trkpt><trkpt lat="50.913386353579554" lon="4.917891907510386"><ele>66.0</ele><time>2026-04-22T15:30:35.998Z</time></trkpt><trkpt lat="50.91342430066255" lon="4.918142094249812"><ele>65.5</ele><time>2026-04-22T15:30:36.998Z</time></trkpt><trkpt lat="50.91347176192947" lon="4.918374551197562"><ele>65.0</ele><time>2026-04-22T15:30:37.998Z</time></trkpt><trkpt lat="50.91352209049131" lon="4.9185823750654025"><ele>64.5</ele><time>2026-04-22T15:30:38.998Z</time></trkpt><trkpt lat="50.91356803269683" lon="4.9187620896880055"><ele>64.0</ele><time>2026-04-22T15:30:39.998Z</time></trkpt><trkpt lat="50.91360397464407" lon="4.91893401725823"><ele>64.0</ele><time>2026-04-22T15:30:40.998Z</time></trkpt><trkpt lat="50.9136368630994" lon="4.919100331046878"><ele>64.0</ele><time>2026-04-22T15:30:41.998Z</time></trkpt><trkpt lat="50.913666128956436" lon="4.919240920961715"><ele>64.0</ele><time>2026-04-22T15:30:42.998Z</time></trkpt><trkpt lat="50.91369099260688" lon="4.919365773742855"><ele>64.0</ele><time>2026-04-22T15:30:43.998Z</time></trkpt><trkpt lat="50.9136909304102" lon="4.919513707618377"><ele>64.0</ele><time>2026-04-22T15:30:45.998Z</time></trkpt><trkpt lat="50.91368121364799" lon="4.919672616151107"><ele>64.2</ele><time>2026-04-22T15:30:50.998Z</time></trkpt><trkpt lat="50.913686148082554" lon="4.919774972202386"><ele>64.4</ele><time>2026-04-22T15:30:51.998Z</time></trkpt><trkpt lat="50.91366044323839" lon="4.919984014166153"><ele>64.6</ele><time>2026-04-22T15:30:53.998Z</time></trkpt><trkpt lat="50.91363968417946" lon="4.920115691919155"><ele>64.8</ele><time>2026-04-22T15:30:54.998Z</time></trkpt><trkpt lat="50.91362284502432" lon="4.920263328535461"><ele>65.0</ele><time>2026-04-22T15:30:55.998Z</time></trkpt><trkpt lat="50.91359921078689" lon="4.920423980015034"><ele>65.0</ele><time>2026-04-22T15:30:56.998Z</time></trkpt><trkpt lat="50.913573379689794" lon="4.920595711608042"><ele>65.0</ele><time>2026-04-22T15:30:57.998Z</time></trkpt><trkpt lat="50.913547862706146" lon="4.920779215292038"><ele>65.0</ele><time>2026-04-22T15:30:58.998Z</time></trkpt><trkpt lat="50.91352432772517" lon="4.9209754824029925"><ele>65.0</ele><time>2026-04-22T15:30:59.998Z</time></trkpt><trkpt lat="50.9134999403895" lon="4.921177127296312"><ele>64.75</ele><time>2026-04-22T15:31:00.998Z</time></trkpt><trkpt lat="50.91348272220687" lon="4.921372792542326"><ele>64.5</ele><time>2026-04-22T15:31:01.998Z</time></trkpt><trkpt lat="50.9134746897196" lon="4.921572837452456"><ele>64.25</ele><time>2026-04-22T15:31:02.998Z</time></trkpt><trkpt lat="50.913475467660135" lon="4.921757655236272"><ele>64.0</ele><time>2026-04-22T15:31:03.998Z</time></trkpt><trkpt lat="50.913484917621545" lon="4.921937948102573"><ele>64.0</ele><time>2026-04-22T15:31:04.998Z</time></trkpt><trkpt lat="50.913506341588395" lon="4.922134137357551"><ele>64.0</ele><time>2026-04-22T15:31:05.998Z</time></trkpt><trkpt lat="50.913526518668085" lon="4.922322117512453"><ele>64.0</ele><time>2026-04-22T15:31:06.998Z</time></trkpt><trkpt lat="50.913551275600994" lon="4.922501154541947"><ele>64.0</ele><time>2026-04-22T15:31:07.998Z</time></trkpt><trkpt lat="50.91358750128954" lon="4.92265864353475"><ele>63.800000000000004</ele><time>2026-04-22T15:31:08.998Z</time></trkpt><trkpt lat="50.91362345156022" lon="4.922802601811295"><ele>63.60000000000001</ele><time>2026-04-22T15:31:09.998Z</time></trkpt><trkpt lat="50.91366560193227" lon="4.92294674451527"><ele>63.4</ele><time>2026-04-22T15:31:10.998Z</time></trkpt><trkpt lat="50.913710842618464" lon="4.923099379248946"><ele>63.2</ele><time>2026-04-22T15:31:11.998Z</time></trkpt><trkpt lat="50.9137621942415" lon="4.923249486025843"><ele>63.0</ele><time>2026-04-22T15:31:12.998Z</time></trkpt><trkpt lat="50.91381719436692" lon="4.923392808926443"><ele>62.8</ele><time>2026-04-22T15:31:13.998Z</time></trkpt><trkpt lat="50.91387821897805" lon="4.92353262427984"><ele>62.599999999999994</ele><time>2026-04-22T15:31:14.998Z</time></trkpt><trkpt lat="50.91394074927519" lon="4.9236590682704175"><ele>62.400000000000006</ele><time>2026-04-22T15:31:15.998Z</time></trkpt><trkpt lat="50.914005446590785" lon="4.9237802679085885"><ele>62.2</ele><time>2026-04-22T15:31:16.998Z</time></trkpt><trkpt lat="50.91407267881712" lon="4.923890963508246"><ele>62.0</ele><time>2026-04-22T15:31:17.998Z</time></trkpt><trkpt lat="50.914135029466905" lon="4.924028566122178"><ele>62.00000000000001</ele><time>2026-04-22T15:31:18.998Z</time></trkpt><trkpt lat="50.91418713482156" lon="4.924149894697721"><ele>62.0</ele><time>2026-04-22T15:31:20Z</time></trkpt><trkpt lat="50.914236213726994" lon="4.9242585556316385"><ele>62.0</ele><time>2026-04-22T15:31:21Z</time></trkpt><trkpt lat="50.914280625168274" lon="4.924359000651456"><ele>62.0</ele><time>2026-04-22T15:31:22Z</time></trkpt><trkpt lat="50.91432318037239" lon="4.924450324696377"><ele>62.00000000000001</ele><time>2026-04-22T15:31:23Z</time></trkpt><trkpt lat="50.91436846757542" lon="4.924542867939609"><ele>62.0</ele><time>2026-04-22T15:31:24Z</time></trkpt><trkpt lat="50.91441077469384" lon="4.924631463688336"><ele>62.0</ele><time>2026-04-22T15:31:25Z</time></trkpt><trkpt lat="50.91445142362628" lon="4.9247193413832155"><ele>62.0</ele><time>2026-04-22T15:31:26Z</time></trkpt><trkpt lat="50.91449675804205" lon="4.924814037773101"><ele>62.0</ele><time>2026-04-22T15:31:27Z</time></trkpt><trkpt lat="50.91455473677666" lon="4.924927520818368"><ele>62.0</ele><time>2026-04-22T15:31:28Z</time></trkpt><trkpt lat="50.914623923414815" lon="4.925058248679786"><ele>62.0</ele><time>2026-04-22T15:31:29Z</time></trkpt><trkpt lat="50.91469459739892" lon="4.925205413779693"><ele>62.0</ele><time>2026-04-22T15:31:30Z</time></trkpt><trkpt lat="50.914768028768364" lon="4.9253664928598955"><ele>62.0</ele><time>2026-04-22T15:31:31Z</time></trkpt><trkpt lat="50.91484646143058" lon="4.925536915215046"><ele>62.0</ele><time>2026-04-22T15:31:32Z</time></trkpt><trkpt lat="50.91493079946312" lon="4.925705514427461"><ele>62.0</ele><time>2026-04-22T15:31:33Z</time></trkpt><trkpt lat="50.91501576147434" lon="4.925869195741963"><ele>61.75</ele><time>2026-04-22T15:31:34Z</time></trkpt><trkpt lat="50.91509556304349" lon="4.926031809611076"><ele>61.5</ele><time>2026-04-22T15:31:35Z</time></trkpt><trkpt lat="50.91517144894147" lon="4.926200739335408"><ele>61.25</ele><time>2026-04-22T15:31:36Z</time></trkpt><trkpt lat="50.91525064362745" lon="4.926377509502124"><ele>61.0</ele><time>2026-04-22T15:31:37Z</time></trkpt><trkpt lat="50.91533250289939" lon="4.926560402464585"><ele>61.0</ele><time>2026-04-22T15:31:38Z</time></trkpt><trkpt lat="50.915391488702205" lon="4.9267633994078475"><ele>61.0</ele><time>2026-04-22T15:31:39Z</time></trkpt><trkpt lat="50.91547365029478" lon="4.926945332096917"><ele>61.0</ele><time>2026-04-22T15:31:40Z</time></trkpt><trkpt lat="50.9155345980331" lon="4.92715287534068"><ele>61.0</ele><time>2026-04-22T15:31:41Z</time></trkpt><trkpt lat="50.91558878719482" lon="4.927365776338611"><ele>60.75</ele><time>2026-04-22T15:31:42Z</time></trkpt><trkpt lat="50.915638585051994" lon="4.927585564338942"><ele>60.5</ele><time>2026-04-22T15:31:43Z</time></trkpt><trkpt lat="50.915679107545664" lon="4.927807649867654"><ele>60.25</ele><time>2026-04-22T15:31:44Z</time></trkpt><trkpt lat="50.91571352713166" lon="4.9280294102213595"><ele>60.0</ele><time>2026-04-22T15:31:45Z</time></trkpt><trkpt lat="50.91574209559696" lon="4.928255202590117"><ele>59.75</ele><time>2026-04-22T15:31:45.999Z</time></trkpt><trkpt lat="50.91576498187449" lon="4.928482834165359"><ele>59.5</ele><time>2026-04-22T15:31:46.999Z</time></trkpt><trkpt lat="50.91578336324023" lon="4.928716973550514"><ele>59.25</ele><time>2026-04-22T15:31:47.999Z</time></trkpt><trkpt lat="50.91579922402589" lon="4.9289489704402305"><ele>59.0</ele><time>2026-04-22T15:31:48.999Z</time></trkpt><trkpt lat="50.91581248487738" lon="4.929180699787174"><ele>58.75</ele><time>2026-04-22T15:31:49.999Z</time></trkpt><trkpt lat="50.915823780244374" lon="4.929395505893222"><ele>58.5</ele><time>2026-04-22T15:31:50.999Z</time></trkpt><trkpt lat="50.915834317726755" lon="4.929586985744458"><ele>58.25</ele><time>2026-04-22T15:31:51.999Z</time></trkpt><trkpt lat="50.91584662910895" lon="4.929758558360974"><ele>58.0</ele><time>2026-04-22T15:31:52.999Z</time></trkpt><trkpt lat="50.91585781631907" lon="4.929936475222379"><ele>58.0</ele><time>2026-04-22T15:31:53.999Z</time></trkpt><trkpt lat="50.91587086073037" lon="4.930102122526034"><ele>58.0</ele><time>2026-04-22T15:31:54.999Z</time></trkpt><trkpt lat="50.91588010715164" lon="4.930247145254609"><ele>58.0</ele><time>2026-04-22T15:31:55.999Z</time></trkpt><trkpt lat="50.91588362476864" lon="4.930397939561885"><ele>58.0</ele><time>2026-04-22T15:31:57.999Z</time></trkpt><trkpt lat="50.91581362036556" lon="4.9303826403332005"><ele>58.0</ele><time>2026-04-22T15:31:59.999Z</time></trkpt><trkpt lat="50.915730440919674" lon="4.93042175093184"><ele>58.0</ele><time>2026-04-22T15:33:03.998Z</time></trkpt><trkpt lat="50.915664723156404" lon="4.930452651129872"><ele>58.0</ele><time>2026-04-22T15:33:04.998Z</time></trkpt><trkpt lat="50.915560553244866" lon="4.930501631355838"><ele>58.0</ele><time>2026-04-22T15:33:05.998Z</time></trkpt><trkpt lat="50.91544006145344" lon="4.930558286055326"><ele>58.0</ele><time>2026-04-22T15:33:06.998Z</time></trkpt><trkpt lat="50.915356789177444" lon="4.930596687845544"><ele>58.0</ele><time>2026-04-22T15:33:07.998Z</time></trkpt><trkpt lat="50.915275120163614" lon="4.930634187496559"><ele>58.0</ele><time>2026-04-22T15:33:08.998Z</time></trkpt><trkpt lat="50.915215467040845" lon="4.930685733342989"><ele>58.0</ele><time>2026-04-22T15:33:09.998Z</time></trkpt><trkpt lat="50.91511642405524" lon="4.930676763928018"><ele>58.0</ele><time>2026-04-22T15:33:10.998Z</time></trkpt><trkpt lat="50.915004118895745" lon="4.930711248291749"><ele>58.0</ele><time>2026-04-22T15:33:11.998Z</time></trkpt><trkpt lat="50.91489516893814" lon="4.930756667726036"><ele>58.0</ele><time>2026-04-22T15:33:12.998Z</time></trkpt><trkpt lat="50.914782956430635" lon="4.93080825600018"><ele>58.25</ele><time>2026-04-22T15:33:13.998Z</time></trkpt><trkpt lat="50.91466420347912" lon="4.930865447420499"><ele>58.5</ele><time>2026-04-22T15:33:14.998Z</time></trkpt><trkpt lat="50.91453808152389" lon="4.93092796004243"><ele>58.75</ele><time>2026-04-22T15:33:15.998Z</time></trkpt><trkpt lat="50.914412436171474" lon="4.930987197780492"><ele>59.0</ele><time>2026-04-22T15:33:16.998Z</time></trkpt><trkpt lat="50.91427523662304" lon="4.931050767787794"><ele>60.333333333333336</ele><time>2026-04-22T15:33:17.998Z</time></trkpt><trkpt lat="50.91413048936243" lon="4.931117510720779"><ele>61.66666666666667</ele><time>2026-04-22T15:33:18.997Z</time></trkpt><trkpt lat="50.91397545960575" lon="4.931188907541084"><ele>63.0</ele><time>2026-04-22T15:33:19.997Z</time></trkpt><trkpt lat="50.91380896408053" lon="4.931265510366671"><ele>63.0</ele><time>2026-04-22T15:33:20.997Z</time></trkpt><trkpt lat="50.91364143837075" lon="4.931342454122838"><ele>63.0</ele><time>2026-04-22T15:33:21.997Z</time></trkpt><trkpt lat="50.91347369948964" lon="4.931419889023231"><ele>63.0</ele><time>2026-04-22T15:33:22.997Z</time></trkpt><trkpt lat="50.91329686182801" lon="4.93150152428133"><ele>63.66666666666667</ele><time>2026-04-22T15:33:23.997Z</time></trkpt><trkpt lat="50.91312968318641" lon="4.9315792518691755"><ele>64.33333333333334</ele><time>2026-04-22T15:33:24.997Z</time></trkpt><trkpt lat="50.91296119426164" lon="4.9316561515132165"><ele>65.0</ele><time>2026-04-22T15:33:26Z</time></trkpt><trkpt lat="50.91280391979581" lon="4.931728489003455"><ele>66.0</ele><time>2026-04-22T15:33:27Z</time></trkpt><trkpt lat="50.91266039849454" lon="4.931819255739124"><ele>67.0</ele><time>2026-04-22T15:33:28Z</time></trkpt><trkpt lat="50.912504389665315" lon="4.9318618158472685"><ele>68.0</ele><time>2026-04-22T15:33:29Z</time></trkpt><trkpt lat="50.912381000856016" lon="4.931916460838445"><ele>69.0</ele><time>2026-04-22T15:33:30Z</time></trkpt><trkpt lat="50.9122754880983" lon="4.93196553745887"><ele>69.8</ele><time>2026-04-22T15:33:31Z</time></trkpt><trkpt lat="50.91218953187339" lon="4.932039341297738"><ele>70.60000000000001</ele><time>2026-04-22T15:33:32Z</time></trkpt><trkpt lat="50.91210712483854" lon="4.9320555870483025"><ele>71.4</ele><time>2026-04-22T15:33:33Z</time></trkpt><trkpt lat="50.912013026298865" lon="4.932081844113429"><ele>72.2</ele><time>2026-04-22T15:33:35Z</time></trkpt><trkpt lat="50.91205312873914" lon="4.932318111063214"><ele>73.0</ele><time>2026-04-22T15:33:39Z</time></trkpt><trkpt lat="50.912100907431125" lon="4.9324151756612125"><ele>73.0</ele><time>2026-04-22T15:33:40Z</time></trkpt><trkpt lat="50.912127795827786" lon="4.932537417112805"><ele>73.0</ele><time>2026-04-22T15:33:41Z</time></trkpt><trkpt lat="50.91215727204997" lon="4.932695784560862"><ele>73.0</ele><time>2026-04-22T15:33:42Z</time></trkpt><trkpt lat="50.912195811376826" lon="4.9328732012122725"><ele>73.0</ele><time>2026-04-22T15:33:43Z</time></trkpt><trkpt lat="50.91223722938633" lon="4.933037997547183"><ele>73.0</ele><time>2026-04-22T15:33:44Z</time></trkpt><trkpt lat="50.912280701364274" lon="4.933185436893732"><ele>73.25</ele><time>2026-04-22T15:33:45Z</time></trkpt><trkpt lat="50.91233866093859" lon="4.933306050918314"><ele>73.5</ele><time>2026-04-22T15:33:46Z</time></trkpt><trkpt lat="50.91240671956303" lon="4.9334699632401176"><ele>73.75</ele><time>2026-04-22T15:33:47Z</time></trkpt><trkpt lat="50.91248894397353" lon="4.933668770689169"><ele>74.0</ele><time>2026-04-22T15:33:48Z</time></trkpt><trkpt lat="50.91257439337354" lon="4.933873269996214"><ele>73.0</ele><time>2026-04-22T15:33:48.999Z</time></trkpt><trkpt lat="50.91265671282645" lon="4.934093368173071"><ele>72.0</ele><time>2026-04-22T15:33:49.999Z</time></trkpt><trkpt lat="50.91273653659919" lon="4.934332947226716"><ele>71.0</ele><time>2026-04-22T15:33:50.999Z</time></trkpt><trkpt lat="50.91281781282076" lon="4.934564348919205"><ele>71.0</ele><time>2026-04-22T15:33:51.999Z</time></trkpt><trkpt lat="50.91290526261306" lon="4.934816728334485"><ele>71.0</ele><time>2026-04-22T15:33:52.999Z</time></trkpt><trkpt lat="50.91299565689243" lon="4.935075618076415"><ele>71.0</ele><time>2026-04-22T15:33:53.999Z</time></trkpt><trkpt lat="50.91307696214125" lon="4.935327014975125"><ele>72.0</ele><time>2026-04-22T15:33:54.999Z</time></trkpt><trkpt lat="50.913163207462574" lon="4.935574209836363"><ele>73.0</ele><time>2026-04-22T15:33:55.999Z</time></trkpt><trkpt lat="50.913247155034234" lon="4.935822556756591"><ele>74.0</ele><time>2026-04-22T15:33:56.999Z</time></trkpt><trkpt lat="50.91332632202762" lon="4.936056438315881"><ele>74.33333333333334</ele><time>2026-04-22T15:33:57.999Z</time></trkpt><trkpt lat="50.91340844118828" lon="4.9363120041449875"><ele>74.66666666666667</ele><time>2026-04-22T15:33:58.999Z</time></trkpt><trkpt lat="50.91350047563243" lon="4.9365793424840945"><ele>75.0</ele><time>2026-04-22T15:33:59.999Z</time></trkpt><trkpt lat="50.91358034331567" lon="4.936829514575232"><ele>75.0</ele><time>2026-04-22T15:34:00.999Z</time></trkpt><trkpt lat="50.91366278331845" lon="4.937077759392017"><ele>75.0</ele><time>2026-04-22T15:34:01.999Z</time></trkpt><trkpt lat="50.91372555676909" lon="4.937270193420603"><ele>75.0</ele><time>2026-04-22T15:34:02.999Z</time></trkpt><trkpt lat="50.91377685781977" lon="4.937431867574688"><ele>75.0</ele><time>2026-04-22T15:34:03.999Z</time></trkpt><trkpt lat="50.913819396503655" lon="4.937563806623302"><ele>75.0</ele><time>2026-04-22T15:34:04.999Z</time></trkpt><trkpt lat="50.913827027662045" lon="4.937703984905816"><ele>75.0</ele><time>2026-04-22T15:34:06.999Z</time></trkpt><trkpt lat="50.91375706171545" lon="4.93776512301427"><ele>75.0</ele><time>2026-04-22T15:34:08.999Z</time></trkpt><trkpt lat="50.91368380012431" lon="4.937791168300166"><ele>75.0</ele><time>2026-04-22T15:34:09.999Z</time></trkpt><trkpt lat="50.91359726109369" lon="4.937802238516308"><ele>75.0</ele><time>2026-04-22T15:34:10.999Z</time></trkpt><trkpt lat="50.91348623724461" lon="4.937832346218071"><ele>75.0</ele><time>2026-04-22T15:34:11.999Z</time></trkpt><trkpt lat="50.91338115700886" lon="4.937872229262773"><ele>75.4</ele><time>2026-04-22T15:34:12.999Z</time></trkpt><trkpt lat="50.91328708562559" lon="4.937914317755831"><ele>75.8</ele><time>2026-04-22T15:34:13.999Z</time></trkpt><trkpt lat="50.91321913620951" lon="4.93794422085416"><ele>76.2</ele><time>2026-04-22T15:34:14.999Z</time></trkpt><trkpt lat="50.91311385903794" lon="4.937995793312073"><ele>76.6</ele><time>2026-04-22T15:34:16.999Z</time></trkpt><trkpt lat="50.913051631582015" lon="4.938115258509544"><ele>77.0</ele><time>2026-04-22T15:34:18.999Z</time></trkpt><trkpt lat="50.91310715463113" lon="4.938330450146877"><ele>76.75</ele><time>2026-04-22T15:34:20.999Z</time></trkpt><trkpt lat="50.91315878352279" lon="4.938466959088586"><ele>76.5</ele><time>2026-04-22T15:34:21.999Z</time></trkpt><trkpt lat="50.91320064236197" lon="4.938642739997469"><ele>76.25</ele><time>2026-04-22T15:34:22.999Z</time></trkpt><trkpt lat="50.913243188073416" lon="4.938843531734689"><ele>76.0</ele><time>2026-04-22T15:34:23.999Z</time></trkpt><trkpt lat="50.91327607174799" lon="4.939035333505302"><ele>76.0</ele><time>2026-04-22T15:34:24.999Z</time></trkpt><trkpt lat="50.91330968619665" lon="4.939172517472621"><ele>76.0</ele><time>2026-04-22T15:34:25.999Z</time></trkpt><trkpt lat="50.91333998117244" lon="4.939312492697028"><ele>76.0</ele><time>2026-04-22T15:34:26.999Z</time></trkpt><trkpt lat="50.91336683057971" lon="4.939438686126124"><ele>76.0</ele><time>2026-04-22T15:34:27.999Z</time></trkpt><trkpt lat="50.9133904809729" lon="4.939548020975228"><ele>76.0</ele><time>2026-04-22T15:34:28.999Z</time></trkpt><trkpt lat="50.91337194176855" lon="4.939743568492297"><ele>75.39999999999999</ele><time>2026-04-22T15:34:30.999Z</time></trkpt><trkpt lat="50.91341048595015" lon="4.939877298381835"><ele>74.8</ele><time>2026-04-22T15:34:34.998Z</time></trkpt><trkpt lat="50.91342606200366" lon="4.940066111749506"><ele>74.19999999999999</ele><time>2026-04-22T15:34:36.998Z</time></trkpt><trkpt lat="50.91344844556505" lon="4.94019960343275"><ele>73.6</ele><time>2026-04-22T15:34:37.998Z</time></trkpt><trkpt lat="50.91347519645727" lon="4.940358735311227"><ele>73.0</ele><time>2026-04-22T15:34:38.998Z</time></trkpt><trkpt lat="50.91351732854923" lon="4.940521841881119"><ele>72.0</ele><time>2026-04-22T15:34:39.998Z</time></trkpt><trkpt lat="50.91354310729918" lon="4.940719109625461"><ele>71.0</ele><time>2026-04-22T15:34:40.998Z</time></trkpt><trkpt lat="50.91357823375017" lon="4.94091251615302"><ele>70.0</ele><time>2026-04-22T15:34:41.998Z</time></trkpt><trkpt lat="50.91360302672647" lon="4.941122994430541"><ele>69.0</ele><time>2026-04-22T15:34:42.998Z</time></trkpt><trkpt lat="50.913646111861816" lon="4.941332935525987"><ele>68.25</ele><time>2026-04-22T15:34:43.998Z</time></trkpt><trkpt lat="50.91369660705103" lon="4.941539770181146"><ele>67.5</ele><time>2026-04-22T15:34:44.998Z</time></trkpt><trkpt lat="50.91373104808919" lon="4.941745481450588"><ele>66.75</ele><time>2026-04-22T15:34:45.998Z</time></trkpt><trkpt lat="50.91376636900214" lon="4.941936355457071"><ele>66.0</ele><time>2026-04-22T15:34:46.998Z</time></trkpt><trkpt lat="50.91378690880806" lon="4.942120809084897"><ele>65.75</ele><time>2026-04-22T15:34:47.998Z</time></trkpt><trkpt lat="50.91382897148795" lon="4.94230653340289"><ele>65.5</ele><time>2026-04-22T15:34:48.998Z</time></trkpt><trkpt lat="50.91386671966413" lon="4.942495997877774"><ele>65.25</ele><time>2026-04-22T15:34:49.998Z</time></trkpt><trkpt lat="50.913885979284515" lon="4.942673044115453"><ele>65.0</ele><time>2026-04-22T15:34:50.998Z</time></trkpt><trkpt lat="50.91393465356868" lon="4.9428518178297205"><ele>64.75</ele><time>2026-04-22T15:34:51.998Z</time></trkpt><trkpt lat="50.9139849881336" lon="4.94302240250021"><ele>64.5</ele><time>2026-04-22T15:34:52.998Z</time></trkpt><trkpt lat="50.91402699265641" lon="4.943234557307156"><ele>64.25</ele><time>2026-04-22T15:34:53.998Z</time></trkpt><trkpt lat="50.91409541556254" lon="4.943462102609082"><ele>64.0</ele><time>2026-04-22T15:34:54.998Z</time></trkpt><trkpt lat="50.91415643280591" lon="4.943740475934935"><ele>64.0</ele><time>2026-04-22T15:34:55.998Z</time></trkpt><trkpt lat="50.91422748143459" lon="4.944040352659486"><ele>64.0</ele><time>2026-04-22T15:34:56.998Z</time></trkpt><trkpt lat="50.914300756632194" lon="4.944345777247499"><ele>64.0</ele><time>2026-04-22T15:34:57.998Z</time></trkpt><trkpt lat="50.91436182315818" lon="4.944671297640284"><ele>63.666666666666664</ele><time>2026-04-22T15:34:58.998Z</time></trkpt><trkpt lat="50.91442762926361" lon="4.944954526617598"><ele>63.33333333333333</ele><time>2026-04-22T15:34:59.998Z</time></trkpt><trkpt lat="50.91449161558478" lon="4.945181759736115"><ele>63.0</ele><time>2026-04-22T15:35:00.998Z</time></trkpt><trkpt lat="50.914542675233086" lon="4.945410597502043"><ele>63.66666666666667</ele><time>2026-04-22T15:35:01.998Z</time></trkpt><trkpt lat="50.914574920460545" lon="4.945655536242864"><ele>64.33333333333334</ele><time>2026-04-22T15:35:02.998Z</time></trkpt><trkpt lat="50.91463491748628" lon="4.945882801876327"><ele>65.0</ele><time>2026-04-22T15:35:03.998Z</time></trkpt><trkpt lat="50.91468530406733" lon="4.946123213630286"><ele>65.0</ele><time>2026-04-22T15:35:04.998Z</time></trkpt><trkpt lat="50.914735813771074" lon="4.946348774463279"><ele>65.0</ele><time>2026-04-22T15:35:05.998Z</time></trkpt><trkpt lat="50.914781714407596" lon="4.9465810014813885"><ele>65.0</ele><time>2026-04-22T15:35:06.998Z</time></trkpt><trkpt lat="50.914824151482875" lon="4.946806913680284"><ele>65.33333333333334</ele><time>2026-04-22T15:35:07.998Z</time></trkpt><trkpt lat="50.91486627073546" lon="4.947041610624251"><ele>65.66666666666667</ele><time>2026-04-22T15:35:08.998Z</time></trkpt><trkpt lat="50.91489182650755" lon="4.947277201496251"><ele>66.0</ele><time>2026-04-22T15:35:09.998Z</time></trkpt><trkpt lat="50.91492624375106" lon="4.947517261932607"><ele>66.33333333333333</ele><time>2026-04-22T15:35:10.998Z</time></trkpt><trkpt lat="50.914962256004024" lon="4.94776109633366"><ele>66.66666666666666</ele><time>2026-04-22T15:35:11.998Z</time></trkpt><trkpt lat="50.915016600710395" lon="4.948011806504383"><ele>67.0</ele><time>2026-04-22T15:35:12.998Z</time></trkpt><trkpt lat="50.91504671756176" lon="4.9482596238540815"><ele>67.0</ele><time>2026-04-22T15:35:13.998Z</time></trkpt><trkpt lat="50.91505105647428" lon="4.948483591044847"><ele>67.0</ele><time>2026-04-22T15:35:14.998Z</time></trkpt><trkpt lat="50.91504929318334" lon="4.948700221873183"><ele>67.0</ele><time>2026-04-22T15:35:15.998Z</time></trkpt><trkpt lat="50.915037678501925" lon="4.948931348098775"><ele>67.0</ele><time>2026-04-22T15:35:16.998Z</time></trkpt><trkpt lat="50.91501846527387" lon="4.949175844177083"><ele>66.66666666666666</ele><time>2026-04-22T15:35:17.998Z</time></trkpt><trkpt lat="50.91499863561903" lon="4.949426675476134"><ele>66.33333333333333</ele><time>2026-04-22T15:35:18.998Z</time></trkpt><trkpt lat="50.91499923449813" lon="4.949676803723728"><ele>66.0</ele><time>2026-04-22T15:35:19.998Z</time></trkpt><trkpt lat="50.91499878410879" lon="4.949897121043412"><ele>66.0</ele><time>2026-04-22T15:35:20.997Z</time></trkpt><trkpt lat="50.915015192320126" lon="4.950107562149883"><ele>66.0</ele><time>2026-04-22T15:35:21.997Z</time></trkpt><trkpt lat="50.915045620859736" lon="4.950300239442767"><ele>66.0</ele><time>2026-04-22T15:35:22.997Z</time></trkpt><trkpt lat="50.91504213978732" lon="4.950476569189234"><ele>66.0</ele><time>2026-04-22T15:35:23.997Z</time></trkpt><trkpt lat="50.91503462843114" lon="4.950623577272788"><ele>66.0</ele><time>2026-04-22T15:35:24.997Z</time></trkpt><trkpt lat="50.91499810063101" lon="4.950747904193267"><ele>66.0</ele><time>2026-04-22T15:35:25.997Z</time></trkpt><trkpt lat="50.91496295830776" lon="4.950854430349225"><ele>66.0</ele><time>2026-04-22T15:35:26.997Z</time></trkpt><trkpt lat="50.91493383688909" lon="4.950973568719793"><ele>66.0</ele><time>2026-04-22T15:35:27.997Z</time></trkpt><trkpt lat="50.91488378877072" lon="4.951057094225323"><ele>66.0</ele><time>2026-04-22T15:35:28.997Z</time></trkpt><trkpt lat="50.9148195515416" lon="4.951167348383801"><ele>66.0</ele><time>2026-04-22T15:35:30.997Z</time></trkpt><trkpt lat="50.914714980937035" lon="4.951096185964048"><ele>66.0</ele><time>2026-04-22T15:35:32Z</time></trkpt><trkpt lat="50.914624612570584" lon="4.951051642709234"><ele>66.0</ele><time>2026-04-22T15:35:33Z</time></trkpt><trkpt lat="50.914518203302066" lon="4.951011914938423"><ele>66.0</ele><time>2026-04-22T15:35:34Z</time></trkpt><trkpt lat="50.91439974143131" lon="4.950988963875255"><ele>66.0</ele><time>2026-04-22T15:35:35Z</time></trkpt><trkpt lat="50.914274556037" lon="4.95095034057349"><ele>65.75</ele><time>2026-04-22T15:35:36Z</time></trkpt><trkpt lat="50.91412978446962" lon="4.950924649045194"><ele>65.5</ele><time>2026-04-22T15:35:37Z</time></trkpt><trkpt lat="50.91397850462567" lon="4.9509112877255905"><ele>65.25</ele><time>2026-04-22T15:35:38Z</time></trkpt><trkpt lat="50.913827219247786" lon="4.950904864200215"><ele>65.0</ele><time>2026-04-22T15:35:39Z</time></trkpt><trkpt lat="50.913671259880566" lon="4.950897983126825"><ele>65.0</ele><time>2026-04-22T15:35:40Z</time></trkpt><trkpt lat="50.91351277035829" lon="4.950888359665233"><ele>65.0</ele><time>2026-04-22T15:35:41Z</time></trkpt><trkpt lat="50.913349802122106" lon="4.950879827688793"><ele>65.0</ele><time>2026-04-22T15:35:42Z</time></trkpt><trkpt lat="50.91317844288403" lon="4.950881561902323"><ele>65.0</ele><time>2026-04-22T15:35:43Z</time></trkpt><trkpt lat="50.91301654267516" lon="4.9508968456149685"><ele>65.0</ele><time>2026-04-22T15:35:44Z</time></trkpt><trkpt lat="50.912856378710615" lon="4.950927587164616"><ele>65.0</ele><time>2026-04-22T15:35:45Z</time></trkpt><trkpt lat="50.91270213855531" lon="4.950966859045368"><ele>65.0</ele><time>2026-04-22T15:35:46Z</time></trkpt><trkpt lat="50.912543223150124" lon="4.951014558115206"><ele>65.0</ele><time>2026-04-22T15:35:47Z</time></trkpt><trkpt lat="50.912381616191276" lon="4.951060799394319"><ele>65.0</ele><time>2026-04-22T15:35:48Z</time></trkpt><trkpt lat="50.91221723066767" lon="4.951111432545738"><ele>65.0</ele><time>2026-04-22T15:35:49Z</time></trkpt><trkpt lat="50.91205930419973" lon="4.951161022358075"><ele>65.0</ele><time>2026-04-22T15:35:49.999Z</time></trkpt><trkpt lat="50.91191604010765" lon="4.951206252870792"><ele>65.0</ele><time>2026-04-22T15:35:50.999Z</time></trkpt><trkpt lat="50.911780105097996" lon="4.951249726059483"><ele>65.0</ele><time>2026-04-22T15:35:51.999Z</time></trkpt><trkpt lat="50.9116510025902" lon="4.951264398991134"><ele>64.75</ele><time>2026-04-22T15:35:52.999Z</time></trkpt><trkpt lat="50.91152658766113" lon="4.951330868555786"><ele>64.5</ele><time>2026-04-22T15:35:53.999Z</time></trkpt><trkpt lat="50.911398508244936" lon="4.9513686908742764"><ele>64.25</ele><time>2026-04-22T15:35:54.999Z</time></trkpt><trkpt lat="50.9112707691159" lon="4.951412796501174"><ele>64.0</ele><time>2026-04-22T15:35:55.999Z</time></trkpt><trkpt lat="50.911148665607314" lon="4.951460879128449"><ele>64.0</ele><time>2026-04-22T15:35:56.999Z</time></trkpt><trkpt lat="50.911038444086266" lon="4.951505570557513"><ele>64.0</ele><time>2026-04-22T15:35:57.999Z</time></trkpt><trkpt lat="50.9109421134387" lon="4.951551688725083"><ele>64.0</ele><time>2026-04-22T15:35:58.999Z</time></trkpt><trkpt lat="50.91085663409159" lon="4.951587915584133"><ele>64.0</ele><time>2026-04-22T15:35:59.999Z</time></trkpt><trkpt lat="50.910788200050796" lon="4.951618139890262"><ele>64.0</ele><time>2026-04-22T15:36:00.999Z</time></trkpt><trkpt lat="50.91068548946476" lon="4.951667919558571"><ele>63.6</ele><time>2026-04-22T15:36:02.999Z</time></trkpt><trkpt lat="50.91059488557682" lon="4.951867102831404"><ele>63.2</ele><time>2026-04-22T15:36:04.999Z</time></trkpt><trkpt lat="50.91071622302898" lon="4.951890213787043"><ele>62.800000000000004</ele><time>2026-04-22T15:36:05.999Z</time></trkpt><trkpt lat="50.910785662481516" lon="4.951946354940388"><ele>62.400000000000006</ele><time>2026-04-22T15:36:06.999Z</time></trkpt><trkpt lat="50.91085689359313" lon="4.952030424267869"><ele>62.0</ele><time>2026-04-22T15:36:07.999Z</time></trkpt><trkpt lat="50.91093255857039" lon="4.952127694590912"><ele>61.75</ele><time>2026-04-22T15:36:08.999Z</time></trkpt><trkpt lat="50.911014807243404" lon="4.952232110116287"><ele>61.5</ele><time>2026-04-22T15:36:09.999Z</time></trkpt><trkpt lat="50.91110639055332" lon="4.9523499607837875"><ele>61.25</ele><time>2026-04-22T15:36:10.999Z</time></trkpt><trkpt lat="50.911200643560484" lon="4.952474110762083"><ele>61.0</ele><time>2026-04-22T15:36:11.999Z</time></trkpt><trkpt lat="50.91130123597225" lon="4.952605856593108"><ele>61.0</ele><time>2026-04-22T15:36:12.999Z</time></trkpt><trkpt lat="50.91140445244119" lon="4.952745650761019"><ele>61.0</ele><time>2026-04-22T15:36:13.999Z</time></trkpt><trkpt lat="50.91151233372325" lon="4.952894845520224"><ele>61.0</ele><time>2026-04-22T15:36:14.999Z</time></trkpt><trkpt lat="50.9116232151005" lon="4.953043653353185"><ele>61.0</ele><time>2026-04-22T15:36:15.999Z</time></trkpt><trkpt lat="50.91173428525841" lon="4.953188633015564"><ele>61.33333333333333</ele><time>2026-04-22T15:36:16.999Z</time></trkpt><trkpt lat="50.91185259133066" lon="4.953350885267161"><ele>61.66666666666667</ele><time>2026-04-22T15:36:17.999Z</time></trkpt><trkpt lat="50.91197325327324" lon="4.953522307964965"><ele>62.0</ele><time>2026-04-22T15:36:18.999Z</time></trkpt><trkpt lat="50.91209334078087" lon="4.953705175037596"><ele>62.0</ele><time>2026-04-22T15:36:19.999Z</time></trkpt><trkpt lat="50.91221658534584" lon="4.95389759389181"><ele>62.0</ele><time>2026-04-22T15:36:20.999Z</time></trkpt><trkpt lat="50.912335395345444" lon="4.95409399094072"><ele>62.0</ele><time>2026-04-22T15:36:21.999Z</time></trkpt><trkpt lat="50.91245727117474" lon="4.95430372383416"><ele>62.0</ele><time>2026-04-22T15:36:22.999Z</time></trkpt><trkpt lat="50.9125756377352" lon="4.954512139103805"><ele>62.0</ele><time>2026-04-22T15:36:23.999Z</time></trkpt><trkpt lat="50.91268952627066" lon="4.9547392663583265"><ele>62.0</ele><time>2026-04-22T15:36:24.999Z</time></trkpt><trkpt lat="50.91281111767687" lon="4.954952574867739"><ele>61.66666666666667</ele><time>2026-04-22T15:36:25.999Z</time></trkpt><trkpt lat="50.91295082208205" lon="4.955148359818766"><ele>61.33333333333333</ele><time>2026-04-22T15:36:26.999Z</time></trkpt><trkpt lat="50.91310142027739" lon="4.955316836181478"><ele>61.0</ele><time>2026-04-22T15:36:27.999Z</time></trkpt><trkpt lat="50.91326169538495" lon="4.955478347495906"><ele>61.0</ele><time>2026-04-22T15:36:28.999Z</time></trkpt><trkpt lat="50.91342525466232" lon="4.955619855063385"><ele>61.0</ele><time>2026-04-22T15:36:29.999Z</time></trkpt><trkpt lat="50.91359198893289" lon="4.955764859681095"><ele>61.0</ele><time>2026-04-22T15:36:30.999Z</time></trkpt><trkpt lat="50.91376657406875" lon="4.95591375770014"><ele>61.0</ele><time>2026-04-22T15:36:31.999Z</time></trkpt><trkpt lat="50.91394049397519" lon="4.956050352916391"><ele>61.0</ele><time>2026-04-22T15:36:32.999Z</time></trkpt><trkpt lat="50.914121282348546" lon="4.956179635530139"><ele>61.0</ele><time>2026-04-22T15:36:34Z</time></trkpt><trkpt lat="50.914290571902754" lon="4.956296881225054"><ele>60.666666666666664</ele><time>2026-04-22T15:36:34.999Z</time></trkpt><trkpt lat="50.91444973492439" lon="4.956412450252874"><ele>60.33333333333333</ele><time>2026-04-22T15:36:35.999Z</time></trkpt><trkpt lat="50.91458436651702" lon="4.9565654563222745"><ele>60.0</ele><time>2026-04-22T15:36:36.999Z</time></trkpt><trkpt lat="50.914688541255124" lon="4.956725221757976"><ele>60.0</ele><time>2026-04-22T15:36:37.999Z</time></trkpt><trkpt lat="50.914784531431586" lon="4.956923509972486"><ele>60.0</ele><time>2026-04-22T15:36:38.999Z</time></trkpt><trkpt lat="50.91488600646465" lon="4.957135267938202"><ele>60.0</ele><time>2026-04-22T15:36:39.999Z</time></trkpt><trkpt lat="50.91500069327707" lon="4.957326210484427"><ele>59.66666666666667</ele><time>2026-04-22T15:36:40.999Z</time></trkpt><trkpt lat="50.9151214636945" lon="4.957545493434796"><ele>59.333333333333336</ele><time>2026-04-22T15:36:41.999Z</time></trkpt><trkpt lat="50.915254085222394" lon="4.957765195757846"><ele>59.0</ele><time>2026-04-22T15:36:42.999Z</time></trkpt><trkpt lat="50.915378197823195" lon="4.95797880645901"><ele>59.0</ele><time>2026-04-22T15:36:43.999Z</time></trkpt><trkpt lat="50.91550272502967" lon="4.9582086174646545"><ele>59.0</ele><time>2026-04-22T15:36:44.999Z</time></trkpt><trkpt lat="50.9156257904218" lon="4.958457645617017"><ele>59.0</ele><time>2026-04-22T15:36:45.999Z</time></trkpt><trkpt lat="50.91574540254361" lon="4.958709790289801"><ele>58.333333333333336</ele><time>2026-04-22T15:36:46.999Z</time></trkpt><trkpt lat="50.91587040322011" lon="4.9589544125283185"><ele>57.66666666666667</ele><time>2026-04-22T15:36:47.999Z</time></trkpt><trkpt lat="50.91597263347516" lon="4.959214111830645"><ele>57.0</ele><time>2026-04-22T15:36:48.999Z</time></trkpt><trkpt lat="50.91607263947349" lon="4.959488658620464"><ele>57.0</ele><time>2026-04-22T15:36:49.999Z</time></trkpt><trkpt lat="50.91617188242775" lon="4.959750293202981"><ele>57.0</ele><time>2026-04-22T15:36:50.999Z</time></trkpt><trkpt lat="50.916287968787245" lon="4.959972911168107"><ele>57.0</ele><time>2026-04-22T15:36:51.999Z</time></trkpt><trkpt lat="50.91638078061241" lon="4.960182082597207"><ele>56.33333333333333</ele><time>2026-04-22T15:36:52.999Z</time></trkpt><trkpt lat="50.91644962907692" lon="4.960428343598342"><ele>55.666666666666664</ele><time>2026-04-22T15:36:53.999Z</time></trkpt><trkpt lat="50.91654263881547" lon="4.960667851994473"><ele>55.0</ele><time>2026-04-22T15:36:54.999Z</time></trkpt><trkpt lat="50.91661682481671" lon="4.960916350898397"><ele>54.666666666666664</ele><time>2026-04-22T15:36:55.999Z</time></trkpt><trkpt lat="50.91669623077072" lon="4.96114563750672"><ele>54.33333333333333</ele><time>2026-04-22T15:36:56.999Z</time></trkpt><trkpt lat="50.916783874199524" lon="4.961328551023143"><ele>54.0</ele><time>2026-04-22T15:36:57.999Z</time></trkpt><trkpt lat="50.91688001014445" lon="4.961498256090602"><ele>54.0</ele><time>2026-04-22T15:36:58.999Z</time></trkpt><trkpt lat="50.9169710594363" lon="4.961651960198609"><ele>54.00000000000001</ele><time>2026-04-22T15:36:59.999Z</time></trkpt><trkpt lat="50.91705366860638" lon="4.961789772048243"><ele>54.00000000000001</ele><time>2026-04-22T15:37:00.999Z</time></trkpt><trkpt lat="50.91712614250436" lon="4.961889904066399"><ele>54.0</ele><time>2026-04-22T15:37:01.999Z</time></trkpt><trkpt lat="50.9171825995925" lon="4.961973838615933"><ele>54.0</ele><time>2026-04-22T15:37:02.999Z</time></trkpt><trkpt lat="50.91726258889182" lon="4.962125596760869"><ele>53.75</ele><time>2026-04-22T15:37:04.999Z</time></trkpt><trkpt lat="50.91735089567729" lon="4.962184709443185"><ele>53.5</ele><time>2026-04-22T15:37:05.999Z</time></trkpt><trkpt lat="50.91744591534271" lon="4.962288813734201"><ele>53.25</ele><time>2026-04-22T15:37:06.999Z</time></trkpt><trkpt lat="50.91755069220253" lon="4.962419360204147"><ele>53.0</ele><time>2026-04-22T15:37:07.999Z</time></trkpt><trkpt lat="50.9176632227155" lon="4.9625594304336955"><ele>54.0</ele><time>2026-04-22T15:37:08.999Z</time></trkpt><trkpt lat="50.917783100123366" lon="4.9627038201407565"><ele>55.0</ele><time>2026-04-22T15:37:09.999Z</time></trkpt><trkpt lat="50.91790638183557" lon="4.962844663726734"><ele>56.0</ele><time>2026-04-22T15:37:10.999Z</time></trkpt><trkpt lat="50.918039086406495" lon="4.962992413323555"><ele>56.0</ele><time>2026-04-22T15:37:11.999Z</time></trkpt><trkpt lat="50.91817761243409" lon="4.963152151713147"><ele>56.0</ele><time>2026-04-22T15:37:12.999Z</time></trkpt><trkpt lat="50.91831954198331" lon="4.96332111032367"><ele>56.0</ele><time>2026-04-22T15:37:13.999Z</time></trkpt><trkpt lat="50.91846508105367" lon="4.963496971619013"><ele>55.333333333333336</ele><time>2026-04-22T15:37:14.999Z</time></trkpt><trkpt lat="50.91861303837076" lon="4.963676790898338"><ele>54.66666666666667</ele><time>2026-04-22T15:37:15.999Z</time></trkpt><trkpt lat="50.918759714635016" lon="4.963846688572023"><ele>54.0</ele><time>2026-04-22T15:37:16.999Z</time></trkpt><trkpt lat="50.91888927003713" lon="4.9639950449690415"><ele>54.0</ele><time>2026-04-22T15:37:17.999Z</time></trkpt><trkpt lat="50.91900892226368" lon="4.964127134367231"><ele>54.0</ele><time>2026-04-22T15:37:18.999Z</time></trkpt><trkpt lat="50.9191375269307" lon="4.9642708645031615"><ele>54.0</ele><time>2026-04-22T15:37:19.999Z</time></trkpt><trkpt lat="50.91926999187573" lon="4.964405636038963"><ele>54.66666666666667</ele><time>2026-04-22T15:37:20.998Z</time></trkpt><trkpt lat="50.91941382107419" lon="4.964537138649402"><ele>55.333333333333336</ele><time>2026-04-22T15:37:21.998Z</time></trkpt><trkpt lat="50.919559669198705" lon="4.964660167438761"><ele>56.0</ele><time>2026-04-22T15:37:22.998Z</time></trkpt><trkpt lat="50.91968477713128" lon="4.964815812867803"><ele>56.0</ele><time>2026-04-22T15:37:23.998Z</time></trkpt><trkpt lat="50.91981391204975" lon="4.964955050149959"><ele>56.0</ele><time>2026-04-22T15:37:24.998Z</time></trkpt><trkpt lat="50.91994547349191" lon="4.965099338669399"><ele>56.0</ele><time>2026-04-22T15:37:25.998Z</time></trkpt><trkpt lat="50.92008006199383" lon="4.965234147082579"><ele>56.66666666666667</ele><time>2026-04-22T15:37:26.998Z</time></trkpt><trkpt lat="50.920196780586906" lon="4.965410027063747"><ele>57.33333333333333</ele><time>2026-04-22T15:37:27.998Z</time></trkpt><trkpt lat="50.92032055833978" lon="4.965557527889705"><ele>58.0</ele><time>2026-04-22T15:37:28.998Z</time></trkpt><trkpt lat="50.92045060390377" lon="4.965691999392559"><ele>58.0</ele><time>2026-04-22T15:37:29.998Z</time></trkpt><trkpt lat="50.92058506914047" lon="4.965814150218173"><ele>58.0</ele><time>2026-04-22T15:37:30.998Z</time></trkpt><trkpt lat="50.92072136613892" lon="4.965930760842295"><ele>58.0</ele><time>2026-04-22T15:37:31.998Z</time></trkpt><trkpt lat="50.92085884340444" lon="4.966037843782032"><ele>58.0</ele><time>2026-04-22T15:37:32.998Z</time></trkpt><trkpt lat="50.920997504059095" lon="4.966124691002558"><ele>58.0</ele><time>2026-04-22T15:37:33.998Z</time></trkpt><trkpt lat="50.921120218085214" lon="4.96618535367206"><ele>58.0</ele><time>2026-04-22T15:37:34.998Z</time></trkpt><trkpt lat="50.92122664701156" lon="4.9662439936540785"><ele>58.0</ele><time>2026-04-22T15:37:35.998Z</time></trkpt><trkpt lat="50.92131989868723" lon="4.9663114651596585"><ele>58.0</ele><time>2026-04-22T15:37:37.001Z</time></trkpt><trkpt lat="50.921395443639916" lon="4.966392729478854"><ele>58.0</ele><time>2026-04-22T15:37:38.001Z</time></trkpt><trkpt lat="50.92147512993857" lon="4.966501172107191"><ele>58.0</ele><time>2026-04-22T15:37:39.001Z</time></trkpt><trkpt lat="50.92155831827208" lon="4.966622227529576"><ele>58.0</ele><time>2026-04-22T15:37:40.001Z</time></trkpt><trkpt lat="50.921629144785676" lon="4.96671924316071"><ele>58.0</ele><time>2026-04-22T15:37:41.001Z</time></trkpt><trkpt lat="50.9216874163268" lon="4.966790948419819"><ele>57.2</ele><time>2026-04-22T15:37:42.001Z</time></trkpt><trkpt lat="50.92177163292976" lon="4.966899986127877"><ele>56.4</ele><time>2026-04-22T15:37:44.001Z</time></trkpt><trkpt lat="50.92178097044744" lon="4.967055405369079"><ele>55.60000000000001</ele><time>2026-04-22T15:37:47.001Z</time></trkpt><trkpt lat="50.921780970447614" lon="4.967181911907851"><ele>54.800000000000004</ele><time>2026-04-22T15:37:48Z</time></trkpt><trkpt lat="50.92179715047733" lon="4.967330737249304"><ele>54.0</ele><time>2026-04-22T15:37:49.001Z</time></trkpt><trkpt lat="50.92178097044764" lon="4.967493190416303"><ele>54.0</ele><time>2026-04-22T15:37:50.001Z</time></trkpt><trkpt lat="50.921795347294086" lon="4.967668515348864"><ele>54.0</ele><time>2026-04-22T15:37:51Z</time></trkpt><trkpt lat="50.921790457624624" lon="4.967862047874981"><ele>54.0</ele><time>2026-04-22T15:37:52Z</time></trkpt><trkpt lat="50.921790212202666" lon="4.968063034438334"><ele>54.0</ele><time>2026-04-22T15:37:53Z</time></trkpt><trkpt lat="50.9217882114417" lon="4.968264295457398"><ele>54.25</ele><time>2026-04-22T15:37:54Z</time></trkpt><trkpt lat="50.92178766843096" lon="4.968474833733113"><ele>54.5</ele><time>2026-04-22T15:37:55Z</time></trkpt><trkpt lat="50.92178956607875" lon="4.968694790605553"><ele>54.75</ele><time>2026-04-22T15:37:56Z</time></trkpt><trkpt lat="50.92180074035905" lon="4.9689153894608635"><ele>55.0</ele><time>2026-04-22T15:37:57Z</time></trkpt><trkpt lat="50.92182531757419" lon="4.969144590285179"><ele>54.666666666666664</ele><time>2026-04-22T15:37:58Z</time></trkpt><trkpt lat="50.92186449480731" lon="4.969371305485759"><ele>54.33333333333333</ele><time>2026-04-22T15:37:59Z</time></trkpt><trkpt lat="50.92191195681252" lon="4.9695981324328"><ele>54.0</ele><time>2026-04-22T15:38:00Z</time></trkpt><trkpt lat="50.921967356754564" lon="4.969832421023663"><ele>53.33333333333333</ele><time>2026-04-22T15:38:01Z</time></trkpt><trkpt lat="50.9220264219195" lon="4.970068946322589"><ele>52.666666666666664</ele><time>2026-04-22T15:38:02Z</time></trkpt><trkpt lat="50.92208648322572" lon="4.970293599146218"><ele>52.0</ele><time>2026-04-22T15:38:03Z</time></trkpt><trkpt lat="50.92214713435245" lon="4.970528290706619"><ele>52.0</ele><time>2026-04-22T15:38:04Z</time></trkpt><trkpt lat="50.92220823132958" lon="4.9707735966621405"><ele>52.0</ele><time>2026-04-22T15:38:05Z</time></trkpt><trkpt lat="50.922265909896744" lon="4.97102633238885"><ele>52.0</ele><time>2026-04-22T15:38:06Z</time></trkpt><trkpt lat="50.92232023323734" lon="4.971298937076954"><ele>51.33333333333333</ele><time>2026-04-22T15:38:07Z</time></trkpt><trkpt lat="50.922359934912976" lon="4.971566282675631"><ele>50.66666666666667</ele><time>2026-04-22T15:38:08Z</time></trkpt><trkpt lat="50.922399015012" lon="4.97185579022018"><ele>50.0</ele><time>2026-04-22T15:38:09Z</time></trkpt><trkpt lat="50.92243321210247" lon="4.972148599141138"><ele>50.0</ele><time>2026-04-22T15:38:10Z</time></trkpt><trkpt lat="50.922461190361275" lon="4.972451756301859"><ele>50.0</ele><time>2026-04-22T15:38:11Z</time></trkpt><trkpt lat="50.92248129061583" lon="4.972755568210088"><ele>50.0</ele><time>2026-04-22T15:38:12Z</time></trkpt><trkpt lat="50.92248852316209" lon="4.973061223273706"><ele>51.0</ele><time>2026-04-22T15:38:13Z</time></trkpt><trkpt lat="50.922490678080756" lon="4.973375799045962"><ele>52.0</ele><time>2026-04-22T15:38:14Z</time></trkpt><trkpt lat="50.92248033534512" lon="4.973697770986622"><ele>53.0</ele><time>2026-04-22T15:38:15Z</time></trkpt><trkpt lat="50.92246845991404" lon="4.974017834409926"><ele>53.0</ele><time>2026-04-22T15:38:16Z</time></trkpt><trkpt lat="50.92244919451031" lon="4.974335562754394"><ele>53.0</ele><time>2026-04-22T15:38:17Z</time></trkpt><trkpt lat="50.92243295722389" lon="4.974655139707085"><ele>53.0</ele><time>2026-04-22T15:38:18Z</time></trkpt><trkpt lat="50.92242281268224" lon="4.974978393309555"><ele>52.333333333333336</ele><time>2026-04-22T15:38:19Z</time></trkpt><trkpt lat="50.9224208058368" lon="4.975305337656661"><ele>51.66666666666667</ele><time>2026-04-22T15:38:20Z</time></trkpt><trkpt lat="50.92242938280643" lon="4.975633101419264"><ele>51.0</ele><time>2026-04-22T15:38:21Z</time></trkpt><trkpt lat="50.92246479940715" lon="4.9759749729758616"><ele>50.33333333333333</ele><time>2026-04-22T15:38:22Z</time></trkpt><trkpt lat="50.922509981428504" lon="4.976306961326367"><ele>49.666666666666664</ele><time>2026-04-22T15:38:23Z</time></trkpt><trkpt lat="50.922570390494734" lon="4.976626441238073"><ele>49.0</ele><time>2026-04-22T15:38:24Z</time></trkpt><trkpt lat="50.92263674781981" lon="4.976937746146505"><ele>48.666666666666664</ele><time>2026-04-22T15:38:25Z</time></trkpt><trkpt lat="50.92271550660302" lon="4.977249551303454"><ele>48.33333333333333</ele><time>2026-04-22T15:38:26Z</time></trkpt><trkpt lat="50.92278942058708" lon="4.977560558610055"><ele>48.0</ele><time>2026-04-22T15:38:27Z</time></trkpt><trkpt lat="50.92285486556326" lon="4.977869056704484"><ele>48.0</ele><time>2026-04-22T15:38:28Z</time></trkpt><trkpt lat="50.92292139094294" lon="4.9781872395646625"><ele>48.0</ele><time>2026-04-22T15:38:29Z</time></trkpt><trkpt lat="50.92298308533846" lon="4.978489813451409"><ele>48.0</ele><time>2026-04-22T15:38:30Z</time></trkpt><trkpt lat="50.92304460684834" lon="4.978766133203805"><ele>47.75</ele><time>2026-04-22T15:38:31Z</time></trkpt><trkpt lat="50.92309437913708" lon="4.979004690687492"><ele>47.5</ele><time>2026-04-22T15:38:32Z</time></trkpt><trkpt lat="50.923147005586316" lon="4.979232266778643"><ele>47.25</ele><time>2026-04-22T15:38:33Z</time></trkpt><trkpt lat="50.92319491980556" lon="4.979437548658097"><ele>47.0</ele><time>2026-04-22T15:38:34Z</time></trkpt><trkpt lat="50.923222139240885" lon="4.979633953936666"><ele>46.8</ele><time>2026-04-22T15:38:35Z</time></trkpt><trkpt lat="50.92326878911037" lon="4.979792430543721"><ele>46.6</ele><time>2026-04-22T15:38:36Z</time></trkpt><trkpt lat="50.92330329383075" lon="4.979937206796037"><ele>46.4</ele><time>2026-04-22T15:38:36.999Z</time></trkpt><trkpt lat="50.92332875278108" lon="4.980067048924128"><ele>46.199999999999996</ele><time>2026-04-22T15:38:37.999Z</time></trkpt><trkpt lat="50.923307998876915" lon="4.980208474818085"><ele>46.0</ele><time>2026-04-22T15:38:38.999Z</time></trkpt><trkpt lat="50.92322191392345" lon="4.980318909287154"><ele>45.5</ele><time>2026-04-22T15:38:39.999Z</time></trkpt><trkpt lat="50.923085961031276" lon="4.980330693223423"><ele>45.0</ele><time>2026-04-22T15:38:40.999Z</time></trkpt><trkpt lat="50.922968048584956" lon="4.980431554074525"><ele>44.5</ele><time>2026-04-22T15:38:41.999Z</time></trkpt><trkpt lat="50.92283795333807" lon="4.980502937236436"><ele>44.0</ele><time>2026-04-22T15:38:42.999Z</time></trkpt><trkpt lat="50.92270121397813" lon="4.980592958589793"><ele>43.33333333333333</ele><time>2026-04-22T15:38:43.999Z</time></trkpt><trkpt lat="50.92254933154161" lon="4.980662869113783"><ele>42.666666666666664</ele><time>2026-04-22T15:38:44.999Z</time></trkpt><trkpt lat="50.922401712255905" lon="4.980784366975307"><ele>42.0</ele><time>2026-04-22T15:38:45.999Z</time></trkpt><trkpt lat="50.922239985674814" lon="4.980880183400696"><ele>41.666666666666664</ele><time>2026-04-22T15:38:46.999Z</time></trkpt><trkpt lat="50.92208246863267" lon="4.980983207532976"><ele>41.33333333333333</ele><time>2026-04-22T15:38:47.999Z</time></trkpt><trkpt lat="50.92193348136803" lon="4.981077884515826"><ele>41.0</ele><time>2026-04-22T15:38:48.999Z</time></trkpt><trkpt lat="50.92179304168869" lon="4.981166245845604"><ele>40.75</ele><time>2026-04-22T15:38:49.999Z</time></trkpt><trkpt lat="50.9216605983424" lon="4.981251192589615"><ele>40.5</ele><time>2026-04-22T15:38:50.999Z</time></trkpt><trkpt lat="50.9215252238658" lon="4.981309304207665"><ele>40.25</ele><time>2026-04-22T15:38:51.999Z</time></trkpt><trkpt lat="50.92140231080176" lon="4.981386072763304"><ele>40.0</ele><time>2026-04-22T15:38:52.999Z</time></trkpt><trkpt lat="50.92129250782267" lon="4.981453293988451"><ele>40.0</ele><time>2026-04-22T15:38:53.999Z</time></trkpt><trkpt lat="50.921188643663065" lon="4.981514727410962"><ele>40.0</ele><time>2026-04-22T15:38:54.999Z</time></trkpt><trkpt lat="50.921098797572384" lon="4.9815946232235575"><ele>40.0</ele><time>2026-04-22T15:38:55.999Z</time></trkpt><trkpt lat="50.9210051565279" lon="4.981638171889324"><ele>40.0</ele><time>2026-04-22T15:38:56.999Z</time></trkpt><trkpt lat="50.920912695425116" lon="4.981671702270115"><ele>40.0</ele><time>2026-04-22T15:38:57.999Z</time></trkpt><trkpt lat="50.920839460152884" lon="4.981729330507288"><ele>40.0</ele><time>2026-04-22T15:38:58.999Z</time></trkpt><trkpt lat="50.920758507595714" lon="4.981766349712826"><ele>40.0</ele><time>2026-04-22T15:38:59.999Z</time></trkpt><trkpt lat="50.9206774291902" lon="4.981809985658918"><ele>40.0</ele><time>2026-04-22T15:39:00.999Z</time></trkpt><trkpt lat="50.92060331566363" lon="4.981846707526801"><ele>40.0</ele><time>2026-04-22T15:39:01.999Z</time></trkpt><trkpt lat="50.92052511681491" lon="4.981859730366167"><ele>40.0</ele><time>2026-04-22T15:39:02.999Z</time></trkpt><trkpt lat="50.92044246786928" lon="4.981899186024599"><ele>40.0</ele><time>2026-04-22T15:39:03.999Z</time></trkpt><trkpt lat="50.9203616159295" lon="4.981937783882949"><ele>40.0</ele><time>2026-04-22T15:39:04.999Z</time></trkpt><trkpt lat="50.92028396185999" lon="4.981974855110738"><ele>40.0</ele><time>2026-04-22T15:39:05.999Z</time></trkpt><trkpt lat="50.920208030477525" lon="4.982011103969796"><ele>40.0</ele><time>2026-04-22T15:39:06.999Z</time></trkpt><trkpt lat="50.92013404274417" lon="4.982045890445534"><ele>40.0</ele><time>2026-04-22T15:39:07.999Z</time></trkpt><trkpt lat="50.92005877995914" lon="4.982080827397466"><ele>40.0</ele><time>2026-04-22T15:39:08.999Z</time></trkpt><trkpt lat="50.91999339741436" lon="4.982113349221578"><ele>40.0</ele><time>2026-04-22T15:39:09.999Z</time></trkpt><trkpt lat="50.919891234870235" lon="4.982178422891058"><ele>40.0</ele><time>2026-04-22T15:39:11.999Z</time></trkpt><trkpt lat="50.91983121475644" lon="4.982222696327062"><ele>40.0</ele><time>2026-04-22T15:39:13.999Z</time></trkpt><trkpt lat="50.91975748558225" lon="4.982289708000054"><ele>40.0</ele><time>2026-04-22T15:39:34.998Z</time></trkpt><trkpt lat="50.919657838746005" lon="4.982391086898425"><ele>40.0</ele><time>2026-04-22T15:39:36.998Z</time></trkpt><trkpt lat="50.91959112322062" lon="4.982456912903237"><ele>40.0</ele><time>2026-04-22T15:39:37.998Z</time></trkpt><trkpt lat="50.91952134231833" lon="4.982543077810401"><ele>40.0</ele><time>2026-04-22T15:39:38.998Z</time></trkpt><trkpt lat="50.91945350051144" lon="4.982665762161113"><ele>40.0</ele><time>2026-04-22T15:39:39.998Z</time></trkpt><trkpt lat="50.919398712322455" lon="4.982819990406865"><ele>40.0</ele><time>2026-04-22T15:39:40.998Z</time></trkpt><trkpt lat="50.9193259491416" lon="4.982970822426842"><ele>40.0</ele><time>2026-04-22T15:39:41.998Z</time></trkpt><trkpt lat="50.919275287356754" lon="4.9831491414103235"><ele>40.0</ele><time>2026-04-22T15:39:43Z</time></trkpt><trkpt lat="50.919204628053365" lon="4.983328519439197"><ele>40.5</ele><time>2026-04-22T15:39:44Z</time></trkpt><trkpt lat="50.919135532516535" lon="4.983518025599956"><ele>41.0</ele><time>2026-04-22T15:39:45Z</time></trkpt><trkpt lat="50.9190653745734" lon="4.983709034076884"><ele>41.5</ele><time>2026-04-22T15:39:46Z</time></trkpt><trkpt lat="50.91899499544239" lon="4.983910679202653"><ele>42.0</ele><time>2026-04-22T15:39:47Z</time></trkpt><trkpt lat="50.91891893696591" lon="4.984109628587863"><ele>41.75</ele><time>2026-04-22T15:39:48Z</time></trkpt><trkpt lat="50.91884625368744" lon="4.984306393192087"><ele>41.5</ele><time>2026-04-22T15:39:49Z</time></trkpt><trkpt lat="50.91876777006869" lon="4.984483518000069"><ele>41.25</ele><time>2026-04-22T15:39:50Z</time></trkpt><trkpt lat="50.91869256392236" lon="4.984682386943486"><ele>41.0</ele><time>2026-04-22T15:39:51Z</time></trkpt><trkpt lat="50.918623853919755" lon="4.984866714286896"><ele>41.25</ele><time>2026-04-22T15:39:52Z</time></trkpt><trkpt lat="50.91855557024586" lon="4.985053636135253"><ele>41.5</ele><time>2026-04-22T15:39:53Z</time></trkpt><trkpt lat="50.91848721523469" lon="4.985240919800273"><ele>41.75</ele><time>2026-04-22T15:39:54Z</time></trkpt><trkpt lat="50.91841833636459" lon="4.985434489402249"><ele>42.0</ele><time>2026-04-22T15:39:55Z</time></trkpt><trkpt lat="50.91835366525861" lon="4.98562770358895"><ele>42.75</ele><time>2026-04-22T15:39:56Z</time></trkpt><trkpt lat="50.91831050222149" lon="4.9858401866823545"><ele>43.5</ele><time>2026-04-22T15:39:57Z</time></trkpt><trkpt lat="50.91825614891559" lon="4.986049777479012"><ele>44.25</ele><time>2026-04-22T15:39:58Z</time></trkpt><trkpt lat="50.91820764544212" lon="4.986259202059643"><ele>45.0</ele><time>2026-04-22T15:39:59Z</time></trkpt><trkpt lat="50.91816787423597" lon="4.986479347099764"><ele>44.75</ele><time>2026-04-22T15:40:00Z</time></trkpt><trkpt lat="50.91813393596246" lon="4.986702449938008"><ele>44.5</ele><time>2026-04-22T15:40:01Z</time></trkpt><trkpt lat="50.9181017095525" lon="4.986933334285199"><ele>44.25</ele><time>2026-04-22T15:40:02Z</time></trkpt><trkpt lat="50.91806657897389" lon="4.98716656960546"><ele>44.0</ele><time>2026-04-22T15:40:03Z</time></trkpt><trkpt lat="50.918023565356954" lon="4.987394712309419"><ele>43.666666666666664</ele><time>2026-04-22T15:40:04Z</time></trkpt><trkpt lat="50.91798019049385" lon="4.987619815704869"><ele>43.333333333333336</ele><time>2026-04-22T15:40:05Z</time></trkpt><trkpt lat="50.917923521815005" lon="4.987840969821442"><ele>43.0</ele><time>2026-04-22T15:40:06Z</time></trkpt><trkpt lat="50.91786129046177" lon="4.988066556721394"><ele>43.0</ele><time>2026-04-22T15:40:07Z</time></trkpt><trkpt lat="50.91779675049054" lon="4.98829338164543"><ele>43.0</ele><time>2026-04-22T15:40:08Z</time></trkpt><trkpt lat="50.91772448126588" lon="4.9885159501518865"><ele>43.0</ele><time>2026-04-22T15:40:09Z</time></trkpt><trkpt lat="50.91764582508371" lon="4.988745998790726"><ele>43.66666666666667</ele><time>2026-04-22T15:40:10Z</time></trkpt><trkpt lat="50.917563019413286" lon="4.98896782534199"><ele>44.333333333333336</ele><time>2026-04-22T15:40:11Z</time></trkpt><trkpt lat="50.91747024754553" lon="4.9891855538423435"><ele>45.0</ele><time>2026-04-22T15:40:12Z</time></trkpt><trkpt lat="50.91736878567979" lon="4.989398186012237"><ele>45.0</ele><time>2026-04-22T15:40:13Z</time></trkpt><trkpt lat="50.91724624252553" lon="4.989591482931734"><ele>45.0</ele><time>2026-04-22T15:40:14Z</time></trkpt><trkpt lat="50.91713245491849" lon="4.989798101207153"><ele>45.0</ele><time>2026-04-22T15:40:15Z</time></trkpt><trkpt lat="50.91701046821219" lon="4.990002155878881"><ele>45.0</ele><time>2026-04-22T15:40:16Z</time></trkpt><trkpt lat="50.9168826639757" lon="4.990199715968677"><ele>45.0</ele><time>2026-04-22T15:40:17Z</time></trkpt><trkpt lat="50.91674618051719" lon="4.990391030912711"><ele>45.0</ele><time>2026-04-22T15:40:18Z</time></trkpt><trkpt lat="50.91660547630122" lon="4.990573510511818"><ele>45.333333333333336</ele><time>2026-04-22T15:40:19Z</time></trkpt><trkpt lat="50.91645640289257" lon="4.990757437678052"><ele>45.66666666666667</ele><time>2026-04-22T15:40:20Z</time></trkpt><trkpt lat="50.91630933362742" lon="4.990938869374362"><ele>46.0</ele><time>2026-04-22T15:40:21Z</time></trkpt><trkpt lat="50.916161111421026" lon="4.991122277888217"><ele>46.333333333333336</ele><time>2026-04-22T15:40:22Z</time></trkpt><trkpt lat="50.91600953554199" lon="4.991313296071631"><ele>46.666666666666664</ele><time>2026-04-22T15:40:23Z</time></trkpt><trkpt lat="50.91586104074548" lon="4.991503656758815"><ele>47.0</ele><time>2026-04-22T15:40:24Z</time></trkpt><trkpt lat="50.91571098387972" lon="4.991696563780378"><ele>48.0</ele><time>2026-04-22T15:40:25Z</time></trkpt><trkpt lat="50.9155738194281" lon="4.99190661957021"><ele>49.0</ele><time>2026-04-22T15:40:26Z</time></trkpt><trkpt lat="50.915421862168365" lon="4.9921001996075445"><ele>50.0</ele><time>2026-04-22T15:40:27Z</time></trkpt><trkpt lat="50.91528250738533" lon="4.992303540269202"><ele>50.0</ele><time>2026-04-22T15:40:28Z</time></trkpt><trkpt lat="50.91514450320816" lon="4.992526539758015"><ele>50.0</ele><time>2026-04-22T15:40:29Z</time></trkpt><trkpt lat="50.91501834032993" lon="4.992762144553776"><ele>50.0</ele><time>2026-04-22T15:40:30Z</time></trkpt><trkpt lat="50.91490038055554" lon="4.993017572971802"><ele>50.0</ele><time>2026-04-22T15:40:31Z</time></trkpt><trkpt lat="50.91479921180918" lon="4.9932801752926785"><ele>50.0</ele><time>2026-04-22T15:40:32Z</time></trkpt><trkpt lat="50.914696817883026" lon="4.993553502286477"><ele>50.0</ele><time>2026-04-22T15:40:33Z</time></trkpt><trkpt lat="50.91460147460433" lon="4.993832877800164"><ele>50.333333333333336</ele><time>2026-04-22T15:40:34Z</time></trkpt><trkpt lat="50.91451975330382" lon="4.994118288333284"><ele>50.66666666666667</ele><time>2026-04-22T15:40:35Z</time></trkpt><trkpt lat="50.91445116896949" lon="4.994413633626196"><ele>51.0</ele><time>2026-04-22T15:40:36Z</time></trkpt><trkpt lat="50.914393394096095" lon="4.994719829785303"><ele>52.0</ele><time>2026-04-22T15:40:37Z</time></trkpt><trkpt lat="50.91434807745395" lon="4.995027562097232"><ele>53.0</ele><time>2026-04-22T15:40:38Z</time></trkpt><trkpt lat="50.914316125947124" lon="4.9953394943514535"><ele>54.0</ele><time>2026-04-22T15:40:39Z</time></trkpt><trkpt lat="50.914285148714" lon="4.995650953533632"><ele>54.0</ele><time>2026-04-22T15:40:39.999Z</time></trkpt><trkpt lat="50.91425327052673" lon="4.995960212089557"><ele>54.0</ele><time>2026-04-22T15:40:40.999Z</time></trkpt><trkpt lat="50.91421951735903" lon="4.996269414553587"><ele>54.0</ele><time>2026-04-22T15:40:41.999Z</time></trkpt><trkpt lat="50.914186202549594" lon="4.996571078344351"><ele>53.66666666666667</ele><time>2026-04-22T15:40:42.999Z</time></trkpt><trkpt lat="50.91415434550595" lon="4.996881596890992"><ele>53.333333333333336</ele><time>2026-04-22T15:40:43.999Z</time></trkpt><trkpt lat="50.91412046125364" lon="4.997192037974175"><ele>53.0</ele><time>2026-04-22T15:40:44.999Z</time></trkpt><trkpt lat="50.914089555568815" lon="4.99749462039067"><ele>53.0</ele><time>2026-04-22T15:40:45.999Z</time></trkpt><trkpt lat="50.91406068558247" lon="4.997796207379385"><ele>53.0</ele><time>2026-04-22T15:40:46.999Z</time></trkpt><trkpt lat="50.914014499921485" lon="4.99806964928439"><ele>53.0</ele><time>2026-04-22T15:40:47.999Z</time></trkpt><trkpt lat="50.91398646125204" lon="4.998329853534505"><ele>53.0</ele><time>2026-04-22T15:40:48.999Z</time></trkpt><trkpt lat="50.91395945258309" lon="4.998580499445815"><ele>53.0</ele><time>2026-04-22T15:40:49.999Z</time></trkpt><trkpt lat="50.913949952959854" lon="4.998814979592641"><ele>53.0</ele><time>2026-04-22T15:40:50.999Z</time></trkpt><trkpt lat="50.91392448450111" lon="4.99903534806132"><ele>53.0</ele><time>2026-04-22T15:40:51.999Z</time></trkpt><trkpt lat="50.91390555096214" lon="4.999230908695553"><ele>53.0</ele><time>2026-04-22T15:40:52.999Z</time></trkpt><trkpt lat="50.913885337480565" lon="4.999429243581678"><ele>53.0</ele><time>2026-04-22T15:40:53.999Z</time></trkpt><trkpt lat="50.913864200054235" lon="4.999623132085639"><ele>53.0</ele><time>2026-04-22T15:40:54.999Z</time></trkpt><trkpt lat="50.91384370595581" lon="4.999811992469438"><ele>53.0</ele><time>2026-04-22T15:40:55.999Z</time></trkpt><trkpt lat="50.91382272064287" lon="5.0000013300540385"><ele>53.0</ele><time>2026-04-22T15:40:56.999Z</time></trkpt><trkpt lat="50.91380171791062" lon="5.000188888781979"><ele>53.0</ele><time>2026-04-22T15:40:57.999Z</time></trkpt><trkpt lat="50.91377939069419" lon="5.000381357070265"><ele>53.0</ele><time>2026-04-22T15:40:58.999Z</time></trkpt><trkpt lat="50.91375674305479" lon="5.00057407026285"><ele>53.0</ele><time>2026-04-22T15:40:59.999Z</time></trkpt><trkpt lat="50.91373968934651" lon="5.00076444114638"><ele>53.0</ele><time>2026-04-22T15:41:00.999Z</time></trkpt><trkpt lat="50.913721154331455" lon="5.000956051955327"><ele>53.0</ele><time>2026-04-22T15:41:01.999Z</time></trkpt><trkpt lat="50.91370303238052" lon="5.00114883318113"><ele>53.0</ele><time>2026-04-22T15:41:02.999Z</time></trkpt><trkpt lat="50.9136873464771" lon="5.001339751328785"><ele>52.75</ele><time>2026-04-22T15:41:03.999Z</time></trkpt><trkpt lat="50.913674960302394" lon="5.001533092044694"><ele>52.5</ele><time>2026-04-22T15:41:04.999Z</time></trkpt><trkpt lat="50.9136687762713" lon="5.001727609392367"><ele>52.25</ele><time>2026-04-22T15:41:05.999Z</time></trkpt><trkpt lat="50.913668152764814" lon="5.001928372015357"><ele>52.0</ele><time>2026-04-22T15:41:06.999Z</time></trkpt><trkpt lat="50.91366647980714" lon="5.0021084314597175"><ele>52.5</ele><time>2026-04-22T15:41:07.999Z</time></trkpt><trkpt lat="50.91367395772235" lon="5.002297070783231"><ele>53.0</ele><time>2026-04-22T15:41:08.999Z</time></trkpt><trkpt lat="50.9136847418816" lon="5.002481968944879"><ele>53.5</ele><time>2026-04-22T15:41:09.999Z</time></trkpt><trkpt lat="50.91370135657128" lon="5.002668068477828"><ele>54.0</ele><time>2026-04-22T15:41:10.999Z</time></trkpt><trkpt lat="50.91371781473402" lon="5.00285015896717"><ele>54.0</ele><time>2026-04-22T15:41:11.999Z</time></trkpt><trkpt lat="50.91373473573884" lon="5.003031484958555"><ele>54.0</ele><time>2026-04-22T15:41:12.999Z</time></trkpt><trkpt lat="50.91375807618647" lon="5.003213542375234"><ele>54.0</ele><time>2026-04-22T15:41:13.999Z</time></trkpt><trkpt lat="50.91378211132403" lon="5.003387164729572"><ele>54.0</ele><time>2026-04-22T15:41:14.999Z</time></trkpt><trkpt lat="50.91380792444215" lon="5.0035722600030255"><ele>54.25</ele><time>2026-04-22T15:41:15.999Z</time></trkpt><trkpt lat="50.91383194580319" lon="5.0037510294420775"><ele>54.5</ele><time>2026-04-22T15:41:16.999Z</time></trkpt><trkpt lat="50.91385467546556" lon="5.003926564533328"><ele>54.75</ele><time>2026-04-22T15:41:17.999Z</time></trkpt><trkpt lat="50.91387519599558" lon="5.004100726996299"><ele>55.0</ele><time>2026-04-22T15:41:18.999Z</time></trkpt><trkpt lat="50.91389809889631" lon="5.004278652024649"><ele>55.25</ele><time>2026-04-22T15:41:19.999Z</time></trkpt><trkpt lat="50.913897404762466" lon="5.0044574930527315"><ele>55.5</ele><time>2026-04-22T15:41:20.999Z</time></trkpt><trkpt lat="50.91390297479073" lon="5.004638726295395"><ele>55.75</ele><time>2026-04-22T15:41:21.999Z</time></trkpt><trkpt lat="50.91391774165518" lon="5.004816422336705"><ele>56.0</ele><time>2026-04-22T15:41:22.999Z</time></trkpt><trkpt lat="50.913894477214605" lon="5.004987222358231"><ele>56.5</ele><time>2026-04-22T15:41:23.999Z</time></trkpt><trkpt lat="50.913897149613" lon="5.005170433814317"><ele>57.0</ele><time>2026-04-22T15:41:24.999Z</time></trkpt><trkpt lat="50.913861808719886" lon="5.005339498759987"><ele>57.5</ele><time>2026-04-22T15:41:25.998Z</time></trkpt><trkpt lat="50.91384032137068" lon="5.005515374811366"><ele>58.0</ele><time>2026-04-22T15:41:26.998Z</time></trkpt><trkpt lat="50.9138296246435" lon="5.005697444230718"><ele>58.5</ele><time>2026-04-22T15:41:27.998Z</time></trkpt><trkpt lat="50.91380751850849" lon="5.005868030410841"><ele>59.0</ele><time>2026-04-22T15:41:28.998Z</time></trkpt><trkpt lat="50.91378570256155" lon="5.006043791716062"><ele>59.5</ele><time>2026-04-22T15:41:29.998Z</time></trkpt><trkpt lat="50.91374663051324" lon="5.006219758560555"><ele>60.0</ele><time>2026-04-22T15:41:30.998Z</time></trkpt><trkpt lat="50.91372428643534" lon="5.006392110205062"><ele>60.0</ele><time>2026-04-22T15:41:31.998Z</time></trkpt><trkpt lat="50.91370136154851" lon="5.006569522157155"><ele>60.0</ele><time>2026-04-22T15:41:32.998Z</time></trkpt><trkpt lat="50.913677005084914" lon="5.006758012594718"><ele>60.0</ele><time>2026-04-22T15:41:33.998Z</time></trkpt><trkpt lat="50.91365400859903" lon="5.006935978493494"><ele>60.0</ele><time>2026-04-22T15:41:34.998Z</time></trkpt><trkpt lat="50.91363159919967" lon="5.007109405021623"><ele>60.5</ele><time>2026-04-22T15:41:35.998Z</time></trkpt><trkpt lat="50.91360982351041" lon="5.0072860570170885"><ele>61.0</ele><time>2026-04-22T15:41:36.998Z</time></trkpt><trkpt lat="50.913587507744836" lon="5.007466386582883"><ele>61.5</ele><time>2026-04-22T15:41:37.998Z</time></trkpt><trkpt lat="50.913564764044615" lon="5.007650174273296"><ele>62.0</ele><time>2026-04-22T15:41:38.998Z</time></trkpt><trkpt lat="50.91354161499314" lon="5.007837237439735"><ele>62.25</ele><time>2026-04-22T15:41:39.998Z</time></trkpt><trkpt lat="50.91353394143101" lon="5.008033033684485"><ele>62.5</ele><time>2026-04-22T15:41:40.998Z</time></trkpt><trkpt lat="50.91350838684295" lon="5.008213413605733"><ele>62.75</ele><time>2026-04-22T15:41:41.998Z</time></trkpt><trkpt lat="50.91348356293499" lon="5.008390409163726"><ele>63.0</ele><time>2026-04-22T15:41:42.998Z</time></trkpt><trkpt lat="50.91346464278794" lon="5.008564706615106"><ele>63.0</ele><time>2026-04-22T15:41:43.998Z</time></trkpt><trkpt lat="50.913448930560904" lon="5.008736825826674"><ele>63.0</ele><time>2026-04-22T15:41:44.998Z</time></trkpt><trkpt lat="50.913440417380336" lon="5.008914647672748"><ele>63.0</ele><time>2026-04-22T15:41:45.998Z</time></trkpt><trkpt lat="50.91344538014438" lon="5.009089302981277"><ele>63.0</ele><time>2026-04-22T15:41:46.998Z</time></trkpt><trkpt lat="50.91346480914032" lon="5.009246898485863"><ele>63.0</ele><time>2026-04-22T15:41:47.998Z</time></trkpt><trkpt lat="50.91349393365723" lon="5.009391307043426"><ele>62.2</ele><time>2026-04-22T15:41:49Z</time></trkpt><trkpt lat="50.91352932954233" lon="5.0095299736965275"><ele>61.4</ele><time>2026-04-22T15:41:50Z</time></trkpt><trkpt lat="50.913568655242635" lon="5.009650071161823"><ele>60.60000000000001</ele><time>2026-04-22T15:41:51Z</time></trkpt><trkpt lat="50.91360134160595" lon="5.009767360780071"><ele>59.800000000000004</ele><time>2026-04-22T15:41:52Z</time></trkpt><trkpt lat="50.91362750871407" lon="5.009871171604118"><ele>59.0</ele><time>2026-04-22T15:41:53Z</time></trkpt><trkpt lat="50.91367284116986" lon="5.010049921996089"><ele>58.833333333333336</ele><time>2026-04-22T15:41:55Z</time></trkpt><trkpt lat="50.913717761238324" lon="5.010230172623808"><ele>58.66666666666667</ele><time>2026-04-22T15:41:57Z</time></trkpt><trkpt lat="50.913743567135256" lon="5.010326553546872"><ele>58.5</ele><time>2026-04-22T15:41:58Z</time></trkpt><trkpt lat="50.913773364971355" lon="5.010437843821033"><ele>58.33333333333333</ele><time>2026-04-22T15:41:59Z</time></trkpt><trkpt lat="50.91380621193367" lon="5.010560522415814"><ele>58.166666666666664</ele><time>2026-04-22T15:42:00Z</time></trkpt><trkpt lat="50.91385101135707" lon="5.010676481702312"><ele>58.0</ele><time>2026-04-22T15:42:01Z</time></trkpt><trkpt lat="50.913882895515755" lon="5.010806313211508"><ele>57.75</ele><time>2026-04-22T15:42:02Z</time></trkpt><trkpt lat="50.913923645345626" lon="5.01095691849748"><ele>57.5</ele><time>2026-04-22T15:42:03Z</time></trkpt><trkpt lat="50.913966548027425" lon="5.011114381188321"><ele>57.25</ele><time>2026-04-22T15:42:04Z</time></trkpt><trkpt lat="50.914013650049505" lon="5.011290237552715"><ele>57.0</ele><time>2026-04-22T15:42:05Z</time></trkpt><trkpt lat="50.914065540690316" lon="5.0114760174459025"><ele>57.0</ele><time>2026-04-22T15:42:06Z</time></trkpt><trkpt lat="50.91411298316727" lon="5.011653404828963"><ele>57.0</ele><time>2026-04-22T15:42:07Z</time></trkpt><trkpt lat="50.91415410298557" lon="5.011823007135095"><ele>57.0</ele><time>2026-04-22T15:42:08Z</time></trkpt><trkpt lat="50.91419999267335" lon="5.012007700088062"><ele>57.0</ele><time>2026-04-22T15:42:09Z</time></trkpt><trkpt lat="50.91424063652312" lon="5.012197735275257"><ele>57.25</ele><time>2026-04-22T15:42:10Z</time></trkpt><trkpt lat="50.91427693326149" lon="5.012378971848331"><ele>57.5</ele><time>2026-04-22T15:42:11Z</time></trkpt><trkpt lat="50.914312531672145" lon="5.012557634127328"><ele>57.75</ele><time>2026-04-22T15:42:12Z</time></trkpt><trkpt lat="50.914346600309585" lon="5.012726723900796"><ele>58.0</ele><time>2026-04-22T15:42:13Z</time></trkpt><trkpt lat="50.914361978624754" lon="5.012917712750066"><ele>58.0</ele><time>2026-04-22T15:42:14Z</time></trkpt><trkpt lat="50.914389314739175" lon="5.013088821374461"><ele>58.0</ele><time>2026-04-22T15:42:15Z</time></trkpt><trkpt lat="50.91441826137485" lon="5.013277118775987"><ele>58.0</ele><time>2026-04-22T15:42:16Z</time></trkpt><trkpt lat="50.91446035039738" lon="5.0134689434003645"><ele>58.0</ele><time>2026-04-22T15:42:17Z</time></trkpt><trkpt lat="50.91449213645592" lon="5.013671648859875"><ele>58.0</ele><time>2026-04-22T15:42:18Z</time></trkpt><trkpt lat="50.914523281033276" lon="5.013861952971665"><ele>58.0</ele><time>2026-04-22T15:42:19Z</time></trkpt><trkpt lat="50.91453568737634" lon="5.01403288550944"><ele>58.0</ele><time>2026-04-22T15:42:20Z</time></trkpt><trkpt lat="50.914561409264714" lon="5.014195499064225"><ele>58.0</ele><time>2026-04-22T15:42:21Z</time></trkpt><trkpt lat="50.91458493490613" lon="5.014365898042559"><ele>58.0</ele><time>2026-04-22T15:42:22Z</time></trkpt><trkpt lat="50.914611961921054" lon="5.014546686565691"><ele>57.75</ele><time>2026-04-22T15:42:23Z</time></trkpt><trkpt lat="50.91464237437398" lon="5.014741099170974"><ele>57.5</ele><time>2026-04-22T15:42:24Z</time></trkpt><trkpt lat="50.914673165418456" lon="5.0149363537281095"><ele>57.25</ele><time>2026-04-22T15:42:25Z</time></trkpt><trkpt lat="50.914707351263836" lon="5.015149798001582"><ele>57.0</ele><time>2026-04-22T15:42:26Z</time></trkpt><trkpt lat="50.914754383190925" lon="5.015355192193034"><ele>56.75</ele><time>2026-04-22T15:42:27Z</time></trkpt><trkpt lat="50.91478619973174" lon="5.015571028870452"><ele>56.5</ele><time>2026-04-22T15:42:28Z</time></trkpt><trkpt lat="50.91481940954063" lon="5.015793857465881"><ele>56.25</ele><time>2026-04-22T15:42:29Z</time></trkpt><trkpt lat="50.914852666362194" lon="5.016023476001073"><ele>56.0</ele><time>2026-04-22T15:42:30Z</time></trkpt><trkpt lat="50.91488346264039" lon="5.0162570215451785"><ele>55.333333333333336</ele><time>2026-04-22T15:42:31Z</time></trkpt><trkpt lat="50.91491423200265" lon="5.0165004381025495"><ele>54.66666666666667</ele><time>2026-04-22T15:42:32Z</time></trkpt><trkpt lat="50.91494249789121" lon="5.0167497652181385"><ele>54.0</ele><time>2026-04-22T15:42:33Z</time></trkpt><trkpt lat="50.91496740378174" lon="5.017007327192513"><ele>53.66666666666667</ele><time>2026-04-22T15:42:34Z</time></trkpt><trkpt lat="50.91499038078751" lon="5.0172631279446085"><ele>53.333333333333336</ele><time>2026-04-22T15:42:35Z</time></trkpt><trkpt lat="50.91501429021787" lon="5.017522032913973"><ele>53.0</ele><time>2026-04-22T15:42:36Z</time></trkpt><trkpt lat="50.91503664043534" lon="5.0177728136484205"><ele>52.66666666666667</ele><time>2026-04-22T15:42:37Z</time></trkpt><trkpt lat="50.91505883898391" lon="5.018032060917924"><ele>52.33333333333333</ele><time>2026-04-22T15:42:38Z</time></trkpt><trkpt lat="50.915084604163326" lon="5.0182854377157975"><ele>52.0</ele><time>2026-04-22T15:42:39Z</time></trkpt><trkpt lat="50.915108247412434" lon="5.018535058938847"><ele>51.5</ele><time>2026-04-22T15:42:40Z</time></trkpt><trkpt lat="50.91513079011447" lon="5.018775756418945"><ele>51.0</ele><time>2026-04-22T15:42:41Z</time></trkpt><trkpt lat="50.91513528304168" lon="5.01899643669021"><ele>50.5</ele><time>2026-04-22T15:42:42Z</time></trkpt><trkpt lat="50.915170489294326" lon="5.019203906181811"><ele>50.0</ele><time>2026-04-22T15:42:42.999Z</time></trkpt><trkpt lat="50.91518712277861" lon="5.019410769949175"><ele>49.6</ele><time>2026-04-22T15:42:43.999Z</time></trkpt><trkpt lat="50.915206008148374" lon="5.019597880688949"><ele>49.2</ele><time>2026-04-22T15:42:44.999Z</time></trkpt><trkpt lat="50.91522212479784" lon="5.019754984021042"><ele>48.8</ele><time>2026-04-22T15:42:45.999Z</time></trkpt><trkpt lat="50.915238141969574" lon="5.019900749502617"><ele>48.4</ele><time>2026-04-22T15:42:46.999Z</time></trkpt><trkpt lat="50.915249497692145" lon="5.020036403494739"><ele>48.0</ele><time>2026-04-22T15:42:47.999Z</time></trkpt><trkpt lat="50.91526677396841" lon="5.020194165617228"><ele>48.0</ele><time>2026-04-22T15:42:48.999Z</time></trkpt><trkpt lat="50.91528681534368" lon="5.020376288508914"><ele>48.0</ele><time>2026-04-22T15:42:49.999Z</time></trkpt><trkpt lat="50.91528957502041" lon="5.02057038098916"><ele>48.0</ele><time>2026-04-22T15:42:50.999Z</time></trkpt><trkpt lat="50.915310423159134" lon="5.020774306417485"><ele>48.0</ele><time>2026-04-22T15:42:51.999Z</time></trkpt><trkpt lat="50.91533430974351" lon="5.020986147428477"><ele>48.25</ele><time>2026-04-22T15:42:52.999Z</time></trkpt><trkpt lat="50.915359162903606" lon="5.0212065602832485"><ele>48.5</ele><time>2026-04-22T15:42:53.999Z</time></trkpt><trkpt lat="50.915385097762616" lon="5.021436014914072"><ele>48.75</ele><time>2026-04-22T15:42:54.999Z</time></trkpt><trkpt lat="50.915413502372616" lon="5.021670063783376"><ele>49.0</ele><time>2026-04-22T15:42:55.999Z</time></trkpt><trkpt lat="50.91544321896598" lon="5.0219051958240595"><ele>49.0</ele><time>2026-04-22T15:42:56.999Z</time></trkpt><trkpt lat="50.915473715634235" lon="5.022145083776616"><ele>49.0</ele><time>2026-04-22T15:42:57.999Z</time></trkpt><trkpt lat="50.91550742688195" lon="5.022385592206334"><ele>49.0</ele><time>2026-04-22T15:42:58.999Z</time></trkpt><trkpt lat="50.915537784856696" lon="5.022629385058436"><ele>49.33333333333333</ele><time>2026-04-22T15:42:59.999Z</time></trkpt><trkpt lat="50.915567125914976" lon="5.022875367829002"><ele>49.66666666666667</ele><time>2026-04-22T15:43:00.999Z</time></trkpt><trkpt lat="50.91559921712223" lon="5.023128468990164"><ele>50.0</ele><time>2026-04-22T15:43:01.999Z</time></trkpt><trkpt lat="50.915627544156024" lon="5.023376590120644"><ele>49.333333333333336</ele><time>2026-04-22T15:43:02.999Z</time></trkpt><trkpt lat="50.915653664338194" lon="5.023628932144766"><ele>48.66666666666667</ele><time>2026-04-22T15:43:03.999Z</time></trkpt><trkpt lat="50.915677270900915" lon="5.0238674371433465"><ele>48.0</ele><time>2026-04-22T15:43:04.999Z</time></trkpt><trkpt lat="50.91570102053392" lon="5.024110727010856"><ele>48.0</ele><time>2026-04-22T15:43:05.999Z</time></trkpt><trkpt lat="50.91572013396417" lon="5.024357346627176"><ele>48.0</ele><time>2026-04-22T15:43:06.999Z</time></trkpt><trkpt lat="50.91573829227736" lon="5.02460231334164"><ele>48.0</ele><time>2026-04-22T15:43:07.999Z</time></trkpt><trkpt lat="50.91576346410139" lon="5.024834802362139"><ele>47.666666666666664</ele><time>2026-04-22T15:43:08.999Z</time></trkpt><trkpt lat="50.915773645929164" lon="5.025082230053262"><ele>47.33333333333333</ele><time>2026-04-22T15:43:09.999Z</time></trkpt><trkpt lat="50.91579167980221" lon="5.0253211417855015"><ele>47.0</ele><time>2026-04-22T15:43:10.999Z</time></trkpt><trkpt lat="50.91581564010067" lon="5.025559004894512"><ele>47.0</ele><time>2026-04-22T15:43:11.999Z</time></trkpt><trkpt lat="50.91584318811225" lon="5.02578681375993"><ele>47.0</ele><time>2026-04-22T15:43:12.999Z</time></trkpt><trkpt lat="50.91587493892191" lon="5.02600251911497"><ele>47.0</ele><time>2026-04-22T15:43:13.999Z</time></trkpt><trkpt lat="50.91591531180343" lon="5.02623194523619"><ele>47.0</ele><time>2026-04-22T15:43:14.999Z</time></trkpt><trkpt lat="50.915963522682944" lon="5.026456877765591"><ele>47.5</ele><time>2026-04-22T15:43:15.999Z</time></trkpt><trkpt lat="50.91602389535303" lon="5.0266693982416335"><ele>48.0</ele><time>2026-04-22T15:43:16.999Z</time></trkpt><trkpt lat="50.91608342965534" lon="5.0268693121737655"><ele>48.5</ele><time>2026-04-22T15:43:17.999Z</time></trkpt><trkpt lat="50.91614985075795" lon="5.027068239939574"><ele>49.0</ele><time>2026-04-22T15:43:18.999Z</time></trkpt><trkpt lat="50.91622242056075" lon="5.0272586469404414"><ele>49.0</ele><time>2026-04-22T15:43:19.999Z</time></trkpt><trkpt lat="50.916298455870376" lon="5.027445550406461"><ele>49.0</ele><time>2026-04-22T15:43:20.999Z</time></trkpt><trkpt lat="50.91637725545915" lon="5.027619830973427"><ele>49.0</ele><time>2026-04-22T15:43:21.999Z</time></trkpt><trkpt lat="50.916452732549075" lon="5.027802577289707"><ele>49.0</ele><time>2026-04-22T15:43:22.999Z</time></trkpt><trkpt lat="50.9165326306584" lon="5.027976079925466"><ele>49.25</ele><time>2026-04-22T15:43:23.999Z</time></trkpt><trkpt lat="50.916602628203215" lon="5.028145647922733"><ele>49.5</ele><time>2026-04-22T15:43:24.999Z</time></trkpt><trkpt lat="50.91666754223817" lon="5.028300802870721"><ele>49.75</ele><time>2026-04-22T15:43:25.999Z</time></trkpt><trkpt lat="50.91672756813856" lon="5.028456039110315"><ele>50.0</ele><time>2026-04-22T15:43:26.999Z</time></trkpt><trkpt lat="50.916790863386026" lon="5.02860826996026"><ele>50.4</ele><time>2026-04-22T15:43:27.999Z</time></trkpt><trkpt lat="50.916854841618346" lon="5.028760943919576"><ele>50.8</ele><time>2026-04-22T15:43:28.998Z</time></trkpt><trkpt lat="50.916914781876535" lon="5.028904642273458"><ele>51.2</ele><time>2026-04-22T15:43:29.998Z</time></trkpt><trkpt lat="50.91697666173797" lon="5.02905120875576"><ele>51.6</ele><time>2026-04-22T15:43:30.998Z</time></trkpt><trkpt lat="50.91703458906575" lon="5.029191885817159"><ele>52.0</ele><time>2026-04-22T15:43:31.998Z</time></trkpt><trkpt lat="50.917078640140744" lon="5.029319341970874"><ele>52.400000000000006</ele><time>2026-04-22T15:43:32.998Z</time></trkpt><trkpt lat="50.91709721544973" lon="5.029474347146238"><ele>52.800000000000004</ele><time>2026-04-22T15:43:33.998Z</time></trkpt><trkpt lat="50.91713788493884" lon="5.029612252490684"><ele>53.2</ele><time>2026-04-22T15:43:34.998Z</time></trkpt><trkpt lat="50.917141263562314" lon="5.029776260891398"><ele>53.6</ele><time>2026-04-22T15:43:35.998Z</time></trkpt><trkpt lat="50.91715483806959" lon="5.02993170901523"><ele>54.0</ele><time>2026-04-22T15:43:36.998Z</time></trkpt><trkpt lat="50.917147689008054" lon="5.030091897407638"><ele>54.400000000000006</ele><time>2026-04-22T15:43:37.998Z</time></trkpt><trkpt lat="50.91713650414493" lon="5.030243978047485"><ele>54.800000000000004</ele><time>2026-04-22T15:43:38.998Z</time></trkpt><trkpt lat="50.917115751863726" lon="5.030390886562147"><ele>55.199999999999996</ele><time>2026-04-22T15:43:39.998Z</time></trkpt><trkpt lat="50.917094550648045" lon="5.030540292950315"><ele>55.599999999999994</ele><time>2026-04-22T15:43:40.998Z</time></trkpt><trkpt lat="50.9170722817706" lon="5.030697223861145"><ele>56.0</ele><time>2026-04-22T15:43:41.998Z</time></trkpt><trkpt lat="50.91705118530112" lon="5.030845892000236"><ele>56.16666666666667</ele><time>2026-04-22T15:43:42.998Z</time></trkpt><trkpt lat="50.91702948810935" lon="5.030999388868468"><ele>56.333333333333336</ele><time>2026-04-22T15:43:43.998Z</time></trkpt><trkpt lat="50.91700935939123" lon="5.031141986829117"><ele>56.5</ele><time>2026-04-22T15:43:44.998Z</time></trkpt><trkpt lat="50.91699143236003" lon="5.031268987415"><ele>56.66666666666667</ele><time>2026-04-22T15:43:45.998Z</time></trkpt><trkpt lat="50.91697320931327" lon="5.031398085159225"><ele>56.833333333333336</ele><time>2026-04-22T15:43:46.998Z</time></trkpt><trkpt lat="50.91695917106807" lon="5.0315000207334455"><ele>57.0</ele><time>2026-04-22T15:43:47.998Z</time></trkpt><trkpt lat="50.91694011160914" lon="5.03167620601247"><ele>57.0</ele><time>2026-04-22T15:43:49.998Z</time></trkpt><trkpt lat="50.91691405963213" lon="5.031869150621081"><ele>57.0</ele><time>2026-04-22T15:43:51.998Z</time></trkpt><trkpt lat="50.91691436765007" lon="5.031976649557826"><ele>57.0</ele><time>2026-04-22T15:43:52.998Z</time></trkpt><trkpt lat="50.916889091935474" lon="5.032076904903042"><ele>57.0</ele><time>2026-04-22T15:43:53.998Z</time></trkpt><trkpt lat="50.91683621647056" lon="5.032158715476166"><ele>57.0</ele><time>2026-04-22T15:43:55Z</time></trkpt><trkpt lat="50.91678716135405" lon="5.032247195529553"><ele>57.0</ele><time>2026-04-22T15:43:56Z</time></trkpt><trkpt lat="50.91671847990037" lon="5.03231580524903"><ele>57.0</ele><time>2026-04-22T15:43:57Z</time></trkpt><trkpt lat="50.91664524087808" lon="5.0323487862236975"><ele>57.0</ele><time>2026-04-22T15:43:58Z</time></trkpt><trkpt lat="50.91656198700366" lon="5.032393559741239"><ele>57.0</ele><time>2026-04-22T15:43:59Z</time></trkpt><trkpt lat="50.91648558246468" lon="5.032432303802584"><ele>57.0</ele><time>2026-04-22T15:44:00Z</time></trkpt><trkpt lat="50.91640267513658" lon="5.032476275772223"><ele>57.0</ele><time>2026-04-22T15:44:01Z</time></trkpt><trkpt lat="50.91632278445708" lon="5.032526058548947"><ele>57.0</ele><time>2026-04-22T15:44:02Z</time></trkpt><trkpt lat="50.916238698797756" lon="5.0325783870636105"><ele>57.2</ele><time>2026-04-22T15:44:03Z</time></trkpt><trkpt lat="50.91615361946065" lon="5.032631208780647"><ele>57.400000000000006</ele><time>2026-04-22T15:44:04Z</time></trkpt><trkpt lat="50.916067824896416" lon="5.032684161569068"><ele>57.599999999999994</ele><time>2026-04-22T15:44:05Z</time></trkpt><trkpt lat="50.915974859736906" lon="5.032741540232421"><ele>57.8</ele><time>2026-04-22T15:44:06Z</time></trkpt><trkpt lat="50.91587960706233" lon="5.032803480972627"><ele>58.0</ele><time>2026-04-22T15:44:07Z</time></trkpt><trkpt lat="50.91577806254491" lon="5.032871726598056"><ele>58.0</ele><time>2026-04-22T15:44:08Z</time></trkpt><trkpt lat="50.91567240961564" lon="5.032942740435785"><ele>58.0</ele><time>2026-04-22T15:44:09Z</time></trkpt><trkpt lat="50.915562377744614" lon="5.0330166977601"><ele>58.0</ele><time>2026-04-22T15:44:10Z</time></trkpt><trkpt lat="50.91544576109827" lon="5.03309494226573"><ele>58.0</ele><time>2026-04-22T15:44:11Z</time></trkpt><trkpt lat="50.91532545499118" lon="5.033175532462054"><ele>58.0</ele><time>2026-04-22T15:44:12Z</time></trkpt><trkpt lat="50.91520329485376" lon="5.033257364823349"><ele>58.0</ele><time>2026-04-22T15:44:13Z</time></trkpt><trkpt lat="50.91507933241535" lon="5.033340404345496"><ele>58.0</ele><time>2026-04-22T15:44:14Z</time></trkpt><trkpt lat="50.91495144303944" lon="5.033427587032142"><ele>58.0</ele><time>2026-04-22T15:44:15Z</time></trkpt><trkpt lat="50.91482593787215" lon="5.033513403117625"><ele>58.25</ele><time>2026-04-22T15:44:16Z</time></trkpt><trkpt lat="50.91470419820154" lon="5.033596644395162"><ele>58.5</ele><time>2026-04-22T15:44:17Z</time></trkpt><trkpt lat="50.91459240501604" lon="5.0336730847213955"><ele>58.75</ele><time>2026-04-22T15:44:18Z</time></trkpt><trkpt lat="50.914490397778906" lon="5.033742833608902"><ele>59.0</ele><time>2026-04-22T15:44:19Z</time></trkpt><trkpt lat="50.91438266269604" lon="5.033817082047683"><ele>59.0</ele><time>2026-04-22T15:44:20Z</time></trkpt><trkpt lat="50.91427683311808" lon="5.03389248000832"><ele>59.00000000000001</ele><time>2026-04-22T15:44:21Z</time></trkpt><trkpt lat="50.91417713168328" lon="5.033971433900539"><ele>59.00000000000001</ele><time>2026-04-22T15:44:22Z</time></trkpt><trkpt lat="50.9140886851624" lon="5.034073765412749"><ele>59.0</ele><time>2026-04-22T15:44:23Z</time></trkpt><trkpt lat="50.91401836030316" lon="5.034179653065446"><ele>59.0</ele><time>2026-04-22T15:44:24Z</time></trkpt><trkpt lat="50.913950948122206" lon="5.034309731210915"><ele>59.0</ele><time>2026-04-22T15:44:25Z</time></trkpt><trkpt lat="50.913890385223866" lon="5.0344591661074345"><ele>59.00000000000001</ele><time>2026-04-22T15:44:26Z</time></trkpt><trkpt lat="50.91385541278216" lon="5.034624443261914"><ele>59.00000000000001</ele><time>2026-04-22T15:44:27Z</time></trkpt><trkpt lat="50.91380170965655" lon="5.034776701238706"><ele>59.0</ele><time>2026-04-22T15:44:28Z</time></trkpt><trkpt lat="50.913760467215205" lon="5.034937408011381"><ele>59.0</ele><time>2026-04-22T15:44:29Z</time></trkpt><trkpt lat="50.91371871993616" lon="5.035099891494104"><ele>58.75</ele><time>2026-04-22T15:44:30Z</time></trkpt><trkpt lat="50.91367433323613" lon="5.035267009748065"><ele>58.5</ele><time>2026-04-22T15:44:31Z</time></trkpt><trkpt lat="50.913626772175874" lon="5.035441876971141"><ele>58.25</ele><time>2026-04-22T15:44:32Z</time></trkpt><trkpt lat="50.913575392383926" lon="5.035618000925576"><ele>58.0</ele><time>2026-04-22T15:44:33Z</time></trkpt><trkpt lat="50.91351162380028" lon="5.035784748104797"><ele>58.0</ele><time>2026-04-22T15:44:34Z</time></trkpt><trkpt lat="50.91343368596395" lon="5.035933799210163"><ele>58.0</ele><time>2026-04-22T15:44:35Z</time></trkpt><trkpt lat="50.91334900496998" lon="5.036086178867159"><ele>58.0</ele><time>2026-04-22T15:44:36Z</time></trkpt><trkpt lat="50.913267334531106" lon="5.036229132391836"><ele>58.0</ele><time>2026-04-22T15:44:37Z</time></trkpt><trkpt lat="50.91318663109174" lon="5.036375892679531"><ele>58.5</ele><time>2026-04-22T15:44:38Z</time></trkpt><trkpt lat="50.913123384468314" lon="5.036541530933333"><ele>59.0</ele><time>2026-04-22T15:44:39Z</time></trkpt><trkpt lat="50.91304261220517" lon="5.036692734213788"><ele>59.5</ele><time>2026-04-22T15:44:40Z</time></trkpt><trkpt lat="50.91297569422083" lon="5.036862158394469"><ele>60.0</ele><time>2026-04-22T15:44:41Z</time></trkpt><trkpt lat="50.91292775704289" lon="5.037059627303198"><ele>60.0</ele><time>2026-04-22T15:44:42Z</time></trkpt><trkpt lat="50.91288648748463" lon="5.037253961075808"><ele>60.0</ele><time>2026-04-22T15:44:43Z</time></trkpt><trkpt lat="50.912854376456735" lon="5.037456474419503"><ele>60.0</ele><time>2026-04-22T15:44:44Z</time></trkpt><trkpt lat="50.912840903774274" lon="5.037674097492756"><ele>60.0</ele><time>2026-04-22T15:44:45Z</time></trkpt><trkpt lat="50.91283318003256" lon="5.037883249551041"><ele>60.0</ele><time>2026-04-22T15:44:46Z</time></trkpt><trkpt lat="50.91282620940085" lon="5.038096419730647"><ele>60.0</ele><time>2026-04-22T15:44:47Z</time></trkpt><trkpt lat="50.9128202787509" lon="5.038309833187121"><ele>60.0</ele><time>2026-04-22T15:44:47.999Z</time></trkpt><trkpt lat="50.91281282184631" lon="5.038526210644292"><ele>60.0</ele><time>2026-04-22T15:44:48.999Z</time></trkpt><trkpt lat="50.912806529497196" lon="5.038740870737353"><ele>60.0</ele><time>2026-04-22T15:44:49.999Z</time></trkpt><trkpt lat="50.9128148232843" lon="5.038956548444518"><ele>60.0</ele><time>2026-04-22T15:44:50.999Z</time></trkpt><trkpt lat="50.9128059847586" lon="5.039169288455972"><ele>60.0</ele><time>2026-04-22T15:44:51.999Z</time></trkpt><trkpt lat="50.91279841022562" lon="5.039383925746033"><ele>60.0</ele><time>2026-04-22T15:44:52.999Z</time></trkpt><trkpt lat="50.9127732768689" lon="5.039599086787782"><ele>59.5</ele><time>2026-04-22T15:44:53.999Z</time></trkpt><trkpt lat="50.9127620302456" lon="5.039818807416702"><ele>59.0</ele><time>2026-04-22T15:44:54.999Z</time></trkpt><trkpt lat="50.912751359921025" lon="5.040040609629034"><ele>58.5</ele><time>2026-04-22T15:44:55.999Z</time></trkpt><trkpt lat="50.91274264890198" lon="5.040264800596994"><ele>58.0</ele><time>2026-04-22T15:44:56.999Z</time></trkpt><trkpt lat="50.91273384327072" lon="5.040491426546637"><ele>57.25</ele><time>2026-04-22T15:44:57.999Z</time></trkpt><trkpt lat="50.912724845379984" lon="5.040723000619608"><ele>56.5</ele><time>2026-04-22T15:44:58.999Z</time></trkpt><trkpt lat="50.91271544174297" lon="5.040957528417717"><ele>55.75</ele><time>2026-04-22T15:44:59.999Z</time></trkpt><trkpt lat="50.91270458330011" lon="5.041201380786477"><ele>55.0</ele><time>2026-04-22T15:45:00.999Z</time></trkpt><trkpt lat="50.91269463096225" lon="5.041450432365774"><ele>53.666666666666664</ele><time>2026-04-22T15:45:01.999Z</time></trkpt><trkpt lat="50.91268345820045" lon="5.041694804087492"><ele>52.33333333333333</ele><time>2026-04-22T15:45:02.999Z</time></trkpt><trkpt lat="50.91266924950562" lon="5.04193280524821"><ele>51.0</ele><time>2026-04-22T15:45:03.999Z</time></trkpt><trkpt lat="50.91265174616211" lon="5.042175998940741"><ele>51.0</ele><time>2026-04-22T15:45:04.999Z</time></trkpt><trkpt lat="50.9126484330479" lon="5.042415466541854"><ele>51.0</ele><time>2026-04-22T15:45:05.999Z</time></trkpt><trkpt lat="50.91262595142347" lon="5.04264278209234"><ele>51.0</ele><time>2026-04-22T15:45:06.999Z</time></trkpt><trkpt lat="50.91258781068599" lon="5.042871921727706"><ele>51.0</ele><time>2026-04-22T15:45:07.999Z</time></trkpt><trkpt lat="50.9125618242739" lon="5.043111230434111"><ele>49.333333333333336</ele><time>2026-04-22T15:45:08.999Z</time></trkpt><trkpt lat="50.912534112378374" lon="5.043353649151472"><ele>47.66666666666667</ele><time>2026-04-22T15:45:09.999Z</time></trkpt><trkpt lat="50.912505318954395" lon="5.043602910504858"><ele>46.0</ele><time>2026-04-22T15:45:10.999Z</time></trkpt><trkpt lat="50.91247703469379" lon="5.043837783874551"><ele>46.0</ele><time>2026-04-22T15:45:11.999Z</time></trkpt><trkpt lat="50.91246673979703" lon="5.044072854841692"><ele>46.0</ele><time>2026-04-22T15:45:12.999Z</time></trkpt><trkpt lat="50.912439979381105" lon="5.044303935759977"><ele>46.0</ele><time>2026-04-22T15:45:13.999Z</time></trkpt><trkpt lat="50.91241177815815" lon="5.044531164356357"><ele>46.0</ele><time>2026-04-22T15:45:14.999Z</time></trkpt><trkpt lat="50.91238320809519" lon="5.0447621908413955"><ele>44.0</ele><time>2026-04-22T15:45:15.999Z</time></trkpt><trkpt lat="50.91233943995569" lon="5.044996964253144"><ele>42.0</ele><time>2026-04-22T15:45:16.999Z</time></trkpt><trkpt lat="50.912311420444695" lon="5.045228269878072"><ele>40.0</ele><time>2026-04-22T15:45:17.999Z</time></trkpt><trkpt lat="50.91228170293003" lon="5.045463986335344"><ele>40.0</ele><time>2026-04-22T15:45:18.999Z</time></trkpt><trkpt lat="50.91225111869202" lon="5.045694395206431"><ele>40.0</ele><time>2026-04-22T15:45:19.999Z</time></trkpt><trkpt lat="50.912235855005925" lon="5.04593485941775"><ele>40.0</ele><time>2026-04-22T15:45:20.999Z</time></trkpt><trkpt lat="50.91219963429142" lon="5.046163620436838"><ele>39.0</ele><time>2026-04-22T15:45:21.999Z</time></trkpt><trkpt lat="50.91216133737202" lon="5.046396405732419"><ele>38.0</ele><time>2026-04-22T15:45:22.999Z</time></trkpt><trkpt lat="50.912102177608574" lon="5.0466254993270825"><ele>37.0</ele><time>2026-04-22T15:45:23.999Z</time></trkpt><trkpt lat="50.912056925679416" lon="5.046858209381469"><ele>36.0</ele><time>2026-04-22T15:45:24.999Z</time></trkpt><trkpt lat="50.91200936148043" lon="5.047090550351449"><ele>35.0</ele><time>2026-04-22T15:45:25.999Z</time></trkpt><trkpt lat="50.91195909021236" lon="5.047323322999344"><ele>34.0</ele><time>2026-04-22T15:45:26.999Z</time></trkpt><trkpt lat="50.911912148010714" lon="5.047557646233476"><ele>33.333333333333336</ele><time>2026-04-22T15:45:27.999Z</time></trkpt><trkpt lat="50.91186484823935" lon="5.047792449551404"><ele>32.666666666666664</ele><time>2026-04-22T15:45:28.999Z</time></trkpt><trkpt lat="50.91181971208278" lon="5.0480165125084895"><ele>32.0</ele><time>2026-04-22T15:45:29.999Z</time></trkpt><trkpt lat="50.9117737513764" lon="5.048244668244554"><ele>31.666666666666664</ele><time>2026-04-22T15:45:30.999Z</time></trkpt><trkpt lat="50.91174285660976" lon="5.048481327159533"><ele>31.333333333333336</ele><time>2026-04-22T15:45:31.999Z</time></trkpt><trkpt lat="50.911682254429124" lon="5.048693861820468"><ele>31.0</ele><time>2026-04-22T15:45:32.999Z</time></trkpt><trkpt lat="50.91163539645544" lon="5.048920648198572"><ele>31.333333333333336</ele><time>2026-04-22T15:45:33.999Z</time></trkpt><trkpt lat="50.9115887633514" lon="5.049146346068142"><ele>31.666666666666664</ele><time>2026-04-22T15:45:34.998Z</time></trkpt><trkpt lat="50.91154032905731" lon="5.049380317993509"><ele>32.0</ele><time>2026-04-22T15:45:35.998Z</time></trkpt><trkpt lat="50.91149213478022" lon="5.049613303568574"><ele>32.0</ele><time>2026-04-22T15:45:36.998Z</time></trkpt><trkpt lat="50.911459198230396" lon="5.049855114387775"><ele>32.0</ele><time>2026-04-22T15:45:37.998Z</time></trkpt><trkpt lat="50.91139497073686" lon="5.050086611791378"><ele>32.0</ele><time>2026-04-22T15:45:38.998Z</time></trkpt><trkpt lat="50.91136271189228" lon="5.050313576818513"><ele>31.833333333333332</ele><time>2026-04-22T15:45:39.998Z</time></trkpt><trkpt lat="50.911332477273405" lon="5.0504771430837945"><ele>31.666666666666664</ele><time>2026-04-22T15:45:40.998Z</time></trkpt><trkpt lat="50.91130517824464" lon="5.050593675401384"><ele>31.5</ele><time>2026-04-22T15:45:41.998Z</time></trkpt><trkpt lat="50.91128045051355" lon="5.050731333327783"><ele>31.333333333333336</ele><time>2026-04-22T15:45:43.998Z</time></trkpt><trkpt lat="50.91124602655508" lon="5.050817683064437"><ele>31.166666666666668</ele><time>2026-04-22T15:45:46.998Z</time></trkpt><trkpt lat="50.9112130109284" lon="5.050979782206109"><ele>31.0</ele><time>2026-04-22T15:45:48.998Z</time></trkpt><trkpt lat="50.91118734245335" lon="5.051105808724006"><ele>30.75</ele><time>2026-04-22T15:45:49.998Z</time></trkpt><trkpt lat="50.911167116148455" lon="5.05127852362448"><ele>30.5</ele><time>2026-04-22T15:45:50.998Z</time></trkpt><trkpt lat="50.9111158712626" lon="5.051456877026535"><ele>30.25</ele><time>2026-04-22T15:45:51.998Z</time></trkpt><trkpt lat="50.91107869633252" lon="5.051639928064858"><ele>30.0</ele><time>2026-04-22T15:45:52.998Z</time></trkpt><trkpt lat="50.91103829883298" lon="5.051839229892951"><ele>29.75</ele><time>2026-04-22T15:45:53.998Z</time></trkpt><trkpt lat="50.910994770846465" lon="5.052054501114312"><ele>29.5</ele><time>2026-04-22T15:45:54.998Z</time></trkpt><trkpt lat="50.91095289011688" lon="5.052264024284404"><ele>29.25</ele><time>2026-04-22T15:45:55.998Z</time></trkpt><trkpt lat="50.91090819681724" lon="5.052488673062518"><ele>29.0</ele><time>2026-04-22T15:45:56.998Z</time></trkpt><trkpt lat="50.9108615128335" lon="5.052723126316301"><ele>29.0</ele><time>2026-04-22T15:45:57.998Z</time></trkpt><trkpt lat="50.91081332418061" lon="5.0529640696350695"><ele>29.0</ele><time>2026-04-22T15:45:58.998Z</time></trkpt><trkpt lat="50.910762764145986" lon="5.053216869578653"><ele>29.0</ele><time>2026-04-22T15:46:00Z</time></trkpt><trkpt lat="50.91071186724211" lon="5.0534688773961305"><ele>29.0</ele><time>2026-04-22T15:46:01Z</time></trkpt><trkpt lat="50.910660955285095" lon="5.053715784087747"><ele>29.0</ele><time>2026-04-22T15:46:02Z</time></trkpt><trkpt lat="50.910615642281826" lon="5.0539318700478555"><ele>29.0</ele><time>2026-04-22T15:46:03Z</time></trkpt><trkpt lat="50.910587065729715" lon="5.05415150609656"><ele>29.0</ele><time>2026-04-22T15:46:04Z</time></trkpt><trkpt lat="50.91054226164083" lon="5.05435734160182"><ele>29.0</ele><time>2026-04-22T15:46:05Z</time></trkpt><trkpt lat="50.91049833488727" lon="5.05456748826473"><ele>29.0</ele><time>2026-04-22T15:46:06Z</time></trkpt><trkpt lat="50.910455776941525" lon="5.054784026718737"><ele>29.0</ele><time>2026-04-22T15:46:07Z</time></trkpt><trkpt lat="50.910410237934144" lon="5.054999810905254"><ele>29.0</ele><time>2026-04-22T15:46:08Z</time></trkpt><trkpt lat="50.91036902254432" lon="5.05520541932949"><ele>28.75</ele><time>2026-04-22T15:46:09Z</time></trkpt><trkpt lat="50.91032676585704" lon="5.055408179999182"><ele>28.5</ele><time>2026-04-22T15:46:10Z</time></trkpt><trkpt lat="50.9102826761014" lon="5.055607518567446"><ele>28.25</ele><time>2026-04-22T15:46:11Z</time></trkpt><trkpt lat="50.91024353431007" lon="5.055804154387026"><ele>28.0</ele><time>2026-04-22T15:46:12Z</time></trkpt><trkpt lat="50.91020284508262" lon="5.056001177935068"><ele>28.0</ele><time>2026-04-22T15:46:13Z</time></trkpt><trkpt lat="50.91015266374378" lon="5.056187081574887"><ele>28.0</ele><time>2026-04-22T15:46:14Z</time></trkpt><trkpt lat="50.910113898334124" lon="5.056377659053348"><ele>28.0</ele><time>2026-04-22T15:46:15Z</time></trkpt><trkpt lat="50.91007527857751" lon="5.056565069874481"><ele>28.0</ele><time>2026-04-22T15:46:16Z</time></trkpt><trkpt lat="50.91003723811666" lon="5.056744728950012"><ele>28.0</ele><time>2026-04-22T15:46:17Z</time></trkpt><trkpt lat="50.9100000380386" lon="5.056919290180386"><ele>28.0</ele><time>2026-04-22T15:46:18Z</time></trkpt><trkpt lat="50.90997211569158" lon="5.057105486635693"><ele>28.0</ele><time>2026-04-22T15:46:19Z</time></trkpt><trkpt lat="50.90993365716845" lon="5.0572775154172955"><ele>28.0</ele><time>2026-04-22T15:46:20Z</time></trkpt><trkpt lat="50.90989731266247" lon="5.057439089390388"><ele>28.799999999999997</ele><time>2026-04-22T15:46:21Z</time></trkpt><trkpt lat="50.90987052044656" lon="5.057588286746377"><ele>29.599999999999998</ele><time>2026-04-22T15:46:22Z</time></trkpt><trkpt lat="50.90984231750529" lon="5.057744471594529"><ele>30.400000000000002</ele><time>2026-04-22T15:46:23Z</time></trkpt><trkpt lat="50.909801307599245" lon="5.057892933304679"><ele>31.200000000000003</ele><time>2026-04-22T15:46:24Z</time></trkpt><trkpt lat="50.90974061558885" lon="5.058045807327134"><ele>32.0</ele><time>2026-04-22T15:46:25Z</time></trkpt><trkpt lat="50.909671872863356" lon="5.058188019224277"><ele>32.5</ele><time>2026-04-22T15:46:26Z</time></trkpt><trkpt lat="50.909594837283784" lon="5.058327015886991"><ele>33.0</ele><time>2026-04-22T15:46:27Z</time></trkpt><trkpt lat="50.909516967762734" lon="5.058471489713026"><ele>33.5</ele><time>2026-04-22T15:46:28Z</time></trkpt><trkpt lat="50.90942958322967" lon="5.058601397424481"><ele>34.0</ele><time>2026-04-22T15:46:29Z</time></trkpt><trkpt lat="50.909361812843784" lon="5.058758477455086"><ele>34.0</ele><time>2026-04-22T15:46:30Z</time></trkpt><trkpt lat="50.9093051327681" lon="5.058917063927403"><ele>34.0</ele><time>2026-04-22T15:46:31Z</time></trkpt><trkpt lat="50.909257056919685" lon="5.059070467214725"><ele>34.0</ele><time>2026-04-22T15:46:32Z</time></trkpt><trkpt lat="50.90921652824242" lon="5.059199788598975"><ele>34.0</ele><time>2026-04-22T15:46:33Z</time></trkpt><trkpt lat="50.90917870011751" lon="5.059320492866497"><ele>34.0</ele><time>2026-04-22T15:46:34Z</time></trkpt><trkpt lat="50.90914544183208" lon="5.059426612674192"><ele>34.2</ele><time>2026-04-22T15:46:35Z</time></trkpt><trkpt lat="50.90909599427669" lon="5.059602933196425"><ele>34.4</ele><time>2026-04-22T15:46:37Z</time></trkpt><trkpt lat="50.909049970389006" lon="5.0597609123126395"><ele>34.6</ele><time>2026-04-22T15:46:39Z</time></trkpt><trkpt lat="50.90901713210598" lon="5.059873412450401"><ele>34.8</ele><time>2026-04-22T15:46:41Z</time></trkpt><trkpt lat="50.908987478460084" lon="5.059974643705955"><ele>35.0</ele><time>2026-04-22T15:46:43Z</time></trkpt><trkpt lat="50.908948484767855" lon="5.0601339866751"><ele>35.2</ele><time>2026-04-22T15:46:46Z</time></trkpt><trkpt lat="50.90892649698395" lon="5.0602410756035825"><ele>35.4</ele><time>2026-04-22T15:46:47Z</time></trkpt><trkpt lat="50.908906894760065" lon="5.060372429100552"><ele>35.6</ele><time>2026-04-22T15:46:48Z</time></trkpt><trkpt lat="50.90887793082524" lon="5.060524471608381"><ele>35.8</ele><time>2026-04-22T15:46:49Z</time></trkpt><trkpt lat="50.90884994447962" lon="5.06068013629845"><ele>36.0</ele><time>2026-04-22T15:46:50Z</time></trkpt><trkpt lat="50.90882134154453" lon="5.060851529259586"><ele>36.25</ele><time>2026-04-22T15:46:50.999Z</time></trkpt><trkpt lat="50.90879130945019" lon="5.061036610597097"><ele>36.5</ele><time>2026-04-22T15:46:51.999Z</time></trkpt><trkpt lat="50.908761456900024" lon="5.061222028619692"><ele>36.75</ele><time>2026-04-22T15:46:52.999Z</time></trkpt><trkpt lat="50.90873463260645" lon="5.061410892978"><ele>37.0</ele><time>2026-04-22T15:46:53.999Z</time></trkpt><trkpt lat="50.90871599388747" lon="5.061609097495819"><ele>37.0</ele><time>2026-04-22T15:46:54.999Z</time></trkpt><trkpt lat="50.90869711124513" lon="5.061816868207574"><ele>37.0</ele><time>2026-04-22T15:46:55.999Z</time></trkpt><trkpt lat="50.908680605868305" lon="5.06203021301344"><ele>37.0</ele><time>2026-04-22T15:46:56.999Z</time></trkpt><trkpt lat="50.90866186985556" lon="5.062249433758039"><ele>37.0</ele><time>2026-04-22T15:46:57.999Z</time></trkpt><trkpt lat="50.90863398954529" lon="5.062465257101223"><ele>37.5</ele><time>2026-04-22T15:46:58.999Z</time></trkpt><trkpt lat="50.90859738354742" lon="5.062687808366796"><ele>38.0</ele><time>2026-04-22T15:46:59.999Z</time></trkpt><trkpt lat="50.90855104925845" lon="5.0628952251124355"><ele>38.5</ele><time>2026-04-22T15:47:00.999Z</time></trkpt><trkpt lat="50.90849822382594" lon="5.063096856621274"><ele>39.0</ele><time>2026-04-22T15:47:01.999Z</time></trkpt><trkpt lat="50.90844529980671" lon="5.063286962532545"><ele>39.5</ele><time>2026-04-22T15:47:02.999Z</time></trkpt><trkpt lat="50.90839566578877" lon="5.063483245768777"><ele>40.0</ele><time>2026-04-22T15:47:03.999Z</time></trkpt><trkpt lat="50.908345660406106" lon="5.063679074193325"><ele>40.5</ele><time>2026-04-22T15:47:04.999Z</time></trkpt><trkpt lat="50.90829537494761" lon="5.063882026987571"><ele>41.0</ele><time>2026-04-22T15:47:05.999Z</time></trkpt><trkpt lat="50.908244943580264" lon="5.064085099213391"><ele>41.25</ele><time>2026-04-22T15:47:06.999Z</time></trkpt><trkpt lat="50.90819089338654" lon="5.064286829193869"><ele>41.5</ele><time>2026-04-22T15:47:07.999Z</time></trkpt><trkpt lat="50.90813386068352" lon="5.064494856965653"><ele>41.75</ele><time>2026-04-22T15:47:08.999Z</time></trkpt><trkpt lat="50.908075482809544" lon="5.064715752489321"><ele>42.0</ele><time>2026-04-22T15:47:09.999Z</time></trkpt><trkpt lat="50.908019931358375" lon="5.064934406150985"><ele>42.333333333333336</ele><time>2026-04-22T15:47:10.999Z</time></trkpt><trkpt lat="50.907963993194834" lon="5.065160972445109"><ele>42.66666666666667</ele><time>2026-04-22T15:47:11.999Z</time></trkpt><trkpt lat="50.907909275290045" lon="5.065382465065801"><ele>43.0</ele><time>2026-04-22T15:47:12.999Z</time></trkpt><trkpt lat="50.907852613151505" lon="5.065602070060125"><ele>43.5</ele><time>2026-04-22T15:47:13.999Z</time></trkpt><trkpt lat="50.907795211246665" lon="5.065820554692623"><ele>44.0</ele><time>2026-04-22T15:47:14.999Z</time></trkpt><trkpt lat="50.90772574252623" lon="5.066015343795398"><ele>44.5</ele><time>2026-04-22T15:47:15.999Z</time></trkpt><trkpt lat="50.9076717471122" lon="5.066227392311709"><ele>45.0</ele><time>2026-04-22T15:47:16.999Z</time></trkpt><trkpt lat="50.9076198287194" lon="5.066432254506607"><ele>44.75</ele><time>2026-04-22T15:47:17.999Z</time></trkpt><trkpt lat="50.90756723881743" lon="5.066641356546479"><ele>44.5</ele><time>2026-04-22T15:47:18.999Z</time></trkpt><trkpt lat="50.90751624427048" lon="5.066847206143995"><ele>44.25</ele><time>2026-04-22T15:47:19.999Z</time></trkpt><trkpt lat="50.90746442974784" lon="5.067056366226615"><ele>44.0</ele><time>2026-04-22T15:47:20.999Z</time></trkpt><trkpt lat="50.907410652187345" lon="5.0672692692830505"><ele>44.5</ele><time>2026-04-22T15:47:21.999Z</time></trkpt><trkpt lat="50.907358821519736" lon="5.0674755908947855"><ele>45.0</ele><time>2026-04-22T15:47:22.999Z</time></trkpt><trkpt lat="50.90730719960474" lon="5.067685996652253"><ele>45.5</ele><time>2026-04-22T15:47:23.999Z</time></trkpt><trkpt lat="50.90727111937418" lon="5.067906326938271"><ele>46.0</ele><time>2026-04-22T15:47:24.999Z</time></trkpt><trkpt lat="50.90721790390429" lon="5.068112964351905"><ele>46.25</ele><time>2026-04-22T15:47:25.999Z</time></trkpt><trkpt lat="50.90716574747874" lon="5.068319806903872"><ele>46.5</ele><time>2026-04-22T15:47:26.999Z</time></trkpt><trkpt lat="50.907097063362166" lon="5.068511111021021"><ele>46.75</ele><time>2026-04-22T15:47:27.999Z</time></trkpt><trkpt lat="50.9070473602191" lon="5.0687185461952176"><ele>47.0</ele><time>2026-04-22T15:47:28.999Z</time></trkpt><trkpt lat="50.907010857014015" lon="5.06893765568143"><ele>47.25</ele><time>2026-04-22T15:47:29.999Z</time></trkpt><trkpt lat="50.90696042606685" lon="5.0691417776594525"><ele>47.5</ele><time>2026-04-22T15:47:30.999Z</time></trkpt><trkpt lat="50.90690707972492" lon="5.06934021710419"><ele>47.75</ele><time>2026-04-22T15:47:31.999Z</time></trkpt><trkpt lat="50.90684142291809" lon="5.06953225137452"><ele>48.0</ele><time>2026-04-22T15:47:32.999Z</time></trkpt><trkpt lat="50.90678979904451" lon="5.06973328034648"><ele>48.0</ele><time>2026-04-22T15:47:33.999Z</time></trkpt><trkpt lat="50.90675523063538" lon="5.069938573863139"><ele>48.0</ele><time>2026-04-22T15:47:34.999Z</time></trkpt><trkpt lat="50.906703815762306" lon="5.070139576012633"><ele>48.0</ele><time>2026-04-22T15:47:35.998Z</time></trkpt><trkpt lat="50.90665234611367" lon="5.07033957424868"><ele>48.0</ele><time>2026-04-22T15:47:36.998Z</time></trkpt><trkpt lat="50.906600480371154" lon="5.070541342298256"><ele>48.25</ele><time>2026-04-22T15:47:37.998Z</time></trkpt><trkpt lat="50.90655281568678" lon="5.070736230266921"><ele>48.5</ele><time>2026-04-22T15:47:38.998Z</time></trkpt><trkpt lat="50.90650548949138" lon="5.0709357333383505"><ele>48.75</ele><time>2026-04-22T15:47:39.998Z</time></trkpt><trkpt lat="50.90645662767764" lon="5.071120888890773"><ele>49.0</ele><time>2026-04-22T15:47:40.998Z</time></trkpt><trkpt lat="50.90639740530576" lon="5.071279083996679"><ele>49.6</ele><time>2026-04-22T15:47:41.998Z</time></trkpt><trkpt lat="50.906359082809864" lon="5.071427654617612"><ele>50.2</ele><time>2026-04-22T15:47:42.998Z</time></trkpt><trkpt lat="50.90632743661011" lon="5.071550797889248"><ele>50.800000000000004</ele><time>2026-04-22T15:47:43.998Z</time></trkpt><trkpt lat="50.90630028741982" lon="5.071658665377725"><ele>51.400000000000006</ele><time>2026-04-22T15:47:44.998Z</time></trkpt><trkpt lat="50.9062593451307" lon="5.071821334947654"><ele>52.0</ele><time>2026-04-22T15:47:46.998Z</time></trkpt><trkpt lat="50.90622760393427" lon="5.071947447018503"><ele>52.166666666666664</ele><time>2026-04-22T15:47:48.998Z</time></trkpt><trkpt lat="50.90619711562453" lon="5.072068580786581"><ele>52.33333333333333</ele><time>2026-04-22T15:47:50.998Z</time></trkpt><trkpt lat="50.90618680605742" lon="5.072175999036914"><ele>52.5</ele><time>2026-04-22T15:47:51.998Z</time></trkpt><trkpt lat="50.90615169630939" lon="5.072297794000477"><ele>52.66666666666667</ele><time>2026-04-22T15:47:52.998Z</time></trkpt><trkpt lat="50.906118301387544" lon="5.0724359771806755"><ele>52.833333333333336</ele><time>2026-04-22T15:47:53.998Z</time></trkpt><trkpt lat="50.90607924953591" lon="5.072594130775896"><ele>53.0</ele><time>2026-04-22T15:47:54.998Z</time></trkpt><trkpt lat="50.90603727097669" lon="5.072775386174626"><ele>53.25</ele><time>2026-04-22T15:47:55.998Z</time></trkpt><trkpt lat="50.90598745597328" lon="5.072976902387166"><ele>53.5</ele><time>2026-04-22T15:47:56.998Z</time></trkpt><trkpt lat="50.905919245297305" lon="5.073167915889228"><ele>53.75</ele><time>2026-04-22T15:47:57.998Z</time></trkpt><trkpt lat="50.90586545094948" lon="5.073373923671973"><ele>54.0</ele><time>2026-04-22T15:47:58.998Z</time></trkpt><trkpt lat="50.90582549634333" lon="5.073598936069196"><ele>54.0</ele><time>2026-04-22T15:47:59.998Z</time></trkpt><trkpt lat="50.90576889007482" lon="5.073816397537923"><ele>54.0</ele><time>2026-04-22T15:48:00.998Z</time></trkpt><trkpt lat="50.90571484818591" lon="5.074031726795759"><ele>54.0</ele><time>2026-04-22T15:48:01.998Z</time></trkpt><trkpt lat="50.905657966903874" lon="5.074245901190124"><ele>54.0</ele><time>2026-04-22T15:48:02.998Z</time></trkpt><trkpt lat="50.905603457644006" lon="5.074453246526003"><ele>54.0</ele><time>2026-04-22T15:48:03.998Z</time></trkpt><trkpt lat="50.90554848412497" lon="5.0746649464849645"><ele>54.0</ele><time>2026-04-22T15:48:05Z</time></trkpt><trkpt lat="50.90549840858277" lon="5.074865120515122"><ele>54.0</ele><time>2026-04-22T15:48:06Z</time></trkpt><trkpt lat="50.90543997767323" lon="5.07503495461154"><ele>54.0</ele><time>2026-04-22T15:48:07Z</time></trkpt><trkpt lat="50.905392765099386" lon="5.075215876092812"><ele>54.0</ele><time>2026-04-22T15:48:08Z</time></trkpt><trkpt lat="50.905347369411146" lon="5.075389835280912"><ele>54.00000000000001</ele><time>2026-04-22T15:48:09Z</time></trkpt><trkpt lat="50.90530944986441" lon="5.075535145298893"><ele>54.00000000000001</ele><time>2026-04-22T15:48:10Z</time></trkpt><trkpt lat="50.905274693020274" lon="5.075668375227784"><ele>54.0</ele><time>2026-04-22T15:48:11Z</time></trkpt><trkpt lat="50.90524267505919" lon="5.075790144164855"><ele>54.0</ele><time>2026-04-22T15:48:12Z</time></trkpt><trkpt lat="50.90521729458499" lon="5.075898465979009"><ele>53.75</ele><time>2026-04-22T15:48:13Z</time></trkpt><trkpt lat="50.90518679333484" lon="5.076014022949281"><ele>53.5</ele><time>2026-04-22T15:48:14Z</time></trkpt><trkpt lat="50.90529369444809" lon="5.076164374018907"><ele>53.25</ele><time>2026-04-22T15:48:15Z</time></trkpt><trkpt lat="50.90538059958205" lon="5.076284818646634"><ele>53.0</ele><time>2026-04-22T15:48:16Z</time></trkpt><trkpt lat="50.9054516230467" lon="5.076422654485012"><ele>53.0</ele><time>2026-04-22T15:48:17Z</time></trkpt><trkpt lat="50.90551895530752" lon="5.076582315733289"><ele>53.0</ele><time>2026-04-22T15:48:18Z</time></trkpt><trkpt lat="50.90558689614075" lon="5.07675064896748"><ele>53.0</ele><time>2026-04-22T15:48:19Z</time></trkpt><trkpt lat="50.905619157842494" lon="5.076957985963735"><ele>53.0</ele><time>2026-04-22T15:48:20Z</time></trkpt><trkpt lat="50.90565609857997" lon="5.0771754177606"><ele>53.0</ele><time>2026-04-22T15:48:21Z</time></trkpt><trkpt lat="50.905706607143756" lon="5.077401316134451"><ele>53.0</ele><time>2026-04-22T15:48:22Z</time></trkpt><trkpt lat="50.90573897859604" lon="5.077637402293402"><ele>53.0</ele><time>2026-04-22T15:48:23Z</time></trkpt><trkpt lat="50.905775886717606" lon="5.077881434150132"><ele>53.0</ele><time>2026-04-22T15:48:24Z</time></trkpt><trkpt lat="50.90581359440367" lon="5.078135351054348"><ele>53.0</ele><time>2026-04-22T15:48:25Z</time></trkpt><trkpt lat="50.90585261787007" lon="5.078391246262767"><ele>53.0</ele><time>2026-04-22T15:48:26Z</time></trkpt><trkpt lat="50.905895647024806" lon="5.078635290435056"><ele>52.66666666666667</ele><time>2026-04-22T15:48:27Z</time></trkpt><trkpt lat="50.90594013093086" lon="5.078900572596439"><ele>52.33333333333333</ele><time>2026-04-22T15:48:28Z</time></trkpt><trkpt lat="50.90597669833887" lon="5.079164506480056"><ele>52.0</ele><time>2026-04-22T15:48:29Z</time></trkpt><trkpt lat="50.906022982606686" lon="5.079429426246628"><ele>52.0</ele><time>2026-04-22T15:48:30Z</time></trkpt><trkpt lat="50.90606253684319" lon="5.079696021599074"><ele>52.0</ele><time>2026-04-22T15:48:31Z</time></trkpt><trkpt lat="50.90610784095867" lon="5.07997005116039"><ele>52.0</ele><time>2026-04-22T15:48:32Z</time></trkpt><trkpt lat="50.906150760667046" lon="5.08024283513816"><ele>52.0</ele><time>2026-04-22T15:48:33Z</time></trkpt><trkpt lat="50.906193570991505" lon="5.080525305748986"><ele>52.0</ele><time>2026-04-22T15:48:34Z</time></trkpt><trkpt lat="50.906236532907016" lon="5.080804852407725"><ele>52.0</ele><time>2026-04-22T15:48:35Z</time></trkpt><trkpt lat="50.9062791683368" lon="5.081077372467249"><ele>52.0</ele><time>2026-04-22T15:48:36Z</time></trkpt><trkpt lat="50.90632240656801" lon="5.0813598817798615"><ele>52.0</ele><time>2026-04-22T15:48:37Z</time></trkpt><trkpt lat="50.90636394056217" lon="5.0816335499338185"><ele>52.0</ele><time>2026-04-22T15:48:38Z</time></trkpt><trkpt lat="50.90640741368337" lon="5.081919486269328"><ele>51.666666666666664</ele><time>2026-04-22T15:48:39Z</time></trkpt><trkpt lat="50.906449711653764" lon="5.082199470172002"><ele>51.33333333333333</ele><time>2026-04-22T15:48:40Z</time></trkpt><trkpt lat="50.90649548700539" lon="5.082491113774314"><ele>51.0</ele><time>2026-04-22T15:48:41Z</time></trkpt><trkpt lat="50.90654043333046" lon="5.082777443598386"><ele>51.0</ele><time>2026-04-22T15:48:42Z</time></trkpt><trkpt lat="50.906586117236735" lon="5.08306475872995"><ele>51.0</ele><time>2026-04-22T15:48:43Z</time></trkpt><trkpt lat="50.90663026126915" lon="5.083351003764129"><ele>51.0</ele><time>2026-04-22T15:48:44Z</time></trkpt><trkpt lat="50.90665067080114" lon="5.0836195318347555"><ele>50.66666666666667</ele><time>2026-04-22T15:48:45Z</time></trkpt><trkpt lat="50.906679800654366" lon="5.08388183833712"><ele>50.333333333333336</ele><time>2026-04-22T15:48:46Z</time></trkpt><trkpt lat="50.90672465313682" lon="5.084135494847853"><ele>50.0</ele><time>2026-04-22T15:48:47Z</time></trkpt><trkpt lat="50.90675168321913" lon="5.0843959077832075"><ele>49.333333333333336</ele><time>2026-04-22T15:48:48Z</time></trkpt><trkpt lat="50.90678407633069" lon="5.084653023777567"><ele>48.66666666666667</ele><time>2026-04-22T15:48:49Z</time></trkpt><trkpt lat="50.906810710800364" lon="5.084881397265283"><ele>48.0</ele><time>2026-04-22T15:48:50Z</time></trkpt><trkpt lat="50.90684003853905" lon="5.085110721154015"><ele>48.0</ele><time>2026-04-22T15:48:50.999Z</time></trkpt><trkpt lat="50.90687010358098" lon="5.0853320930498835"><ele>48.0</ele><time>2026-04-22T15:48:51.999Z</time></trkpt><trkpt lat="50.90690572896962" lon="5.085554173144213"><ele>48.0</ele><time>2026-04-22T15:48:52.999Z</time></trkpt><trkpt lat="50.9069187450138" lon="5.085759391876321"><ele>48.0</ele><time>2026-04-22T15:48:53.999Z</time></trkpt><trkpt lat="50.90694605331848" lon="5.085942817302562"><ele>47.75</ele><time>2026-04-22T15:48:54.999Z</time></trkpt><trkpt lat="50.90697356217632" lon="5.0861233655466656"><ele>47.5</ele><time>2026-04-22T15:48:55.999Z</time></trkpt><trkpt lat="50.90699728497838" lon="5.086310444985168"><ele>47.25</ele><time>2026-04-22T15:48:56.999Z</time></trkpt><trkpt lat="50.90704859805622" lon="5.086497463754777"><ele>47.0</ele><time>2026-04-22T15:48:57.999Z</time></trkpt><trkpt lat="50.90705399340736" lon="5.08669463795529"><ele>46.5</ele><time>2026-04-22T15:48:58.999Z</time></trkpt><trkpt lat="50.907039289368896" lon="5.086898019588355"><ele>46.0</ele><time>2026-04-22T15:48:59.999Z</time></trkpt><trkpt lat="50.90702508360471" lon="5.087142856739389"><ele>45.5</ele><time>2026-04-22T15:49:00.999Z</time></trkpt><trkpt lat="50.90702337252036" lon="5.08738750645666"><ele>45.0</ele><time>2026-04-22T15:49:01.999Z</time></trkpt><trkpt lat="50.90702569642055" lon="5.087647229928705"><ele>45.0</ele><time>2026-04-22T15:49:02.999Z</time></trkpt><trkpt lat="50.907028782612976" lon="5.087914654321967"><ele>45.0</ele><time>2026-04-22T15:49:03.999Z</time></trkpt><trkpt lat="50.90703275414976" lon="5.08817847779403"><ele>45.0</ele><time>2026-04-22T15:49:04.999Z</time></trkpt><trkpt lat="50.90703856385874" lon="5.0884562751545825"><ele>45.333333333333336</ele><time>2026-04-22T15:49:05.999Z</time></trkpt><trkpt lat="50.90704725720436" lon="5.088728901059624"><ele>45.66666666666667</ele><time>2026-04-22T15:49:06.999Z</time></trkpt><trkpt lat="50.90706299858187" lon="5.089002665119676"><ele>46.0</ele><time>2026-04-22T15:49:07.999Z</time></trkpt><trkpt lat="50.90710079181322" lon="5.0892307258441445"><ele>46.0</ele><time>2026-04-22T15:49:08.999Z</time></trkpt><trkpt lat="50.907113122654145" lon="5.089459662138941"><ele>46.0</ele><time>2026-04-22T15:49:09.999Z</time></trkpt><trkpt lat="50.907138456956524" lon="5.089661949392909"><ele>46.0</ele><time>2026-04-22T15:49:10.999Z</time></trkpt><trkpt lat="50.907152567804005" lon="5.089855224009979"><ele>46.0</ele><time>2026-04-22T15:49:11.999Z</time></trkpt><trkpt lat="50.907127113610535" lon="5.09004715531857"><ele>45.333333333333336</ele><time>2026-04-22T15:49:12.999Z</time></trkpt><trkpt lat="50.90704488807093" lon="5.090223438986538"><ele>44.666666666666664</ele><time>2026-04-22T15:49:13.999Z</time></trkpt><trkpt lat="50.90696850963907" lon="5.0904430974696275"><ele>44.0</ele><time>2026-04-22T15:49:14.999Z</time></trkpt><trkpt lat="50.906905060798294" lon="5.090670447363659"><ele>43.666666666666664</ele><time>2026-04-22T15:49:15.999Z</time></trkpt><trkpt lat="50.90681466630121" lon="5.0908855372188535"><ele>43.333333333333336</ele><time>2026-04-22T15:49:16.999Z</time></trkpt><trkpt lat="50.90673506325833" lon="5.091111507217181"><ele>43.0</ele><time>2026-04-22T15:49:17.999Z</time></trkpt><trkpt lat="50.90664877598696" lon="5.091358646986507"><ele>42.66666666666667</ele><time>2026-04-22T15:49:18.999Z</time></trkpt><trkpt lat="50.906596390257796" lon="5.091620574949815"><ele>42.333333333333336</ele><time>2026-04-22T15:49:19.999Z</time></trkpt><trkpt lat="50.90653634499146" lon="5.091894448623453"><ele>42.0</ele><time>2026-04-22T15:49:20.999Z</time></trkpt><trkpt lat="50.90650446577449" lon="5.092161650302594"><ele>42.666666666666664</ele><time>2026-04-22T15:49:21.999Z</time></trkpt><trkpt lat="50.90645009804776" lon="5.0924288028875555"><ele>43.33333333333333</ele><time>2026-04-22T15:49:22.999Z</time></trkpt><trkpt lat="50.90641153768315" lon="5.0926758195985204"><ele>44.0</ele><time>2026-04-22T15:49:23.999Z</time></trkpt><trkpt lat="50.90637599807838" lon="5.0928971759299895"><ele>44.0</ele><time>2026-04-22T15:49:24.999Z</time></trkpt><trkpt lat="50.906341814593986" lon="5.0931011926505025"><ele>44.0</ele><time>2026-04-22T15:49:25.999Z</time></trkpt><trkpt lat="50.90629916269884" lon="5.09330858377012"><ele>44.0</ele><time>2026-04-22T15:49:26.999Z</time></trkpt><trkpt lat="50.9062324508201" lon="5.09348286860658"><ele>44.0</ele><time>2026-04-22T15:49:27.999Z</time></trkpt><trkpt lat="50.90612636628629" lon="5.093593315938606"><ele>44.5</ele><time>2026-04-22T15:49:28.999Z</time></trkpt><trkpt lat="50.90600242246873" lon="5.093690134970816"><ele>45.0</ele><time>2026-04-22T15:49:29.999Z</time></trkpt><trkpt lat="50.905867498935976" lon="5.093764482284847"><ele>45.5</ele><time>2026-04-22T15:49:30.999Z</time></trkpt><trkpt lat="50.905730100230585" lon="5.093846646580167"><ele>46.0</ele><time>2026-04-22T15:49:31.999Z</time></trkpt><trkpt lat="50.905595512179325" lon="5.093924064222252"><ele>46.0</ele><time>2026-04-22T15:49:32.999Z</time></trkpt><trkpt lat="50.905460922042096" lon="5.093998838275497"><ele>46.0</ele><time>2026-04-22T15:49:33.999Z</time></trkpt><trkpt lat="50.905348427455294" lon="5.094062483724314"><ele>46.0</ele><time>2026-04-22T15:49:34.999Z</time></trkpt><trkpt lat="50.905255024008795" lon="5.094117002906761"><ele>46.0</ele><time>2026-04-22T15:49:35.999Z</time></trkpt><trkpt lat="50.905167387413854" lon="5.09416703753751"><ele>46.16666666666667</ele><time>2026-04-22T15:49:36.999Z</time></trkpt><trkpt lat="50.90508702050855" lon="5.094212543439058"><ele>46.333333333333336</ele><time>2026-04-22T15:49:37.998Z</time></trkpt><trkpt lat="50.90501772876887" lon="5.094252202269534"><ele>46.5</ele><time>2026-04-22T15:49:38.998Z</time></trkpt><trkpt lat="50.90494711746214" lon="5.09429342205607"><ele>46.666666666666664</ele><time>2026-04-22T15:49:39.998Z</time></trkpt><trkpt lat="50.90487299722977" lon="5.094336826750329"><ele>46.83333333333333</ele><time>2026-04-22T15:49:40.998Z</time></trkpt><trkpt lat="50.904790960288835" lon="5.094385531615461"><ele>47.0</ele><time>2026-04-22T15:49:41.998Z</time></trkpt><trkpt lat="50.90470582659276" lon="5.0944373946479855"><ele>47.25</ele><time>2026-04-22T15:49:42.998Z</time></trkpt><trkpt lat="50.90461711556584" lon="5.094491826689329"><ele>47.5</ele><time>2026-04-22T15:49:43.998Z</time></trkpt><trkpt lat="50.90451268746268" lon="5.094558705823398"><ele>47.75</ele><time>2026-04-22T15:49:44.998Z</time></trkpt><trkpt lat="50.90440457781174" lon="5.094627942811884"><ele>48.0</ele><time>2026-04-22T15:49:45.998Z</time></trkpt><trkpt lat="50.9042884319493" lon="5.094705944162959"><ele>48.25</ele><time>2026-04-22T15:49:46.998Z</time></trkpt><trkpt lat="50.90416599870931" lon="5.094797550924703"><ele>48.5</ele><time>2026-04-22T15:49:47.998Z</time></trkpt><trkpt lat="50.90404634838118" lon="5.094895270323667"><ele>48.75</ele><time>2026-04-22T15:49:48.998Z</time></trkpt><trkpt lat="50.90394272747453" lon="5.094980928829871"><ele>49.0</ele><time>2026-04-22T15:49:49.998Z</time></trkpt><trkpt lat="50.90385261566847" lon="5.0950594961262565"><ele>49.166666666666664</ele><time>2026-04-22T15:49:50.998Z</time></trkpt><trkpt lat="50.90378271480659" lon="5.0951219872883105"><ele>49.33333333333333</ele><time>2026-04-22T15:49:51.998Z</time></trkpt><trkpt lat="50.90373008251821" lon="5.095184961011131"><ele>49.5</ele><time>2026-04-22T15:49:52.998Z</time></trkpt><trkpt lat="50.90370107618539" lon="5.095291771900601"><ele>49.66666666666667</ele><time>2026-04-22T15:49:53.998Z</time></trkpt><trkpt lat="50.90370598208229" lon="5.095407960148265"><ele>49.833333333333336</ele><time>2026-04-22T15:49:54.998Z</time></trkpt><trkpt lat="50.90375055293157" lon="5.095531720280283"><ele>50.0</ele><time>2026-04-22T15:49:55.998Z</time></trkpt><trkpt lat="50.90379718106432" lon="5.095622091603626"><ele>50.0</ele><time>2026-04-22T15:49:56.998Z</time></trkpt><trkpt lat="50.903830324781154" lon="5.095717424265773"><ele>50.0</ele><time>2026-04-22T15:49:57.998Z</time></trkpt><trkpt lat="50.9037326750232" lon="5.095835792997469"><ele>50.0</ele><time>2026-04-22T15:49:59.998Z</time></trkpt><trkpt lat="50.90366134384258" lon="5.095896721713195"><ele>50.0</ele><time>2026-04-22T15:50:00.998Z</time></trkpt><trkpt lat="50.90358265168523" lon="5.095984454121347"><ele>50.0</ele><time>2026-04-22T15:50:01.998Z</time></trkpt><trkpt lat="50.90350779477644" lon="5.09607086778491"><ele>49.75</ele><time>2026-04-22T15:50:02.998Z</time></trkpt><trkpt lat="50.90342423153467" lon="5.0961806359957675"><ele>49.5</ele><time>2026-04-22T15:50:03.998Z</time></trkpt><trkpt lat="50.90334241150176" lon="5.096310008367979"><ele>49.25</ele><time>2026-04-22T15:50:04.998Z</time></trkpt><trkpt lat="50.903260807351614" lon="5.096441732917476"><ele>49.0</ele><time>2026-04-22T15:50:05.998Z</time></trkpt><trkpt lat="50.90317478926587" lon="5.096562806513271"><ele>49.2</ele><time>2026-04-22T15:50:06.998Z</time></trkpt><trkpt lat="50.90308729975667" lon="5.096663874734159"><ele>49.400000000000006</ele><time>2026-04-22T15:50:07.998Z</time></trkpt><trkpt lat="50.90299975667432" lon="5.096760924253694"><ele>49.6</ele><time>2026-04-22T15:50:08.998Z</time></trkpt><trkpt lat="50.90291205841208" lon="5.096842723339646"><ele>49.8</ele><time>2026-04-22T15:50:09.998Z</time></trkpt><trkpt lat="50.90282525239785" lon="5.0969168370609665"><ele>50.0</ele><time>2026-04-22T15:50:11Z</time></trkpt><trkpt lat="50.9027433188176" lon="5.096962803609208"><ele>50.0</ele><time>2026-04-22T15:50:12Z</time></trkpt><trkpt lat="50.90266677397544" lon="5.097006587498882"><ele>50.0</ele><time>2026-04-22T15:50:13Z</time></trkpt><trkpt lat="50.90259750048252" lon="5.097048445187646"><ele>50.0</ele><time>2026-04-22T15:50:14Z</time></trkpt><trkpt lat="50.90249181459944" lon="5.097113321263938"><ele>50.0</ele><time>2026-04-22T15:50:16Z</time></trkpt><trkpt lat="50.90242990744641" lon="5.09716051091824"><ele>50.0</ele><time>2026-04-22T15:50:20Z</time></trkpt><trkpt lat="50.902360751771795" lon="5.097201005727389"><ele>50.0</ele><time>2026-04-22T15:51:14.999Z</time></trkpt></trkseg></trk></gpx>